| time (UTC) | temp C | wind direction | speed KPH | gust KPH | rain 1hr cm | rain 24hr cm | rain mn cm | humidity % | barometer mb |
| 20260905113501 | 18 | 246 | 6.4 | 12.9 | 0.00 | 0.33 | 0.33 | 84 | 1021.7 |
| 20260905113401 | 18 | 279 | 6.4 | 12.9 | 0.00 | 0.33 | 0.33 | 85 | 1021.8 |
| 20260905113301 | 18 | 218 | 6.4 | 12.9 | 0.00 | 0.33 | 0.33 | 84 | 1021.7 |
| 20260905113200 | 18 | 202 | 6.4 | 12.9 | 0.00 | 0.33 | 0.33 | 85 | 1021.8 |
| 20260905113100 | 18 | 266 | 6.4 | 12.9 | 0.00 | 0.33 | 0.33 | 85 | 1021.8 |
| 20260905113000 | 18 | 297 | 6.4 | 12.9 | 0.00 | 0.33 | 0.33 | 85 | 1021.8 |
| 20260905112901 | 18 | 242 | 6.4 | 12.9 | 0.00 | 0.33 | 0.33 | 85 | 1021.7 |
| 20260905112800 | 18 | 244 | 6.4 | 12.9 | 0.00 | 0.33 | 0.33 | 86 | 1021.7 |
| 20260905112700 | 18 | 248 | 6.4 | 12.9 | 0.00 | 0.33 | 0.33 | 85 | 1021.7 |
| 20260905112601 | 17 | 229 | 6.4 | 12.9 | 0.00 | 0.33 | 0.33 | 85 | 1021.7 |
| 20260905112501 | 17 | 258 | 6.4 | 12.9 | 0.00 | 0.33 | 0.33 | 86 | 1021.7 |
| 20260905112401 | 17 | 247 | 6.4 | 12.9 | 0.00 | 0.33 | 0.33 | 87 | 1021.8 |
| 20260905112300 | 17 | 241 | 6.4 | 14.5 | 0.00 | 0.33 | 0.33 | 85 | 1021.7 |
| 20260905112201 | 17 | 228 | 6.4 | 14.5 | 0.00 | 0.33 | 0.33 | 85 | 1021.8 |
| 20260905112056 | 17 | 281 | 8.0 | 14.5 | 0.00 | 0.33 | 0.33 | 85 | 1021.7 |
| 20260905111956 | 17 | 300 | 8.0 | 17.7 | 0.00 | 0.33 | 0.33 | 86 | 1021.7 |
| 20260905111856 | 17 | 300 | 9.7 | 17.7 | 0.00 | 0.33 | 0.33 | 86 | 1021.7 |
| 20260905111756 | 17 | 298 | 9.7 | 17.7 | 0.00 | 0.33 | 0.33 | 86 | 1021.8 |
| 20260905111654 | 17 | 284 | 9.7 | 17.7 | 0.00 | 0.33 | 0.33 | 86 | 1021.7 |
| 20260905111548 | 17 | 275 | 9.7 | 17.7 | 0.03 | 0.33 | 0.33 | 86 | 1021.8 |
| 20260905111447 | 17 | 234 | 9.7 | 17.7 | 0.03 | 0.33 | 0.33 | 85 | 1021.7 |
| 20260905111418 | 17 | 246 | 11.3 | 17.7 | 0.03 | 0.33 | 0.33 | 85 | 1021.8 |
| 20260905111413 | 17 | 261 | 9.7 | 17.7 | 0.03 | 0.33 | 0.33 | 85 | 1021.7 |
| 20260905111403 | 17 | 233 | 11.3 | 17.7 | 0.03 | 0.33 | 0.33 | 85 | 1021.8 |
| 20260905111148 | 17 | 260 | 11.3 | 17.7 | 0.03 | 0.33 | 0.33 | 85 | 1021.8 |
| 20260905111044 | 17 | 247 | 9.7 | 17.7 | 0.03 | 0.33 | 0.33 | 85 | 1021.8 |
| 20260905110943 | 17 | 254 | 9.7 | 17.7 | 0.03 | 0.33 | 0.33 | 87 | 1021.7 |
| 20260905110846 | 17 | 275 | 9.7 | 17.7 | 0.03 | 0.33 | 0.33 | 86 | 1021.8 |
| 20260905110744 | 17 | 273 | 9.7 | 17.7 | 0.03 | 0.33 | 0.33 | 86 | 1021.7 |
| 20260905110641 | 17 | 265 | 9.7 | 17.7 | 0.03 | 0.33 | 0.33 | 87 | 1021.7 |
| 20260905110538 | 17 | 230 | 9.7 | 17.7 | 0.03 | 0.33 | 0.33 | 88 | 1021.8 |
| 20260905110436 | 17 | 286 | 9.7 | 17.7 | 0.03 | 0.33 | 0.33 | 87 | 1021.7 |
| 20260905110418 | 17 | 234 | 6.4 | 14.5 | 0.03 | 0.33 | 0.33 | 87 | 1021.7 |
| 20260905110407 | 17 | 312 | 8.0 | 17.7 | 0.03 | 0.33 | 0.33 | 88 | 1021.7 |
| 20260905110403 | 17 | 236 | 8.0 | 17.7 | 0.03 | 0.33 | 0.33 | 88 | 1021.8 |
| 20260905110136 | 17 | 198 | 6.4 | 14.5 | 0.03 | 0.33 | 0.33 | 87 | 1021.7 |
| 20260905110030 | 17 | 223 | 6.4 | 14.5 | 0.03 | 0.33 | 0.33 | 88 | 1021.7 |
| 20260905105929 | 16 | 210 | 6.4 | 14.5 | 0.03 | 0.33 | 0.33 | 90 | 1021.6 |
| 20260905105830 | 16 | 230 | 6.4 | 12.9 | 0.03 | 0.33 | 0.33 | 89 | 1021.7 |
| 20260905105730 | 16 | 269 | 4.8 | 11.3 | 0.03 | 0.33 | 0.33 | 89 | 1021.6 |
| 20260905105652 | 16 | 284 | 4.8 | 11.3 | 0.03 | 0.33 | 0.33 | 89 | 1021.6 |
| 20260905105629 | 16 | 267 | 4.8 | 11.3 | 0.03 | 0.33 | 0.33 | 89 | 1021.6 |
| 20260905105530 | 16 | 287 | 4.8 | 11.3 | 0.03 | 0.33 | 0.33 | 88 | 1021.6 |
| 20260905105430 | 16 | 278 | 4.8 | 11.3 | 0.03 | 0.33 | 0.33 | 88 | 1021.6 |
| 20260905105330 | 16 | 225 | 4.8 | 11.3 | 0.03 | 0.33 | 0.33 | 88 | 1021.6 |
| 20260905105230 | 16 | 242 | 4.8 | 11.3 | 0.03 | 0.33 | 0.33 | 88 | 1021.6 |
| 20260905105152 | 16 | 224 | 4.8 | 11.3 | 0.03 | 0.33 | 0.33 | 88 | 1021.6 |
| 20260905105130 | 16 | 224 | 4.8 | 11.3 | 0.03 | 0.33 | 0.33 | 89 | 1021.6 |
| 20260905105029 | 16 | 223 | 4.8 | 11.3 | 0.03 | 0.33 | 0.33 | 89 | 1021.6 |
| 20260905104930 | 16 | 265 | 3.2 | 9.7 | 0.03 | 0.33 | 0.33 | 89 | 1021.6 |
| 20260905104830 | 16 | 246 | 3.2 | 9.7 | 0.03 | 0.33 | 0.33 | 89 | 1021.6 |
| 20260905104730 | 16 | 227 | 3.2 | 9.7 | 0.03 | 0.33 | 0.33 | 89 | 1021.6 |
| 20260905104629 | 16 | 225 | 3.2 | 9.7 | 0.03 | 0.33 | 0.33 | 89 | 1021.6 |
| 20260905104529 | 16 | 225 | 3.2 | 9.7 | 0.03 | 0.33 | 0.33 | 88 | 1021.6 |
| 20260905104429 | 16 | 198 | 3.2 | 9.7 | 0.05 | 0.33 | 0.33 | 88 | 1021.6 |
| 20260905104329 | 16 | 195 | 3.2 | 9.7 | 0.05 | 0.33 | 0.33 | 89 | 1021.6 |
| 20260905104230 | 16 | 205 | 3.2 | 8.0 | 0.05 | 0.33 | 0.33 | 89 | 1021.6 |
| 20260905104150 | 16 | 223 | 3.2 | 8.0 | 0.05 | 0.33 | 0.33 | 89 | 1021.6 |
| 20260905104129 | 16 | 227 | 3.2 | 8.0 | 0.05 | 0.33 | 0.33 | 89 | 1021.6 |
| 20260905104029 | 16 | 296 | 3.2 | 8.0 | 0.05 | 0.33 | 0.33 | 89 | 1021.7 |
| 20260905103929 | 16 | 296 | 3.2 | 8.0 | 0.05 | 0.33 | 0.33 | 90 | 1021.7 |
| 20260905103915 | 16 | 234 | 3.2 | 8.0 | 0.05 | 0.33 | 0.33 | 90 | 1021.7 |
| 20260905103906 | 16 | 241 | 3.2 | 6.4 | 0.05 | 0.33 | 0.33 | 90 | 1021.7 |
| 20260905103902 | 16 | 241 | 3.2 | 8.0 | 0.05 | 0.33 | 0.33 | 90 | 1021.7 |
| 20260905103628 | 16 | 254 | 3.2 | 8.0 | 0.05 | 0.33 | 0.33 | 90 | 1021.7 |
| 20260905103526 | 16 | 209 | 3.2 | 8.0 | 0.05 | 0.33 | 0.33 | 90 | 1021.7 |
| 20260905103424 | 16 | 208 | 3.2 | 8.0 | 0.05 | 0.33 | 0.33 | 90 | 1021.6 |
| 20260905103415 | 16 | 208 | 3.2 | 9.7 | 0.05 | 0.33 | 0.33 | 89 | 1021.6 |
| 20260905103406 | 16 | 208 | 3.2 | 8.0 | 0.05 | 0.33 | 0.33 | 90 | 1021.6 |
| 20260905103402 | 16 | 208 | 3.2 | 9.7 | 0.05 | 0.33 | 0.33 | 89 | 1021.6 |
| 20260905103120 | 16 | 208 | 3.2 | 9.7 | 0.05 | 0.33 | 0.33 | 89 | 1021.6 |
| 20260905103020 | 16 | 208 | 3.2 | 9.7 | 0.05 | 0.33 | 0.33 | 90 | 1021.6 |
| 20260905102917 | 16 | 208 | 3.2 | 9.7 | 0.05 | 0.33 | 0.33 | 90 | 1021.5 |
| 20260905102913 | 16 | 208 | 3.2 | 9.7 | 0.05 | 0.33 | 0.33 | 90 | 1021.5 |
| 20260905102903 | 16 | 208 | 3.2 | 9.7 | 0.05 | 0.33 | 0.33 | 90 | 1021.5 |
| 20260905102859 | 16 | 208 | 3.2 | 9.7 | 0.05 | 0.33 | 0.33 | 90 | 1021.5 |
| 20260905102612 | 16 | 208 | 4.8 | 9.7 | 0.05 | 0.33 | 0.33 | 90 | 1021.5 |
| 20260905102511 | 16 | 208 | 4.8 | 9.7 | 0.05 | 0.33 | 0.33 | 90 | 1021.5 |
| 20260905102415 | 16 | 213 | 4.8 | 11.3 | 0.05 | 0.33 | 0.33 | 90 | 1021.3 |
| 20260905102411 | 16 | 207 | 4.8 | 9.7 | 0.05 | 0.33 | 0.33 | 90 | 1021.3 |
| 20260905102402 | 16 | 208 | 4.8 | 9.7 | 0.05 | 0.33 | 0.33 | 89 | 1021.3 |
| 20260905102358 | 16 | 213 | 4.8 | 11.3 | 0.05 | 0.33 | 0.33 | 90 | 1021.3 |
| 20260905102108 | 16 | 209 | 4.8 | 11.3 | 0.05 | 0.33 | 0.33 | 90 | 1021.3 |
| 20260905102007 | 16 | 216 | 4.8 | 11.3 | 0.05 | 0.33 | 0.33 | 90 | 1021.3 |
| 20260905101905 | 16 | 216 | 4.8 | 11.3 | 0.05 | 0.33 | 0.33 | 90 | 1021.3 |
| 20260905101801 | 16 | 216 | 6.4 | 11.3 | 0.08 | 0.33 | 0.33 | 90 | 1021.3 |
| 20260905101646 | 16 | 215 | 6.4 | 11.3 | 0.08 | 0.33 | 0.33 | 90 | 1021.3 |
| 20260905101600 | 16 | 214 | 6.4 | 11.3 | 0.08 | 0.33 | 0.33 | 90 | 1021.3 |
| 20260905101500 | 16 | 205 | 6.4 | 11.3 | 0.08 | 0.33 | 0.33 | 90 | 1021.5 |
| 20260905101400 | 15 | 212 | 6.4 | 11.3 | 0.10 | 0.33 | 0.33 | 90 | 1021.3 |
| 20260905101254 | 15 | 254 | 6.4 | 11.3 | 0.10 | 0.33 | 0.33 | 90 | 1021.3 |
| 20260905101146 | 15 | 227 | 6.4 | 11.3 | 0.13 | 0.33 | 0.33 | 90 | 1021.3 |
| 20260905101054 | 15 | 212 | 6.4 | 12.9 | 0.13 | 0.33 | 0.33 | 90 | 1021.3 |
| 20260905100954 | 15 | 211 | 4.8 | 12.9 | 0.13 | 0.33 | 0.33 | 91 | 1021.3 |
| 20260905100854 | 15 | 224 | 4.8 | 12.9 | 0.13 | 0.33 | 0.33 | 91 | 1021.3 |
| 20260905100748 | 15 | 229 | 4.8 | 12.9 | 0.13 | 0.33 | 0.33 | 91 | 1021.2 |
| 20260905100643 | 15 | 211 | 4.8 | 12.9 | 0.13 | 0.33 | 0.33 | 91 | 1021.2 |
| 20260905100547 | 15 | 232 | 4.8 | 12.9 | 0.13 | 0.33 | 0.33 | 91 | 1021.2 |
| 20260905100447 | 15 | 212 | 4.8 | 12.9 | 0.13 | 0.33 | 0.33 | 91 | 1021.3 |
| 20260905100347 | 15 | 223 | 4.8 | 12.9 | 0.13 | 0.33 | 0.33 | 91 | 1021.3 |
| 20260905100246 | 15 | 229 | 4.8 | 12.9 | 0.13 | 0.33 | 0.33 | 91 | 1021.3 |
| 20260905100143 | 15 | 242 | 3.2 | 12.9 | 0.13 | 0.33 | 0.33 | 91 | 1021.3 |
| 20260905100045 | 15 | 259 | 3.2 | 9.7 | 0.13 | 0.33 | 0.33 | 91 | 1021.3 |
| 20260905095946 | 15 | 293 | 3.2 | 9.7 | 0.13 | 0.33 | 0.33 | 91 | 1021.5 |
| 20260905095846 | 15 | 234 | 3.2 | 9.7 | 0.13 | 0.33 | 0.33 | 92 | 1021.5 |
| 20260905095745 | 15 | 234 | 3.2 | 9.7 | 0.13 | 0.33 | 0.33 | 92 | 1021.3 |
| 20260905095644 | 15 | 242 | 3.2 | 9.7 | 0.13 | 0.33 | 0.33 | 92 | 1021.3 |
| 20260905095544 | 15 | 200 | 3.2 | 9.7 | 0.15 | 0.33 | 0.33 | 92 | 1021.3 |
| 20260905095442 | 15 | 185 | 1.6 | 8.0 | 0.15 | 0.33 | 0.33 | 92 | 1021.3 |
| 20260905095342 | 15 | 184 | 1.6 | 8.0 | 0.15 | 0.33 | 0.33 | 92 | 1021.3 |
| 20260905095242 | 15 | 184 | 3.2 | 8.0 | 0.15 | 0.33 | 0.33 | 92 | 1021.3 |
| 20260905095142 | 15 | 184 | 1.6 | 8.0 | 0.15 | 0.33 | 0.33 | 91 | 1021.3 |
| 20260905095040 | 15 | 183 | 1.6 | 8.0 | 0.15 | 0.33 | 0.33 | 91 | 1021.3 |
| 20260905094940 | 15 | 127 | 1.6 | 8.0 | 0.15 | 0.33 | 0.33 | 92 | 1021.3 |
| 20260905094840 | 15 | 123 | 1.6 | 8.0 | 0.15 | 0.33 | 0.33 | 91 | 1021.2 |
| 20260905094740 | 15 | 123 | 1.6 | 8.0 | 0.15 | 0.33 | 0.33 | 91 | 1021.2 |
| 20260905094640 | 15 | 123 | 1.6 | 8.0 | 0.15 | 0.33 | 0.33 | 91 | 1021.2 |
| 20260905094540 | 15 | 127 | 1.6 | 8.0 | 0.15 | 0.33 | 0.30 | 91 | 1021.3 |
| 20260905094439 | 15 | 127 | 1.6 | 8.0 | 0.13 | 0.30 | 0.30 | 91 | 1021.2 |
| 20260905094402 | 15 | 127 | 1.6 | 8.0 | 0.13 | 0.30 | 0.30 | 91 | 1021.2 |
| 20260905094354 | 15 | 98 | 1.6 | 6.4 | 0.13 | 0.30 | 0.30 | 92 | 1021.2 |
| 20260905094350 | 15 | 100 | 1.6 | 6.4 | 0.13 | 0.30 | 0.30 | 91 | 1021.2 |
| 20260905094036 | 15 | 100 | 3.2 | 6.4 | 0.13 | 0.30 | 0.30 | 91 | 1021.3 |
| 20260905093934 | 15 | 101 | 3.2 | 14.5 | 0.13 | 0.30 | 0.30 | 91 | 1021.5 |
| 20260905093834 | 15 | 101 | 3.2 | 14.5 | 0.13 | 0.30 | 0.30 | 91 | 1021.5 |
| 20260905093734 | 15 | 101 | 4.8 | 14.5 | 0.13 | 0.30 | 0.30 | 91 | 1021.3 |
| 20260905093634 | 15 | 95 | 4.8 | 14.5 | 0.13 | 0.30 | 0.30 | 90 | 1021.3 |
| 20260905093532 | 15 | 105 | 4.8 | 14.5 | 0.13 | 0.30 | 0.30 | 90 | 1021.3 |
| 20260905093432 | 15 | 104 | 4.8 | 14.5 | 0.13 | 0.30 | 0.30 | 90 | 1021.2 |
| 20260905093350 | 15 | 148 | 4.8 | 12.9 | 0.13 | 0.30 | 0.30 | 90 | 1021.3 |
| 20260905093346 | 15 | 101 | 4.8 | 14.5 | 0.13 | 0.30 | 0.30 | 91 | 1021.2 |
| 20260905093338 | 15 | 90 | 4.8 | 14.5 | 0.13 | 0.30 | 0.30 | 91 | 1021.1 |
| 20260905093329 | 15 | 125 | 4.8 | 14.5 | 0.13 | 0.30 | 0.30 | 90 | 1021.3 |
| 20260905093114 | 15 | 134 | 4.8 | 14.5 | 0.13 | 0.30 | 0.30 | 90 | 1021.3 |
| 20260905093110 | 15 | 110 | 4.8 | 14.5 | 0.13 | 0.30 | 0.30 | 90 | 1021.3 |
| 20260905092854 | 15 | 142 | 4.8 | 12.9 | 0.13 | 0.30 | 0.30 | 90 | 1021.3 |
| 20260905092847 | 15 | 147 | 4.8 | 12.9 | 0.13 | 0.30 | 0.30 | 90 | 1021.5 |
| 20260905092632 | 15 | 148 | 4.8 | 12.9 | 0.13 | 0.30 | 0.30 | 90 | 1021.3 |
| 20260905092532 | 15 | 150 | 4.8 | 12.9 | 0.13 | 0.30 | 0.30 | 90 | 1021.5 |
| 20260905092432 | 15 | 127 | 4.8 | 12.9 | 0.13 | 0.30 | 0.30 | 90 | 1021.5 |
| 20260905092330 | 15 | 116 | 4.8 | 12.9 | 0.13 | 0.30 | 0.28 | 90 | 1021.5 |
| 20260905092230 | 15 | 144 | 4.8 | 11.3 | 0.10 | 0.28 | 0.28 | 90 | 1021.3 |
| 20260905092130 | 15 | 109 | 4.8 | 11.3 | 0.10 | 0.28 | 0.28 | 90 | 1021.3 |
| 20260905092030 | 15 | 167 | 4.8 | 11.3 | 0.13 | 0.28 | 0.28 | 90 | 1021.3 |
| 20260905091929 | 15 | 167 | 4.8 | 11.3 | 0.13 | 0.28 | 0.25 | 90 | 1021.3 |
| 20260905091900 | 15 | 128 | 6.4 | 11.3 | 0.13 | 0.23 | 0.23 | 89 | 1021.6 |
| 20260905091855 | 15 | 124 | 4.8 | 11.3 | 0.10 | 0.25 | 0.25 | 90 | 1021.3 |
| 20260905091847 | 15 | 132 | 4.8 | 11.3 | 0.13 | 0.25 | 0.23 | 89 | 1021.5 |
| 20260905091630 | 15 | 128 | 6.4 | 11.3 | 0.13 | 0.23 | 0.23 | 89 | 1021.6 |
| 20260905091530 | 15 | 128 | 6.4 | 11.3 | 0.15 | 0.23 | 0.23 | 89 | 1021.3 |
| 20260905091430 | 15 | 104 | 6.4 | 11.3 | 0.15 | 0.23 | 0.23 | 89 | 1021.3 |
| 20260905091401 | 15 | 169 | 4.8 | 11.3 | 0.15 | 0.20 | 0.20 | 89 | 1021.5 |
| 20260905091329 | 15 | 132 | 6.4 | 11.3 | 0.15 | 0.23 | 0.23 | 89 | 1021.5 |
| 20260905091229 | 15 | 168 | 6.4 | 11.3 | 0.15 | 0.23 | 0.20 | 89 | 1021.6 |
| 20260905091201 | 15 | 151 | 4.8 | 11.3 | 0.15 | 0.20 | 0.20 | 89 | 1021.5 |
| 20260905091029 | 15 | 146 | 4.8 | 11.3 | 0.15 | 0.20 | 0.20 | 89 | 1021.5 |
| 20260905090929 | 15 | 142 | 4.8 | 11.3 | 0.18 | 0.20 | 0.20 | 89 | 1021.3 |
| 20260905090830 | 15 | 116 | 4.8 | 11.3 | 0.18 | 0.20 | 0.20 | 89 | 1021.3 |
| 20260905090729 | 15 | 159 | 4.8 | 11.3 | 0.18 | 0.20 | 0.20 | 89 | 1021.3 |
| 20260905090634 | 15 | 144 | 4.8 | 11.3 | 0.18 | 0.20 | 0.20 | 89 | 1021.3 |
| 20260905090629 | 15 | 140 | 4.8 | 11.3 | 0.18 | 0.20 | 0.20 | 89 | 1021.3 |
| 20260905090529 | 15 | 136 | 4.8 | 11.3 | 0.18 | 0.20 | 0.20 | 89 | 1021.2 |
| 20260905090429 | 15 | 156 | 3.2 | 9.7 | 0.18 | 0.20 | 0.20 | 89 | 1021.2 |
| 20260905090329 | 15 | 132 | 3.2 | 9.7 | 0.18 | 0.20 | 0.20 | 89 | 1021.2 |
| 20260905090229 | 15 | 172 | 3.2 | 9.7 | 0.18 | 0.20 | 0.20 | 88 | 1021.2 |
| 20260905090124 | 15 | 153 | 3.2 | 9.7 | 0.18 | 0.20 | 0.20 | 88 | 1021.2 |
| 20260905090024 | 15 | 155 | 3.2 | 9.7 | 0.18 | 0.20 | 0.20 | 89 | 1021.1 |
| 20260905085924 | 15 | 128 | 3.2 | 9.7 | 0.18 | 0.20 | 0.20 | 89 | 1021.0 |
| 20260905085824 | 15 | 126 | 3.2 | 8.0 | 0.18 | 0.20 | 0.20 | 89 | 1021.0 |
| 20260905085723 | 15 | 123 | 3.2 | 8.0 | 0.18 | 0.20 | 0.20 | 89 | 1021.1 |
| 20260905085624 | 15 | 135 | 3.2 | 12.9 | 0.18 | 0.20 | 0.18 | 89 | 1021.1 |
| 20260905085521 | 15 | 126 | 3.2 | 14.5 | 0.15 | 0.18 | 0.18 | 89 | 1021.1 |
| 20260905085423 | 15 | 126 | 3.2 | 14.5 | 0.15 | 0.18 | 0.18 | 89 | 1021.1 |
| 20260905085322 | 15 | 126 | 4.8 | 14.5 | 0.15 | 0.18 | 0.18 | 89 | 1021.1 |
| 20260905085221 | 15 | 126 | 4.8 | 14.5 | 0.15 | 0.18 | 0.18 | 89 | 1021.1 |
| 20260905085131 | 15 | 127 | 4.8 | 14.5 | 0.15 | 0.18 | 0.18 | 89 | 1021.1 |
| 20260905085121 | 15 | 127 | 6.4 | 14.5 | 0.15 | 0.18 | 0.18 | 89 | 1021.0 |
| 20260905085113 | 14 | 133 | 8.0 | 16.1 | 0.15 | 0.18 | 0.18 | 90 | 1020.9 |
| 20260905085108 | 15 | 127 | 6.4 | 14.5 | 0.15 | 0.18 | 0.18 | 89 | 1021.0 |
| 20260905085104 | 14 | 127 | 6.4 | 14.5 | 0.15 | 0.18 | 0.18 | 89 | 1020.9 |
| 20260905084848 | 15 | 117 | 6.4 | 14.5 | 0.15 | 0.18 | 0.18 | 89 | 1020.9 |
| 20260905084840 | 14 | 143 | 6.4 | 16.1 | 0.15 | 0.18 | 0.18 | 90 | 1020.9 |
| 20260905084621 | 14 | 140 | 8.0 | 16.1 | 0.15 | 0.18 | 0.18 | 90 | 1020.9 |
| 20260905084522 | 14 | 146 | 8.0 | 16.1 | 0.15 | 0.18 | 0.18 | 89 | 1020.9 |
| 20260905084418 | 14 | 134 | 8.0 | 16.1 | 0.15 | 0.18 | 0.18 | 90 | 1020.9 |
| 20260905084357 | 14 | 125 | 8.0 | 16.1 | 0.15 | 0.18 | 0.18 | 89 | 1020.8 |
| 20260905084349 | 14 | 144 | 8.0 | 16.1 | 0.15 | 0.18 | 0.18 | 89 | 1020.9 |
| 20260905084341 | 14 | 174 | 8.0 | 16.1 | 0.15 | 0.18 | 0.18 | 89 | 1020.8 |
| 20260905084118 | 14 | 134 | 8.0 | 16.1 | 0.15 | 0.18 | 0.18 | 89 | 1020.8 |
| 20260905084018 | 14 | 143 | 8.0 | 16.1 | 0.15 | 0.18 | 0.18 | 89 | 1020.8 |
| 20260905083917 | 14 | 118 | 8.0 | 16.1 | 0.15 | 0.18 | 0.18 | 89 | 1020.7 |
| 20260905083817 | 14 | 132 | 8.0 | 16.1 | 0.15 | 0.18 | 0.18 | 89 | 1020.7 |
| 20260905083718 | 14 | 150 | 8.0 | 16.1 | 0.15 | 0.18 | 0.18 | 89 | 1020.8 |
| 20260905083629 | 14 | 140 | 8.0 | 16.1 | 0.15 | 0.18 | 0.18 | 89 | 1020.8 |
| 20260905083618 | 14 | 157 | 8.0 | 16.1 | 0.15 | 0.18 | 0.18 | 89 | 1020.8 |
| 20260905083518 | 14 | 125 | 6.4 | 16.1 | 0.15 | 0.18 | 0.18 | 89 | 1020.7 |
| 20260905083418 | 14 | 101 | 6.4 | 16.1 | 0.15 | 0.18 | 0.18 | 88 | 1020.7 |
| 20260905083359 | 15 | 144 | 6.4 | 14.5 | 0.15 | 0.18 | 0.18 | 88 | 1020.8 |
| 20260905083349 | 14 | 87 | 6.4 | 16.1 | 0.15 | 0.18 | 0.18 | 88 | 1020.8 |
| 20260905083345 | 14 | 107 | 6.4 | 16.1 | 0.15 | 0.18 | 0.18 | 88 | 1020.8 |
| 20260905083117 | 15 | 117 | 6.4 | 14.5 | 0.15 | 0.18 | 0.18 | 88 | 1020.8 |
| 20260905083017 | 15 | 117 | 6.4 | 12.9 | 0.15 | 0.18 | 0.18 | 88 | 1020.8 |
| 20260905082918 | 15 | 112 | 4.8 | 12.9 | 0.15 | 0.18 | 0.18 | 88 | 1020.8 |
| 20260905082818 | 15 | 123 | 4.8 | 12.9 | 0.15 | 0.18 | 0.18 | 88 | 1020.9 |
| 20260905082718 | 15 | 123 | 4.8 | 14.5 | 0.15 | 0.18 | 0.18 | 87 | 1021.0 |
| 20260905082629 | 15 | 133 | 4.8 | 14.5 | 0.15 | 0.18 | 0.18 | 87 | 1021.0 |
| 20260905082618 | 15 | 98 | 4.8 | 14.5 | 0.15 | 0.18 | 0.18 | 87 | 1021.0 |
| 20260905082515 | 15 | 96 | 4.8 | 14.5 | 0.15 | 0.18 | 0.18 | 87 | 1021.0 |
| 20260905082414 | 15 | 137 | 3.2 | 14.5 | 0.15 | 0.18 | 0.18 | 86 | 1021.1 |
| 20260905082313 | 15 | 138 | 3.2 | 14.5 | 0.15 | 0.18 | 0.18 | 86 | 1021.2 |
| 20260905082215 | 15 | 138 | 3.2 | 14.5 | 0.15 | 0.18 | 0.18 | 86 | 1021.2 |
| 20260905082130 | 15 | 147 | 3.2 | 14.5 | 0.15 | 0.18 | 0.15 | 86 | 1021.2 |
| 20260905082114 | 15 | 148 | 3.2 | 14.5 | 0.15 | 0.18 | 0.15 | 86 | 1021.2 |
| 20260905082014 | 15 | 148 | 4.8 | 14.5 | 0.15 | 0.15 | 0.15 | 86 | 1021.2 |
| 20260905081914 | 15 | 148 | 4.8 | 14.5 | 0.15 | 0.15 | 0.15 | 85 | 1021.2 |
| 20260905081813 | 15 | 151 | 4.8 | 14.5 | 0.13 | 0.15 | 0.15 | 85 | 1021.2 |
| 20260905081713 | 15 | 171 | 6.4 | 14.5 | 0.10 | 0.13 | 0.13 | 85 | 1021.2 |
| 20260905081630 | 15 | 146 | 6.4 | 14.5 | 0.10 | 0.13 | 0.10 | 85 | 1021.2 |
| 20260905081613 | 15 | 139 | 6.4 | 14.5 | 0.10 | 0.13 | 0.10 | 86 | 1021.2 |
| 20260905081513 | 15 | 82 | 6.4 | 14.5 | 0.08 | 0.10 | 0.08 | 86 | 1021.3 |
| 20260905081414 | 15 | 355 | 8.0 | 17.7 | 0.05 | 0.08 | 0.08 | 85 | 1021.5 |
| 20260905081314 | 15 | 355 | 8.0 | 17.7 | 0.05 | 0.08 | 0.05 | 85 | 1021.5 |
| 20260905081215 | 15 | 355 | 8.0 | 17.7 | 0.03 | 0.05 | 0.05 | 86 | 1021.5 |
| 20260905081129 | 15 | 344 | 8.0 | 17.7 | 0.03 | 0.05 | 0.05 | 85 | 1021.5 |
| 20260905081114 | 15 | 9 | 9.7 | 17.7 | 0.03 | 0.05 | 0.05 | 85 | 1021.5 |
| 20260905081014 | 15 | 355 | 9.7 | 17.7 | 0.03 | 0.05 | 0.03 | 85 | 1021.3 |
| 20260905080914 | 15 | 9 | 9.7 | 17.7 | 0.00 | 0.03 | 0.03 | 85 | 1021.3 |
| 20260905080814 | 15 | 5 | 8.0 | 17.7 | 0.00 | 0.03 | 0.03 | 84 | 1021.3 |
| 20260905080713 | 15 | 9 | 8.0 | 17.7 | 0.00 | 0.03 | 0.03 | 84 | 1021.3 |
| 20260905080630 | 15 | 5 | 8.0 | 17.7 | 0.00 | 0.03 | 0.03 | 84 | 1021.3 |
| 20260905080609 | 15 | 48 | 8.0 | 17.7 | 0.00 | 0.03 | 0.03 | 84 | 1021.2 |
| 20260905080509 | 15 | 20 | 6.4 | 17.7 | 0.00 | 0.03 | 0.03 | 84 | 1021.2 |
| 20260905080411 | 15 | 15 | 6.4 | 16.1 | 0.00 | 0.03 | 0.03 | 84 | 1021.2 |
| 20260905080309 | 15 | 15 | 4.8 | 16.1 | 0.00 | 0.03 | 0.03 | 83 | 1021.2 |
| 20260905080210 | 15 | 333 | 4.8 | 14.5 | 0.00 | 0.03 | 0.03 | 84 | 1021.2 |
| 20260905080129 | 15 | 22 | 4.8 | 14.5 | 0.00 | 0.03 | 0.03 | 83 | 1021.2 |
| 20260905080109 | 15 | 0 | 3.2 | 14.5 | 0.00 | 0.03 | 0.03 | 83 | 1021.2 |
| 20260905080010 | 15 | 332 | 3.2 | 9.7 | 0.00 | 0.03 | 0.03 | 83 | 1021.1 |
| 20260905075910 | 15 | 12 | 3.2 | 9.7 | 0.00 | 0.03 | 0.03 | 83 | 1021.0 |
| 20260905075810 | 15 | 16 | 3.2 | 9.7 | 0.00 | 0.03 | 0.03 | 83 | 1021.0 |
| 20260905075710 | 15 | 60 | 3.2 | 9.7 | 0.00 | 0.03 | 0.03 | 83 | 1020.9 |
| 20260905075629 | 15 | 61 | 3.2 | 9.7 | 0.00 | 0.03 | 0.03 | 83 | 1020.9 |
| 20260905075610 | 15 | 60 | 3.2 | 9.7 | 0.00 | 0.03 | 0.03 | 83 | 1020.9 |
| 20260905075510 | 15 | 82 | 3.2 | 9.7 | 0.00 | 0.03 | 0.03 | 83 | 1020.9 |
| 20260905075410 | 15 | 49 | 3.2 | 6.4 | 0.00 | 0.03 | 0.03 | 83 | 1020.9 |
| 20260905075355 | 15 | 67 | 3.2 | 6.4 | 0.00 | 0.03 | 0.03 | 83 | 1020.8 |
| 20260905075350 | 15 | 49 | 3.2 | 6.4 | 0.00 | 0.03 | 0.03 | 83 | 1020.9 |
| 20260905075346 | 15 | 67 | 3.2 | 6.4 | 0.00 | 0.03 | 0.03 | 83 | 1020.8 |
| 20260905075110 | 15 | 67 | 3.2 | 6.4 | 0.00 | 0.03 | 0.03 | 83 | 1020.9 |
| 20260905075010 | 15 | 67 | 3.2 | 6.4 | 0.00 | 0.03 | 0.03 | 83 | 1020.9 |
| 20260905074910 | 15 | 86 | 3.2 | 6.4 | 0.00 | 0.03 | 0.03 | 83 | 1020.9 |
| 20260905074810 | 15 | 32 | 3.2 | 6.4 | 0.00 | 0.03 | 0.03 | 83 | 1020.9 |
| 20260905074705 | 15 | 32 | 3.2 | 6.4 | 0.00 | 0.03 | 0.03 | 83 | 1020.9 |
| 20260905074605 | 15 | 30 | 3.2 | 6.4 | 0.00 | 0.03 | 0.03 | 83 | 1020.9 |
| 20260905074505 | 15 | 16 | 1.6 | 6.4 | 0.00 | 0.03 | 0.03 | 83 | 1021.0 |
| 20260905074405 | 15 | 17 | 1.6 | 6.4 | 0.00 | 0.03 | 0.03 | 83 | 1020.9 |
| 20260905074355 | 15 | 18 | 1.6 | 6.4 | 0.00 | 0.03 | 0.03 | 82 | 1020.8 |
| 20260905074349 | 15 | 17 | 1.6 | 4.8 | 0.00 | 0.03 | 0.03 | 82 | 1020.8 |
| 20260905074345 | 15 | 18 | 1.6 | 6.4 | 0.00 | 0.03 | 0.03 | 82 | 1020.8 |
| 20260905074106 | 15 | 18 | 3.2 | 6.4 | 0.00 | 0.03 | 0.03 | 82 | 1020.8 |
| 20260905074008 | 15 | 18 | 3.2 | 6.4 | 0.00 | 0.03 | 0.03 | 82 | 1020.9 |
| 20260905073906 | 15 | 17 | 3.2 | 6.4 | 0.00 | 0.03 | 0.03 | 82 | 1020.8 |
| 20260905073805 | 15 | 17 | 3.2 | 6.4 | 0.00 | 0.03 | 0.03 | 82 | 1020.8 |
| 20260905073706 | 15 | 17 | 3.2 | 6.4 | 0.00 | 0.03 | 0.03 | 82 | 1020.8 |
| 20260905073606 | 15 | 17 | 3.2 | 6.4 | 0.00 | 0.03 | 0.03 | 82 | 1020.8 |
| 20260905073505 | 15 | 17 | 3.2 | 6.4 | 0.00 | 0.03 | 0.03 | 82 | 1020.7 |
| 20260905073405 | 15 | 17 | 3.2 | 6.4 | 0.00 | 0.03 | 0.03 | 82 | 1020.7 |
| 20260905073305 | 15 | 17 | 1.6 | 6.4 | 0.00 | 0.03 | 0.03 | 83 | 1020.8 |
| 20260905073205 | 15 | 17 | 1.6 | 6.4 | 0.00 | 0.03 | 0.03 | 83 | 1020.7 |
| 20260905073105 | 15 | 17 | 1.6 | 6.4 | 0.00 | 0.03 | 0.03 | 83 | 1020.7 |
| 20260905073006 | 15 | 24 | 1.6 | 6.4 | 0.00 | 0.03 | 0.03 | 84 | 1020.7 |
| 20260905072906 | 15 | 80 | 1.6 | 4.8 | 0.00 | 0.03 | 0.03 | 83 | 1020.7 |
| 20260905072852 | 15 | 109 | 1.6 | 4.8 | 0.00 | 0.03 | 0.03 | 83 | 1020.7 |
| 20260905072848 | 15 | 90 | 1.6 | 4.8 | 0.00 | 0.03 | 0.03 | 83 | 1020.7 |
| 20260905072843 | 15 | 109 | 1.6 | 4.8 | 0.00 | 0.03 | 0.03 | 83 | 1020.7 |
| 20260905072601 | 15 | 109 | 1.6 | 4.8 | 0.00 | 0.03 | 0.03 | 83 | 1020.7 |
| 20260905072501 | 15 | 109 | 1.6 | 4.8 | 0.00 | 0.03 | 0.03 | 83 | 1020.7 |
| 20260905072401 | 15 | 109 | 1.6 | 4.8 | 0.00 | 0.03 | 0.03 | 83 | 1020.7 |
| 20260905072354 | 15 | 109 | 1.6 | 4.8 | 0.00 | 0.03 | 0.03 | 84 | 1020.6 |
| 20260905072349 | 15 | 109 | 1.6 | 4.8 | 0.00 | 0.03 | 0.03 | 84 | 1020.6 |
| 20260905072345 | 15 | 109 | 1.6 | 4.8 | 0.00 | 0.03 | 0.03 | 84 | 1020.6 |
| 20260905072101 | 15 | 109 | 1.6 | 4.8 | 0.00 | 0.03 | 0.03 | 84 | 1020.6 |
| 20260905072001 | 15 | 111 | 1.6 | 4.8 | 0.00 | 0.03 | 0.03 | 84 | 1020.6 |
| 20260905071901 | 15 | 111 | 1.6 | 4.8 | 0.00 | 0.03 | 0.03 | 85 | 1020.6 |
| 20260905071802 | 15 | 111 | 0.0 | 4.8 | 0.00 | 0.03 | 0.03 | 84 | 1020.6 |
| 20260905071702 | 15 | 113 | 0.0 | 3.2 | 0.00 | 0.03 | 0.03 | 84 | 1020.5 |
| 20260905071601 | 15 | 113 | 0.0 | 3.2 | 0.00 | 0.03 | 0.03 | 84 | 1020.5 |
| 20260905071501 | 15 | 113 | 0.0 | 3.2 | 0.00 | 0.03 | 0.03 | 84 | 1020.5 |
| 20260905071401 | 15 | 113 | 0.0 | 3.2 | 0.00 | 0.03 | 0.03 | 84 | 1020.4 |
| 20260905071301 | 15 | 113 | 0.0 | 3.2 | 0.00 | 0.03 | 0.03 | 85 | 1020.5 |
| 20260905071201 | 15 | 113 | 0.0 | 3.2 | 0.00 | 0.03 | 0.03 | 85 | 1020.5 |
| 20260905071129 | 15 | 113 | 0.0 | 4.8 | 0.00 | 0.03 | 0.03 | 85 | 1020.5 |
| 20260905071101 | 15 | 113 | 0.0 | 4.8 | 0.00 | 0.03 | 0.03 | 85 | 1020.4 |
| 20260905071002 | 15 | 113 | 0.0 | 4.8 | 0.00 | 0.03 | 0.03 | 84 | 1020.4 |
| 20260905070901 | 15 | 113 | 0.0 | 4.8 | 0.00 | 0.03 | 0.03 | 84 | 1020.4 |
| 20260905070801 | 15 | 113 | 0.0 | 4.8 | 0.03 | 0.03 | 0.03 | 84 | 1020.4 |
| 20260905070701 | 15 | 113 | 0.0 | 4.8 | 0.03 | 0.03 | 0.03 | 85 | 1020.4 |
| 20260905070629 | 15 | 113 | 0.0 | 4.8 | 0.03 | 0.03 | 0.03 | 85 | 1020.4 |
| 20260905070601 | 15 | 113 | 0.0 | 4.8 | 0.03 | 0.03 | 0.03 | 85 | 1020.5 |
| 20260905070501 | 15 | 113 | 0.0 | 4.8 | 0.03 | 0.03 | 0.03 | 84 | 1020.4 |
| 20260905070401 | 15 | 113 | 0.0 | 4.8 | 0.03 | 0.03 | 0.03 | 84 | 1020.5 |
| 20260905070301 | 15 | 113 | 0.0 | 4.8 | 0.03 | 0.03 | 0.03 | 84 | 1020.5 |
| 20260905070201 | 15 | 113 | 0.0 | 4.8 | 0.03 | 0.03 | 0.03 | 86 | 1020.5 |
| 20260905070132 | 15 | 113 | 0.0 | 4.8 | 0.03 | 0.03 | 0.03 | 86 | 1020.5 |
| 20260905070101 | 15 | 113 | 0.0 | 4.8 | 0.03 | 0.03 | 0.03 | 85 | 1020.5 |
| 20260905070001 | 15 | 113 | 0.0 | 4.8 | 0.03 | 0.03 | 0.03 | 85 | 1020.4 |
| 20260905065901 | 15 | 113 | 1.6 | 4.8 | 0.03 | 0.03 | 0.03 | 85 | 1020.4 |
| 20260905065801 | 15 | 113 | 1.6 | 4.8 | 0.03 | 0.03 | 0.03 | 85 | 1020.4 |
| 20260905065701 | 15 | 113 | 1.6 | 4.8 | 0.03 | 0.03 | 0.03 | 85 | 1020.4 |
| 20260905065632 | 15 | 113 | 1.6 | 4.8 | 0.03 | 0.03 | 0.03 | 85 | 1020.4 |
| 20260905065600 | 15 | 113 | 1.6 | 4.8 | 0.03 | 0.03 | 0.03 | 84 | 1020.3 |
| 20260905065500 | 15 | 113 | 1.6 | 4.8 | 0.03 | 0.03 | 0.03 | 85 | 1020.3 |
| 20260905065400 | 15 | 113 | 1.6 | 4.8 | 0.03 | 0.03 | 0.03 | 85 | 1020.3 |
| 20260905065353 | 15 | 116 | 1.6 | 4.8 | 0.03 | 0.03 | 0.03 | 85 | 1020.2 |
| 20260905065345 | 15 | 113 | 1.6 | 4.8 | 0.03 | 0.03 | 0.03 | 85 | 1020.3 |
| 20260905065341 | 15 | 113 | 1.6 | 4.8 | 0.03 | 0.03 | 0.03 | 85 | 1020.2 |
| 20260905065059 | 15 | 121 | 1.6 | 4.8 | 0.03 | 0.03 | 0.03 | 85 | 1020.2 |
| 20260905064959 | 15 | 126 | 1.6 | 4.8 | 0.03 | 0.03 | 0.03 | 84 | 1020.2 |
| 20260905064859 | 15 | 126 | 1.6 | 4.8 | 0.03 | 0.03 | 0.03 | 85 | 1020.2 |
| 20260905064759 | 15 | 128 | 0.0 | 4.8 | 0.03 | 0.03 | 0.03 | 85 | 1020.3 |
| 20260905064659 | 15 | 128 | 0.0 | 4.8 | 0.03 | 0.03 | 0.03 | 85 | 1020.3 |
| 20260905064629 | 15 | 131 | 0.0 | 3.2 | 0.03 | 0.03 | 0.03 | 84 | 1020.3 |
| 20260905064557 | 15 | 132 | 0.0 | 3.2 | 0.03 | 0.03 | 0.03 | 84 | 1020.3 |
| 20260905064455 | 15 | 132 | 0.0 | 3.2 | 0.03 | 0.03 | 0.03 | 84 | 1020.3 |
| 20260905064355 | 15 | 132 | 0.0 | 1.6 | 0.03 | 0.03 | 0.03 | 84 | 1020.3 |
| 20260905064256 | 15 | 132 | 0.0 | 0.0 | 0.03 | 0.03 | 0.03 | 84 | 1020.3 |
| 20260905064129 | 15 | 132 | 0.0 | 0.0 | 0.03 | 0.03 | 0.03 | 84 | 1020.3 |
| 20260905064051 | 15 | 132 | 0.0 | 0.0 | 0.03 | 0.03 | 0.03 | 84 | 1020.2 |
| 20260905063951 | 15 | 132 | 0.0 | 0.0 | 0.03 | 0.03 | 0.03 | 84 | 1020.3 |
| 20260905063849 | 15 | 132 | 0.0 | 0.0 | 0.03 | 0.03 | 0.03 | 84 | 1020.3 |
| 20260905063749 | 15 | 132 | 0.0 | 0.0 | 0.03 | 0.03 | 0.03 | 84 | 1020.3 |
| 20260905063628 | 15 | 132 | 0.0 | 0.0 | 0.03 | 0.03 | 0.03 | 84 | 1020.3 |
| 20260905063545 | 15 | 132 | 0.0 | 0.0 | 0.03 | 0.03 | 0.03 | 84 | 1020.4 |
| 20260905063445 | 15 | 132 | 0.0 | 0.0 | 0.03 | 0.03 | 0.03 | 84 | 1020.3 |
| 20260905063343 | 15 | 132 | 0.0 | 0.0 | 0.03 | 0.03 | 0.03 | 84 | 1020.4 |
| 20260905063243 | 15 | 132 | 0.0 | 0.0 | 0.03 | 0.03 | 0.03 | 84 | 1020.4 |
| 20260905063128 | 15 | 132 | 0.0 | 3.2 | 0.03 | 0.03 | 0.03 | 83 | 1020.4 |
| 20260905063039 | 15 | 132 | 0.0 | 3.2 | 0.03 | 0.03 | 0.03 | 84 | 1020.4 |
| 20260905062940 | 15 | 132 | 0.0 | 3.2 | 0.03 | 0.03 | 0.03 | 83 | 1020.4 |
| 20260905062838 | 15 | 132 | 0.0 | 3.2 | 0.03 | 0.03 | 0.03 | 84 | 1020.4 |
| 20260905062735 | 15 | 132 | 0.0 | 3.2 | 0.03 | 0.03 | 0.03 | 84 | 1020.4 |
| 20260905062628 | 15 | 132 | 0.0 | 3.2 | 0.03 | 0.03 | 0.03 | 84 | 1020.4 |
| 20260905062533 | 15 | 132 | 0.0 | 3.2 | 0.03 | 0.03 | 0.03 | 84 | 1020.4 |
| 20260905062433 | 15 | 132 | 0.0 | 3.2 | 0.03 | 0.03 | 0.03 | 84 | 1020.3 |
| 20260905062349 | 15 | 132 | 0.0 | 3.2 | 0.03 | 0.03 | 0.03 | 83 | 1020.2 |
| 20260905062345 | 15 | 132 | 0.0 | 3.2 | 0.03 | 0.03 | 0.03 | 83 | 1020.1 |
| 20260905062340 | 15 | 132 | 0.0 | 1.6 | 0.03 | 0.03 | 0.03 | 83 | 1020.1 |
| 20260905062029 | 15 | 132 | 0.0 | 1.6 | 0.03 | 0.03 | 0.03 | 83 | 1020.0 |
| 20260905061929 | 15 | 132 | 0.0 | 1.6 | 0.03 | 0.03 | 0.03 | 83 | 1020.1 |
| 20260905061829 | 15 | 132 | 0.0 | 3.2 | 0.03 | 0.03 | 0.03 | 83 | 1020.1 |
| 20260905061729 | 15 | 132 | 0.0 | 4.8 | 0.03 | 0.03 | 0.03 | 83 | 1020.0 |
| 20260905061629 | 15 | 132 | 0.0 | 4.8 | 0.03 | 0.03 | 0.03 | 83 | 1020.0 |
| 20260905061529 | 15 | 132 | 1.6 | 4.8 | 0.03 | 0.03 | 0.03 | 83 | 1020.0 |
| 20260905061429 | 15 | 132 | 1.6 | 4.8 | 0.03 | 0.03 | 0.03 | 83 | 1020.0 |
| 20260905061329 | 15 | 132 | 1.6 | 4.8 | 0.03 | 0.03 | 0.03 | 83 | 1020.0 |
| 20260905061229 | 15 | 132 | 1.6 | 4.8 | 0.03 | 0.03 | 0.03 | 83 | 1020.0 |
| 20260905061129 | 15 | 132 | 1.6 | 4.8 | 0.03 | 0.03 | 0.03 | 82 | 1020.0 |
| 20260905061029 | 15 | 132 | 1.6 | 4.8 | 0.03 | 0.03 | 0.03 | 81 | 1019.9 |
| 20260905060929 | 15 | 132 | 1.6 | 4.8 | 0.03 | 0.03 | 0.03 | 82 | 1019.9 |
| 20260905060828 | 15 | 132 | 1.6 | 4.8 | 0.03 | 0.03 | 0.00 | 82 | 1019.9 |
| 20260905060729 | 15 | 132 | 1.6 | 6.4 | 0.00 | 0.00 | 0.00 | 82 | 1019.8 |
| 20260905060629 | 15 | 136 | 1.6 | 6.4 | 0.00 | 0.00 | 0.00 | 81 | 1019.8 |
| 20260905060528 | 15 | 136 | 1.6 | 6.4 | 0.00 | 0.00 | 0.00 | 81 | 1019.8 |
| 20260905060428 | 15 | 141 | 1.6 | 6.4 | 0.00 | 0.00 | 0.00 | 81 | 1019.8 |
| 20260905060328 | 15 | 141 | 1.6 | 6.4 | 0.00 | 0.00 | 0.00 | 81 | 1019.8 |
| 20260905060228 | 15 | 141 | 1.6 | 6.4 | 0.00 | 0.00 | 0.00 | 81 | 1019.7 |
| 20260905060129 | 15 | 141 | 1.6 | 6.4 | 0.00 | 0.00 | 0.00 | 80 | 1019.7 |
| 20260905060028 | 15 | 141 | 3.2 | 6.4 | 0.00 | 0.00 | 0.00 | 79 | 1019.5 |
| 20260905055928 | 15 | 141 | 3.2 | 11.3 | 0.00 | 0.00 | 0.00 | 79 | 1019.4 |
| 20260905055829 | 15 | 141 | 3.2 | 11.3 | 0.00 | 0.00 | 0.00 | 79 | 1019.4 |
| 20260905055729 | 15 | 140 | 3.2 | 11.3 | 0.00 | 0.00 | 0.00 | 79 | 1019.4 |
| 20260905055629 | 15 | 133 | 3.2 | 11.3 | 0.00 | 0.00 | 0.00 | 79 | 1019.4 |
| 20260905055528 | 15 | 132 | 3.2 | 11.3 | 0.00 | 0.00 | 0.00 | 79 | 1019.3 |
| 20260905055428 | 15 | 132 | 3.2 | 11.3 | 0.00 | 0.00 | 0.00 | 79 | 1019.3 |
| 20260905055329 | 15 | 132 | 3.2 | 11.3 | 0.00 | 0.00 | 0.00 | 79 | 1019.2 |
| 20260905055230 | 15 | 132 | 3.2 | 11.3 | 0.00 | 0.00 | 0.00 | 79 | 1019.2 |
| 20260905055129 | 15 | 134 | 3.2 | 11.3 | 0.00 | 0.00 | 0.00 | 79 | 1019.3 |
| 20260905055030 | 15 | 133 | 3.2 | 11.3 | 0.00 | 0.00 | 0.00 | 79 | 1019.4 |
| 20260905054930 | 15 | 140 | 3.2 | 11.3 | 0.00 | 0.00 | 0.00 | 78 | 1019.3 |
| 20260905054829 | 15 | 134 | 3.2 | 11.3 | 0.00 | 0.00 | 0.00 | 78 | 1019.3 |
| 20260905054729 | 15 | 127 | 3.2 | 8.0 | 0.00 | 0.00 | 0.00 | 78 | 1019.1 |
| 20260905054629 | 15 | 110 | 3.2 | 8.0 | 0.00 | 0.00 | 0.00 | 78 | 1019.0 |
| 20260905054529 | 15 | 109 | 3.2 | 8.0 | 0.00 | 0.00 | 0.00 | 78 | 1018.9 |
| 20260905054429 | 15 | 99 | 3.2 | 8.0 | 0.00 | 0.00 | 0.00 | 78 | 1019.0 |
| 20260905054329 | 16 | 101 | 3.2 | 8.0 | 0.00 | 0.00 | 0.00 | 78 | 1019.0 |
| 20260905054229 | 16 | 101 | 3.2 | 8.0 | 0.00 | 0.00 | 0.00 | 78 | 1019.0 |
| 20260905054129 | 16 | 132 | 3.2 | 8.0 | 0.00 | 0.00 | 0.00 | 78 | 1019.1 |
| 20260905054029 | 16 | 123 | 3.2 | 6.4 | 0.00 | 0.00 | 0.00 | 78 | 1019.2 |
| 20260905053929 | 16 | 103 | 3.2 | 4.8 | 0.00 | 0.00 | 0.00 | 77 | 1019.3 |
| 20260905053849 | 16 | 97 | 3.2 | 4.8 | 0.00 | 0.00 | 0.00 | 77 | 1019.5 |
| 20260905053845 | 16 | 96 | 3.2 | 4.8 | 0.00 | 0.00 | 0.00 | 77 | 1019.5 |
| 20260905053841 | 16 | 95 | 3.2 | 4.8 | 0.00 | 0.00 | 0.00 | 77 | 1019.5 |
| 20260905053532 | 16 | 94 | 1.6 | 4.8 | 0.00 | 0.00 | 0.00 | 76 | 1019.5 |
| 20260905053428 | 16 | 92 | 3.2 | 4.8 | 0.00 | 0.00 | 0.00 | 76 | 1019.7 |
| 20260905053329 | 16 | 90 | 3.2 | 6.4 | 0.00 | 0.00 | 0.00 | 76 | 1019.8 |
| 20260905053229 | 16 | 100 | 1.6 | 6.4 | 0.00 | 0.00 | 0.00 | 76 | 1019.9 |
| 20260905053129 | 16 | 100 | 1.6 | 6.4 | 0.00 | 0.00 | 0.00 | 76 | 1019.9 |
| 20260905053031 | 16 | 101 | 1.6 | 6.4 | 0.00 | 0.00 | 0.00 | 75 | 1019.8 |
| 20260905052929 | 16 | 101 | 1.6 | 6.4 | 0.00 | 0.00 | 0.00 | 75 | 1019.7 |
| 20260905052847 | 16 | 101 | 1.6 | 6.4 | 0.00 | 0.00 | 0.00 | 75 | 1019.7 |
| 20260905052843 | 16 | 100 | 1.6 | 6.4 | 0.00 | 0.00 | 0.00 | 75 | 1019.7 |
| 20260905052839 | 16 | 98 | 1.6 | 6.4 | 0.00 | 0.00 | 0.00 | 75 | 1019.7 |
| 20260905052529 | 16 | 98 | 1.6 | 6.4 | 0.00 | 0.00 | 0.00 | 75 | 1019.7 |
| 20260905052429 | 16 | 97 | 1.6 | 6.4 | 0.00 | 0.00 | 0.00 | 74 | 1019.7 |
| 20260905052329 | 16 | 80 | 1.6 | 4.8 | 0.00 | 0.00 | 0.00 | 74 | 1019.8 |
| 20260905052229 | 16 | 80 | 1.6 | 4.8 | 0.00 | 0.00 | 0.00 | 74 | 1019.8 |
| 20260905052129 | 16 | 80 | 1.6 | 9.7 | 0.00 | 0.00 | 0.00 | 74 | 1019.8 |
| 20260905052029 | 16 | 80 | 1.6 | 9.7 | 0.00 | 0.00 | 0.00 | 74 | 1019.8 |
| 20260905051928 | 16 | 80 | 1.6 | 9.7 | 0.00 | 0.00 | 0.00 | 75 | 1019.8 |
| 20260905051829 | 16 | 80 | 1.6 | 9.7 | 0.00 | 0.00 | 0.00 | 75 | 1019.8 |
| 20260905051729 | 16 | 80 | 1.6 | 9.7 | 0.00 | 0.00 | 0.00 | 75 | 1019.8 |
| 20260905051629 | 16 | 80 | 1.6 | 9.7 | 0.00 | 0.00 | 0.00 | 74 | 1019.5 |
| 20260905051529 | 16 | 80 | 1.6 | 9.7 | 0.00 | 0.00 | 0.00 | 74 | 1019.4 |
| 20260905051429 | 16 | 79 | 1.6 | 9.7 | 0.00 | 0.00 | 0.00 | 74 | 1019.5 |
| 20260905051348 | 16 | 82 | 1.6 | 9.7 | 0.00 | 0.00 | 0.00 | 73 | 1019.5 |
| 20260905051344 | 16 | 101 | 1.6 | 9.7 | 0.00 | 0.00 | 0.00 | 73 | 1019.7 |
| 20260905051340 | 16 | 103 | 3.2 | 9.7 | 0.00 | 0.00 | 0.00 | 73 | 1019.7 |
| 20260905051029 | 16 | 103 | 3.2 | 9.7 | 0.00 | 0.00 | 0.00 | 73 | 1019.7 |
| 20260905050929 | 16 | 103 | 3.2 | 9.7 | 0.00 | 0.00 | 0.00 | 73 | 1019.5 |
| 20260905050829 | 16 | 103 | 3.2 | 9.7 | 0.00 | 0.00 | 0.00 | 72 | 1019.4 |
| 20260905050729 | 16 | 103 | 3.2 | 9.7 | 0.00 | 0.00 | 0.00 | 71 | 1019.4 |
| 20260905050629 | 16 | 103 | 3.2 | 9.7 | 0.00 | 0.00 | 0.00 | 71 | 1019.3 |
| 20260905050529 | 16 | 103 | 3.2 | 9.7 | 0.00 | 0.00 | 0.00 | 71 | 1019.3 |
| 20260905050428 | 16 | 131 | 3.2 | 9.7 | 0.00 | 0.00 | 0.00 | 70 | 1019.3 |
| 20260905050328 | 16 | 121 | 3.2 | 9.7 | 0.00 | 0.00 | 0.00 | 70 | 1019.3 |
| 20260905050228 | 16 | 99 | 3.2 | 9.7 | 0.00 | 0.00 | 0.00 | 71 | 1019.3 |
| 20260905050129 | 16 | 57 | 3.2 | 6.4 | 0.00 | 0.00 | 0.00 | 71 | 1019.4 |
| 20260905050029 | 16 | 345 | 3.2 | 6.4 | 0.00 | 0.00 | 0.00 | 71 | 1019.4 |
| 20260905045929 | 17 | 337 | 3.2 | 6.4 | 0.00 | 0.00 | 0.00 | 70 | 1019.5 |
| 20260905045849 | 17 | 335 | 3.2 | 6.4 | 0.00 | 0.00 | 0.00 | 70 | 1019.5 |
| 20260905045845 | 17 | 334 | 1.6 | 6.4 | 0.00 | 0.00 | 0.00 | 70 | 1019.7 |
| 20260905045841 | 17 | 355 | 1.6 | 4.8 | 0.00 | 0.00 | 0.00 | 70 | 1019.8 |
| 20260905045530 | 17 | 40 | 1.6 | 4.8 | 0.00 | 0.00 | 0.00 | 70 | 1019.8 |
| 20260905045429 | 17 | 40 | 1.6 | 8.0 | 0.00 | 0.00 | 0.00 | 70 | 1019.8 |
| 20260905045348 | 17 | 40 | 3.2 | 9.7 | 0.00 | 0.00 | 0.00 | 70 | 1019.8 |
| 20260905045344 | 17 | 40 | 3.2 | 9.7 | 0.00 | 0.00 | 0.00 | 70 | 1019.9 |
| 20260905045340 | 17 | 40 | 3.2 | 9.7 | 0.00 | 0.00 | 0.00 | 70 | 1019.8 |
| 20260905045029 | 17 | 40 | 3.2 | 9.7 | 0.00 | 0.00 | 0.00 | 69 | 1019.7 |
| 20260905044929 | 17 | 40 | 3.2 | 9.7 | 0.00 | 0.00 | 0.00 | 69 | 1019.7 |
| 20260905044829 | 17 | 40 | 3.2 | 9.7 | 0.00 | 0.00 | 0.00 | 68 | 1019.7 |
| 20260905044729 | 17 | 40 | 4.8 | 12.9 | 0.00 | 0.00 | 0.00 | 69 | 1019.7 |
| 20260905044628 | 17 | 40 | 4.8 | 12.9 | 0.00 | 0.00 | 0.00 | 69 | 1019.7 |
| 20260905044529 | 17 | 73 | 4.8 | 12.9 | 0.00 | 0.00 | 0.00 | 68 | 1019.7 |
| 20260905044429 | 17 | 50 | 4.8 | 12.9 | 0.00 | 0.00 | 0.00 | 69 | 1019.8 |
| 20260905044348 | 17 | 5 | 3.2 | 12.9 | 0.00 | 0.00 | 0.00 | 69 | 1019.8 |
| 20260905044344 | 17 | 346 | 3.2 | 12.9 | 0.00 | 0.00 | 0.00 | 68 | 1019.7 |
| 20260905044340 | 17 | 347 | 3.2 | 12.9 | 0.00 | 0.00 | 0.00 | 68 | 1019.7 |
| 20260905044029 | 17 | 345 | 3.2 | 12.9 | 0.00 | 0.00 | 0.00 | 69 | 1019.7 |
| 20260905043929 | 17 | 31 | 4.8 | 12.9 | 0.00 | 0.00 | 0.00 | 68 | 1019.4 |
| 20260905043829 | 17 | 329 | 4.8 | 12.9 | 0.00 | 0.00 | 0.00 | 68 | 1019.4 |
| 20260905043729 | 17 | 348 | 3.2 | 11.3 | 0.00 | 0.00 | 0.00 | 68 | 1019.5 |
| 20260905043629 | 17 | 13 | 3.2 | 11.3 | 0.00 | 0.00 | 0.00 | 68 | 1019.4 |
| 20260905043529 | 17 | 338 | 3.2 | 11.3 | 0.00 | 0.00 | 0.00 | 68 | 1019.3 |
| 20260905043429 | 17 | 338 | 4.8 | 16.1 | 0.00 | 0.00 | 0.00 | 68 | 1019.3 |
| 20260905043348 | 17 | 333 | 4.8 | 16.1 | 0.00 | 0.00 | 0.00 | 68 | 1019.3 |
| 20260905043344 | 17 | 333 | 4.8 | 16.1 | 0.00 | 0.00 | 0.00 | 68 | 1019.3 |
| 20260905043340 | 17 | 329 | 4.8 | 16.1 | 0.00 | 0.00 | 0.00 | 68 | 1019.4 |
| 20260905043028 | 17 | 11 | 6.4 | 16.1 | 0.00 | 0.00 | 0.00 | 68 | 1019.4 |
| 20260905042929 | 17 | 18 | 6.4 | 16.1 | 0.00 | 0.00 | 0.00 | 68 | 1019.3 |
| 20260905042829 | 17 | 46 | 6.4 | 16.1 | 0.00 | 0.00 | 0.00 | 67 | 1019.2 |
| 20260905042729 | 17 | 11 | 6.4 | 17.7 | 0.00 | 0.00 | 0.00 | 67 | 1019.2 |
| 20260905042628 | 17 | 11 | 6.4 | 17.7 | 0.00 | 0.00 | 0.00 | 67 | 1019.3 |
| 20260905042529 | 17 | 14 | 6.4 | 17.7 | 0.00 | 0.00 | 0.00 | 67 | 1019.3 |
| 20260905042429 | 17 | 5 | 6.4 | 19.3 | 0.00 | 0.00 | 0.00 | 68 | 1019.3 |
| 20260905042329 | 17 | 42 | 6.4 | 19.3 | 0.00 | 0.00 | 0.00 | 68 | 1019.3 |
| 20260905042229 | 17 | 5 | 6.4 | 19.3 | 0.00 | 0.00 | 0.00 | 68 | 1019.1 |
| 20260905042129 | 17 | 13 | 6.4 | 19.3 | 0.00 | 0.00 | 0.00 | 68 | 1019.1 |
| 20260905042029 | 17 | 339 | 6.4 | 19.3 | 0.00 | 0.00 | 0.00 | 68 | 1019.1 |
| 20260905041930 | 17 | 33 | 6.4 | 19.3 | 0.00 | 0.00 | 0.00 | 69 | 1019.1 |
| 20260905041830 | 17 | 17 | 6.4 | 19.3 | 0.00 | 0.00 | 0.00 | 69 | 1019.2 |
| 20260905041729 | 17 | 0 | 4.8 | 19.3 | 0.00 | 0.00 | 0.00 | 70 | 1019.1 |
| 20260905041629 | 17 | 347 | 4.8 | 19.3 | 0.00 | 0.00 | 0.00 | 70 | 1019.0 |
| 20260905041529 | 17 | 39 | 4.8 | 19.3 | 0.00 | 0.00 | 0.00 | 70 | 1018.9 |
| 20260905041429 | 17 | 5 | 4.8 | 17.7 | 0.00 | 0.00 | 0.00 | 70 | 1018.9 |
| 20260905041329 | 17 | 13 | 4.8 | 9.7 | 0.00 | 0.00 | 0.00 | 71 | 1018.9 |
| 20260905041229 | 17 | 295 | 4.8 | 9.7 | 0.00 | 0.00 | 0.00 | 71 | 1018.9 |
| 20260905041128 | 17 | 56 | 4.8 | 9.7 | 0.00 | 0.00 | 0.00 | 71 | 1018.9 |
| 20260905041029 | 17 | 56 | 4.8 | 9.7 | 0.00 | 0.00 | 0.00 | 71 | 1018.9 |
| 20260905040928 | 18 | 51 | 4.8 | 9.7 | 0.00 | 0.00 | 0.00 | 72 | 1018.8 |
| 20260905040847 | 18 | 25 | 4.8 | 9.7 | 0.00 | 0.00 | 0.00 | 72 | 1018.8 |
| 20260905040842 | 18 | 319 | 4.8 | 9.7 | 0.00 | 0.00 | 0.00 | 72 | 1018.8 |
| 20260905040839 | 18 | 337 | 4.8 | 9.7 | 0.00 | 0.00 | 0.00 | 72 | 1018.8 |
| 20260905040528 | 18 | 307 | 4.8 | 9.7 | 0.00 | 0.00 | 0.00 | 72 | 1018.8 |
| 20260905040429 | 18 | 334 | 3.2 | 9.7 | 0.00 | 0.00 | 0.00 | 72 | 1018.7 |
| 20260905040329 | 18 | 315 | 3.2 | 9.7 | 0.00 | 0.00 | 0.00 | 72 | 1018.7 |
| 20260905040229 | 18 | 313 | 3.2 | 9.7 | 0.00 | 0.00 | 0.00 | 72 | 1018.7 |
| 20260905040129 | 18 | 318 | 3.2 | 9.7 | 0.00 | 0.00 | 0.00 | 72 | 1018.6 |
| 20260905040122 | 18 | 315 | 3.2 | 8.0 | 0.00 | 0.00 | 0.00 | 72 | 1018.4 |
| 20260905040116 | 18 | 40 | 3.2 | 9.7 | 0.00 | 0.00 | 0.00 | 72 | 1018.6 |
| 20260905040108 | 18 | 40 | 3.2 | 9.7 | 0.00 | 0.00 | 0.00 | 72 | 1018.5 |
| 20260905035848 | 18 | 40 | 3.2 | 9.7 | 0.00 | 0.00 | 0.00 | 72 | 1018.5 |
| 20260905035844 | 18 | 30 | 3.2 | 9.7 | 0.00 | 0.00 | 0.00 | 72 | 1018.5 |
| 20260905035840 | 18 | 315 | 3.2 | 8.0 | 0.00 | 0.00 | 0.00 | 72 | 1018.4 |
| 20260905035529 | 18 | 41 | 3.2 | 8.0 | 0.00 | 0.00 | 0.00 | 72 | 1018.5 |
| 20260905035432 | 18 | 41 | 3.2 | 8.0 | 0.00 | 0.00 | 0.00 | 72 | 1018.4 |
| 20260905035347 | 18 | 49 | 3.2 | 8.0 | 0.00 | 0.00 | 0.00 | 72 | 1018.4 |
| 20260905035343 | 18 | 95 | 3.2 | 8.0 | 0.00 | 0.00 | 0.00 | 72 | 1018.3 |
| 20260905035339 | 18 | 95 | 3.2 | 8.0 | 0.00 | 0.00 | 0.00 | 72 | 1018.3 |
| 20260905035029 | 18 | 90 | 3.2 | 8.0 | 0.00 | 0.00 | 0.00 | 72 | 1018.3 |
| 20260905034929 | 18 | 90 | 3.2 | 8.0 | 0.00 | 0.00 | 0.00 | 72 | 1018.3 |
| 20260905034829 | 18 | 91 | 4.8 | 8.0 | 0.00 | 0.00 | 0.00 | 72 | 1018.3 |
| 20260905034729 | 18 | 5 | 4.8 | 12.9 | 0.00 | 0.00 | 0.00 | 72 | 1018.3 |
| 20260905034629 | 18 | 342 | 4.8 | 14.5 | 0.00 | 0.00 | 0.00 | 72 | 1018.2 |
| 20260905034529 | 18 | 30 | 4.8 | 14.5 | 0.00 | 0.00 | 0.00 | 72 | 1018.3 |
| 20260905034429 | 18 | 45 | 4.8 | 14.5 | 0.00 | 0.00 | 0.00 | 72 | 1018.3 |
| 20260905034329 | 18 | 340 | 4.8 | 14.5 | 0.00 | 0.00 | 0.00 | 72 | 1018.2 |
| 20260905034229 | 18 | 340 | 4.8 | 14.5 | 0.00 | 0.00 | 0.00 | 72 | 1018.2 |
| 20260905034128 | 18 | 30 | 6.4 | 14.5 | 0.00 | 0.00 | 0.00 | 72 | 1018.2 |
| 20260905034029 | 18 | 28 | 6.4 | 14.5 | 0.00 | 0.00 | 0.00 | 72 | 1018.1 |
| 20260905033929 | 18 | 34 | 6.4 | 14.5 | 0.00 | 0.00 | 0.00 | 72 | 1018.1 |
| 20260905033828 | 18 | 34 | 6.4 | 14.5 | 0.00 | 0.00 | 0.00 | 72 | 1018.1 |
| 20260905033728 | 18 | 0 | 4.8 | 14.5 | 0.00 | 0.00 | 0.00 | 72 | 1018.2 |
| 20260905033628 | 18 | 18 | 4.8 | 14.5 | 0.00 | 0.00 | 0.00 | 72 | 1018.1 |
| 20260905033528 | 18 | 15 | 4.8 | 14.5 | 0.00 | 0.00 | 0.00 | 72 | 1018.1 |
| 20260905033429 | 18 | 330 | 4.8 | 17.7 | 0.00 | 0.00 | 0.00 | 72 | 1018.1 |
| 20260905033347 | 18 | 55 | 6.4 | 17.7 | 0.00 | 0.00 | 0.00 | 72 | 1018.1 |
| 20260905033343 | 18 | 55 | 6.4 | 17.7 | 0.00 | 0.00 | 0.00 | 72 | 1018.1 |
| 20260905033339 | 18 | 0 | 6.4 | 17.7 | 0.00 | 0.00 | 0.00 | 71 | 1018.1 |
| 20260905033029 | 18 | 24 | 6.4 | 17.7 | 0.00 | 0.00 | 0.00 | 72 | 1018.0 |
| 20260905032929 | 18 | 345 | 6.4 | 17.7 | 0.00 | 0.00 | 0.00 | 72 | 1018.1 |
| 20260905032829 | 18 | 328 | 8.0 | 17.7 | 0.00 | 0.00 | 0.00 | 72 | 1018.1 |
| 20260905032729 | 18 | 0 | 8.0 | 17.7 | 0.00 | 0.00 | 0.00 | 72 | 1018.1 |
| 20260905032628 | 18 | 39 | 8.0 | 17.7 | 0.00 | 0.00 | 0.00 | 72 | 1018.0 |
| 20260905032529 | 18 | 46 | 9.7 | 17.7 | 0.00 | 0.00 | 0.00 | 72 | 1018.0 |
| 20260905032429 | 18 | 24 | 9.7 | 20.9 | 0.00 | 0.00 | 0.00 | 72 | 1018.0 |
| 20260905032328 | 18 | 5 | 9.7 | 20.9 | 0.00 | 0.00 | 0.00 | 72 | 1017.9 |
| 20260905032229 | 18 | 5 | 9.7 | 20.9 | 0.00 | 0.00 | 0.00 | 72 | 1017.9 |
| 20260905032129 | 18 | 12 | 9.7 | 20.9 | 0.00 | 0.00 | 0.00 | 72 | 1017.9 |
| 20260905032028 | 18 | 9 | 9.7 | 20.9 | 0.00 | 0.00 | 0.00 | 72 | 1018.0 |
| 20260905031923 | 18 | 5 | 8.0 | 20.9 | 0.00 | 0.00 | 0.00 | 72 | 1017.9 |
| 20260905031823 | 18 | 5 | 8.0 | 20.9 | 0.00 | 0.00 | 0.00 | 72 | 1017.9 |
| 20260905031723 | 18 | 342 | 8.0 | 20.9 | 0.00 | 0.00 | 0.00 | 72 | 1017.8 |
| 20260905031629 | 18 | 5 | 8.0 | 20.9 | 0.00 | 0.00 | 0.00 | 72 | 1017.8 |
| 20260905031623 | 18 | 347 | 8.0 | 20.9 | 0.00 | 0.00 | 0.00 | 72 | 1017.8 |
| 20260905031523 | 18 | 44 | 6.4 | 20.9 | 0.00 | 0.00 | 0.00 | 72 | 1017.6 |
| 20260905031417 | 18 | 350 | 6.4 | 19.3 | 0.00 | 0.00 | 0.00 | 72 | 1017.5 |
| 20260905031317 | 19 | 27 | 6.4 | 19.3 | 0.00 | 0.00 | 0.00 | 72 | 1017.4 |
| 20260905031216 | 19 | 83 | 6.4 | 19.3 | 0.00 | 0.00 | 0.00 | 72 | 1017.3 |
| 20260905031129 | 19 | 20 | 6.4 | 19.3 | 0.00 | 0.00 | 0.00 | 72 | 1017.3 |
| 20260905031117 | 19 | 31 | 6.4 | 19.3 | 0.00 | 0.00 | 0.00 | 72 | 1017.2 |
| 20260905031017 | 19 | 61 | 6.4 | 19.3 | 0.00 | 0.00 | 0.00 | 72 | 1017.2 |
| 20260905030911 | 19 | 55 | 6.4 | 19.3 | 0.00 | 0.00 | 0.00 | 73 | 1017.1 |
| 20260905030811 | 19 | 88 | 6.4 | 19.3 | 0.00 | 0.00 | 0.00 | 73 | 1017.1 |
| 20260905030711 | 19 | 94 | 6.4 | 19.3 | 0.00 | 0.00 | 0.00 | 73 | 1017.2 |
| 20260905030629 | 19 | 49 | 6.4 | 19.3 | 0.00 | 0.00 | 0.00 | 73 | 1017.2 |
| 20260905030611 | 19 | 65 | 8.0 | 19.3 | 0.00 | 0.00 | 0.00 | 73 | 1017.1 |
| 20260905030511 | 19 | 37 | 8.0 | 19.3 | 0.00 | 0.00 | 0.00 | 73 | 1017.1 |
| 20260905030404 | 19 | 65 | 8.0 | 19.3 | 0.00 | 0.00 | 0.00 | 73 | 1017.1 |
| 20260905030305 | 19 | 14 | 6.4 | 17.7 | 0.00 | 0.00 | 0.00 | 73 | 1017.1 |
| 20260905030205 | 19 | 58 | 6.4 | 17.7 | 0.00 | 0.00 | 0.00 | 73 | 1017.1 |
| 20260905030129 | 19 | 61 | 6.4 | 17.7 | 0.00 | 0.00 | 0.00 | 73 | 1017.1 |
| 20260905030105 | 19 | 53 | 6.4 | 17.7 | 0.00 | 0.00 | 0.00 | 73 | 1017.0 |
| 20260905030004 | 19 | 41 | 6.4 | 17.7 | 0.00 | 0.00 | 0.00 | 73 | 1017.0 |
| 20260905025903 | 19 | 350 | 6.4 | 17.7 | 0.00 | 0.00 | 0.00 | 73 | 1017.1 |
| 20260905025802 | 19 | 49 | 4.8 | 17.7 | 0.00 | 0.00 | 0.00 | 73 | 1017.1 |
| 20260905025701 | 19 | 19 | 4.8 | 17.7 | 0.00 | 0.00 | 0.00 | 73 | 1017.1 |
| 20260905025629 | 19 | 49 | 4.8 | 17.7 | 0.00 | 0.00 | 0.00 | 73 | 1017.1 |
| 20260905025617 | 19 | 304 | 3.2 | 6.4 | 0.00 | 0.00 | 0.00 | 73 | 1016.9 |
| 20260905025612 | 19 | 83 | 3.2 | 17.7 | 0.00 | 0.00 | 0.00 | 73 | 1017.1 |
| 20260905025609 | 19 | 29 | 3.2 | 17.7 | 0.00 | 0.00 | 0.00 | 73 | 1017.0 |
| 20260905025604 | 19 | 306 | 3.2 | 6.4 | 0.00 | 0.00 | 0.00 | 73 | 1017.0 |
| 20260905025345 | 19 | 306 | 3.2 | 6.4 | 0.00 | 0.00 | 0.00 | 73 | 1016.9 |
| 20260905025341 | 19 | 304 | 3.2 | 6.4 | 0.00 | 0.00 | 0.00 | 73 | 1016.9 |
| 20260905025101 | 19 | 304 | 3.2 | 6.4 | 0.00 | 0.00 | 0.00 | 73 | 1016.9 |
| 20260905025001 | 19 | 305 | 3.2 | 6.4 | 0.00 | 0.00 | 0.00 | 73 | 1016.9 |
| 20260905024901 | 19 | 305 | 3.2 | 4.8 | 0.00 | 0.00 | 0.00 | 72 | 1016.9 |
| 20260905024856 | 19 | 305 | 3.2 | 4.8 | 0.00 | 0.00 | 0.00 | 72 | 1016.8 |
| 20260905024844 | 19 | 305 | 3.2 | 4.8 | 0.00 | 0.00 | 0.00 | 72 | 1016.9 |
| 20260905024840 | 19 | 305 | 3.2 | 4.8 | 0.00 | 0.00 | 0.00 | 72 | 1016.8 |
| 20260905024601 | 19 | 305 | 3.2 | 4.8 | 0.00 | 0.00 | 0.00 | 72 | 1016.8 |
| 20260905024501 | 19 | 305 | 3.2 | 4.8 | 0.00 | 0.00 | 0.00 | 72 | 1016.9 |
| 20260905024401 | 19 | 305 | 1.6 | 4.8 | 0.00 | 0.00 | 0.00 | 72 | 1016.9 |
| 20260905024301 | 19 | 305 | 1.6 | 4.8 | 0.00 | 0.00 | 0.00 | 72 | 1016.9 |
| 20260905024201 | 19 | 305 | 1.6 | 4.8 | 0.00 | 0.00 | 0.00 | 72 | 1017.0 |
| 20260905024128 | 19 | 305 | 1.6 | 4.8 | 0.00 | 0.00 | 0.00 | 72 | 1017.0 |
| 20260905024101 | 19 | 305 | 1.6 | 4.8 | 0.00 | 0.00 | 0.00 | 72 | 1016.9 |
| 20260905024001 | 19 | 305 | 1.6 | 6.4 | 0.00 | 0.00 | 0.00 | 72 | 1016.9 |
| 20260905023901 | 19 | 305 | 1.6 | 6.4 | 0.00 | 0.00 | 0.00 | 72 | 1016.8 |
| 20260905023801 | 19 | 305 | 3.2 | 6.4 | 0.00 | 0.00 | 0.00 | 71 | 1016.7 |
| 20260905023701 | 19 | 305 | 3.2 | 6.4 | 0.00 | 0.00 | 0.00 | 71 | 1016.7 |
| 20260905023601 | 19 | 305 | 3.2 | 6.4 | 0.00 | 0.00 | 0.00 | 71 | 1016.7 |
| 20260905023500 | 19 | 305 | 3.2 | 6.4 | 0.00 | 0.00 | 0.00 | 71 | 1016.7 |
| 20260905023400 | 19 | 305 | 3.2 | 6.4 | 0.00 | 0.00 | 0.00 | 71 | 1016.7 |
| 20260905023301 | 19 | 305 | 3.2 | 6.4 | 0.00 | 0.00 | 0.00 | 71 | 1016.7 |
| 20260905023201 | 19 | 311 | 3.2 | 6.4 | 0.00 | 0.00 | 0.00 | 71 | 1016.7 |
| 20260905023129 | 19 | 312 | 3.2 | 6.4 | 0.00 | 0.00 | 0.00 | 71 | 1016.7 |
| 20260905023100 | 19 | 313 | 3.2 | 6.4 | 0.00 | 0.00 | 0.00 | 71 | 1016.6 |
| 20260905023000 | 19 | 322 | 3.2 | 4.8 | 0.00 | 0.00 | 0.00 | 71 | 1016.6 |
| 20260905022901 | 19 | 322 | 3.2 | 4.8 | 0.00 | 0.00 | 0.00 | 71 | 1016.6 |
| 20260905022852 | 19 | 322 | 3.2 | 4.8 | 0.00 | 0.00 | 0.00 | 71 | 1016.5 |
| 20260905022844 | 19 | 322 | 3.2 | 4.8 | 0.00 | 0.00 | 0.00 | 71 | 1016.5 |
| 20260905022840 | 19 | 322 | 3.2 | 4.8 | 0.00 | 0.00 | 0.00 | 71 | 1016.5 |
| 20260905022620 | 20 | 330 | 3.2 | 8.0 | 0.00 | 0.00 | 0.00 | 71 | 1016.4 |
| 20260905022614 | 19 | 322 | 1.6 | 4.8 | 0.00 | 0.00 | 0.00 | 71 | 1016.4 |
| 20260905022610 | 19 | 325 | 3.2 | 4.8 | 0.00 | 0.00 | 0.00 | 71 | 1016.5 |
| 20260905022606 | 19 | 325 | 3.2 | 4.8 | 0.00 | 0.00 | 0.00 | 71 | 1016.4 |
| 20260905022345 | 19 | 330 | 3.2 | 6.4 | 0.00 | 0.00 | 0.00 | 71 | 1016.4 |
| 20260905022341 | 20 | 330 | 3.2 | 6.4 | 0.00 | 0.00 | 0.00 | 71 | 1016.4 |
| 20260905022101 | 20 | 330 | 3.2 | 8.0 | 0.00 | 0.00 | 0.00 | 71 | 1016.4 |
| 20260905022001 | 20 | 330 | 3.2 | 8.0 | 0.00 | 0.00 | 0.00 | 71 | 1016.4 |
| 20260905021901 | 20 | 330 | 3.2 | 8.0 | 0.00 | 0.00 | 0.00 | 71 | 1016.3 |
| 20260905021855 | 20 | 330 | 3.2 | 8.0 | 0.00 | 0.00 | 0.00 | 71 | 1016.4 |
| 20260905021844 | 20 | 330 | 3.2 | 8.0 | 0.00 | 0.00 | 0.00 | 71 | 1016.3 |
| 20260905021840 | 19 | 330 | 3.2 | 8.0 | 0.00 | 0.00 | 0.00 | 71 | 1016.4 |
| 20260905021601 | 19 | 330 | 4.8 | 8.0 | 0.00 | 0.00 | 0.00 | 71 | 1016.3 |
| 20260905021501 | 20 | 330 | 4.8 | 8.0 | 0.00 | 0.00 | 0.00 | 71 | 1016.4 |
| 20260905021401 | 19 | 330 | 4.8 | 8.0 | 0.00 | 0.00 | 0.00 | 71 | 1016.4 |
| 20260905021301 | 19 | 330 | 3.2 | 8.0 | 0.00 | 0.00 | 0.00 | 71 | 1016.4 |
| 20260905021201 | 19 | 329 | 3.2 | 8.0 | 0.00 | 0.00 | 0.00 | 71 | 1016.4 |
| 20260905021101 | 19 | 328 | 3.2 | 8.0 | 0.00 | 0.00 | 0.00 | 71 | 1016.4 |
| 20260905021001 | 19 | 321 | 3.2 | 8.0 | 0.00 | 0.00 | 0.00 | 71 | 1016.4 |
| 20260905020901 | 19 | 325 | 3.2 | 8.0 | 0.00 | 0.00 | 0.00 | 71 | 1016.5 |
| 20260905020801 | 19 | 325 | 3.2 | 8.0 | 0.00 | 0.00 | 0.00 | 71 | 1016.5 |
| 20260905020701 | 19 | 320 | 3.2 | 8.0 | 0.00 | 0.00 | 0.00 | 71 | 1016.5 |
| 20260905020628 | 19 | 320 | 3.2 | 8.0 | 0.00 | 0.00 | 0.00 | 71 | 1016.5 |
| 20260905020601 | 19 | 312 | 3.2 | 6.4 | 0.00 | 0.00 | 0.00 | 71 | 1016.5 |
| 20260905020501 | 19 | 312 | 3.2 | 6.4 | 0.00 | 0.00 | 0.00 | 71 | 1016.5 |
| 20260905020400 | 19 | 311 | 3.2 | 6.4 | 0.00 | 0.00 | 0.00 | 71 | 1016.5 |
| 20260905020301 | 19 | 311 | 1.6 | 6.4 | 0.00 | 0.00 | 0.00 | 71 | 1016.5 |
| 20260905020201 | 20 | 311 | 1.6 | 6.4 | 0.00 | 0.00 | 0.00 | 71 | 1016.5 |
| 20260905020100 | 20 | 300 | 1.6 | 4.8 | 0.00 | 0.00 | 0.00 | 71 | 1016.5 |
| 20260905020000 | 20 | 288 | 1.6 | 4.8 | 0.00 | 0.00 | 0.00 | 71 | 1016.5 |
| 20260905015900 | 20 | 289 | 1.6 | 4.8 | 0.00 | 0.00 | 0.00 | 71 | 1016.5 |
| 20260905015800 | 20 | 288 | 1.6 | 3.2 | 0.00 | 0.00 | 0.00 | 71 | 1016.5 |
| 20260905015701 | 20 | 288 | 1.6 | 3.2 | 0.00 | 0.00 | 0.00 | 71 | 1016.4 |
| 20260905015628 | 20 | 288 | 1.6 | 3.2 | 0.00 | 0.00 | 0.00 | 71 | 1016.4 |
| 20260905015620 | 20 | 288 | 1.6 | 3.2 | 0.00 | 0.00 | 0.00 | 70 | 1016.4 |
| 20260905015614 | 20 | 288 | 1.6 | 3.2 | 0.00 | 0.00 | 0.00 | 71 | 1016.5 |
| 20260905015610 | 20 | 288 | 1.6 | 3.2 | 0.00 | 0.00 | 0.00 | 70 | 1016.4 |
| 20260905015606 | 20 | 288 | 1.6 | 3.2 | 0.00 | 0.00 | 0.00 | 70 | 1016.4 |
| 20260905015345 | 20 | 288 | 1.6 | 3.2 | 0.00 | 0.00 | 0.00 | 70 | 1016.3 |
| 20260905015341 | 20 | 288 | 1.6 | 3.2 | 0.00 | 0.00 | 0.00 | 70 | 1016.4 |
| 20260905015101 | 20 | 288 | 1.6 | 3.2 | 0.00 | 0.00 | 0.00 | 70 | 1016.3 |
| 20260905015001 | 20 | 288 | 1.6 | 3.2 | 0.00 | 0.00 | 0.00 | 70 | 1016.3 |
| 20260905014900 | 20 | 288 | 1.6 | 3.2 | 0.00 | 0.00 | 0.00 | 70 | 1016.3 |
| 20260905014800 | 20 | 288 | 1.6 | 3.2 | 0.00 | 0.00 | 0.00 | 70 | 1016.3 |
| 20260905014700 | 20 | 288 | 1.6 | 3.2 | 0.00 | 0.00 | 0.00 | 70 | 1016.4 |
| 20260905014629 | 20 | 288 | 1.6 | 3.2 | 0.00 | 0.00 | 0.00 | 70 | 1016.4 |
| 20260905014600 | 20 | 288 | 1.6 | 3.2 | 0.00 | 0.00 | 0.00 | 70 | 1016.3 |
| 20260905014500 | 20 | 288 | 1.6 | 3.2 | 0.00 | 0.00 | 0.00 | 70 | 1016.3 |
| 20260905014401 | 20 | 288 | 1.6 | 3.2 | 0.00 | 0.00 | 0.00 | 70 | 1016.3 |
| 20260905014300 | 20 | 288 | 1.6 | 3.2 | 0.00 | 0.00 | 0.00 | 70 | 1016.3 |
| 20260905014201 | 20 | 288 | 1.6 | 3.2 | 0.00 | 0.00 | 0.00 | 70 | 1016.2 |
| 20260905014101 | 20 | 288 | 1.6 | 3.2 | 0.00 | 0.00 | 0.00 | 70 | 1016.2 |
| 20260905014001 | 20 | 288 | 1.6 | 3.2 | 0.00 | 0.00 | 0.00 | 70 | 1016.2 |
| 20260905013901 | 20 | 288 | 1.6 | 3.2 | 0.00 | 0.00 | 0.00 | 69 | 1016.2 |
| 20260905013801 | 20 | 288 | 1.6 | 3.2 | 0.00 | 0.00 | 0.00 | 69 | 1016.2 |
| 20260905013701 | 20 | 288 | 1.6 | 3.2 | 0.00 | 0.00 | 0.00 | 70 | 1016.2 |
| 20260905013601 | 20 | 288 | 1.6 | 3.2 | 0.00 | 0.00 | 0.00 | 70 | 1016.2 |
| 20260905013501 | 20 | 288 | 1.6 | 3.2 | 0.00 | 0.00 | 0.00 | 70 | 1016.2 |
| 20260905013356 | 20 | 288 | 1.6 | 3.2 | 0.00 | 0.00 | 0.00 | 70 | 1016.1 |
| 20260905013255 | 20 | 288 | 1.6 | 3.2 | 0.00 | 0.00 | 0.00 | 70 | 1016.1 |
| 20260905013154 | 20 | 288 | 1.6 | 3.2 | 0.00 | 0.00 | 0.00 | 70 | 1016.1 |
| 20260905013129 | 20 | 288 | 1.6 | 3.2 | 0.00 | 0.00 | 0.00 | 69 | 1016.1 |
| 20260905013052 | 20 | 288 | 1.6 | 3.2 | 0.00 | 0.00 | 0.00 | 69 | 1016.1 |
| 20260905012952 | 20 | 288 | 1.6 | 3.2 | 0.00 | 0.00 | 0.00 | 69 | 1016.1 |
| 20260905012849 | 20 | 288 | 1.6 | 3.2 | 0.00 | 0.00 | 0.00 | 69 | 1016.1 |
| 20260905012748 | 20 | 288 | 1.6 | 3.2 | 0.00 | 0.00 | 0.00 | 69 | 1016.1 |
| 20260905012629 | 20 | 288 | 1.6 | 3.2 | 0.00 | 0.00 | 0.00 | 69 | 1016.1 |
| 20260905012548 | 20 | 288 | 1.6 | 3.2 | 0.00 | 0.00 | 0.00 | 69 | 1016.2 |
| 20260905012445 | 20 | 288 | 1.6 | 3.2 | 0.00 | 0.00 | 0.00 | 69 | 1016.1 |
| 20260905012353 | 20 | 288 | 1.6 | 3.2 | 0.00 | 0.00 | 0.00 | 69 | 1016.2 |
| 20260905012344 | 20 | 288 | 1.6 | 3.2 | 0.00 | 0.00 | 0.00 | 69 | 1016.2 |
| 20260905012340 | 20 | 288 | 1.6 | 3.2 | 0.00 | 0.00 | 0.00 | 69 | 1016.1 |
| 20260905012036 | 20 | 288 | 1.6 | 3.2 | 0.00 | 0.00 | 0.00 | 69 | 1016.1 |
| 20260905011937 | 20 | 288 | 1.6 | 3.2 | 0.00 | 0.00 | 0.00 | 69 | 1016.1 |
| 20260905011833 | 20 | 288 | 1.6 | 3.2 | 0.00 | 0.00 | 0.00 | 69 | 1016.2 |
| 20260905011732 | 20 | 288 | 1.6 | 3.2 | 0.00 | 0.00 | 0.00 | 69 | 1016.1 |
| 20260905011629 | 20 | 288 | 1.6 | 3.2 | 0.00 | 0.00 | 0.00 | 69 | 1016.2 |
| 20260905011533 | 20 | 288 | 1.6 | 3.2 | 0.00 | 0.00 | 0.00 | 69 | 1016.2 |
| 20260905011433 | 20 | 288 | 1.6 | 3.2 | 0.00 | 0.00 | 0.00 | 69 | 1016.2 |
| 20260905011333 | 20 | 288 | 1.6 | 3.2 | 0.00 | 0.00 | 0.00 | 69 | 1016.2 |
| 20260905011233 | 20 | 288 | 1.6 | 3.2 | 0.00 | 0.00 | 0.00 | 68 | 1016.2 |
| 20260905011128 | 20 | 288 | 1.6 | 3.2 | 0.00 | 0.00 | 0.00 | 69 | 1016.2 |
| 20260905011032 | 20 | 288 | 1.6 | 3.2 | 0.00 | 0.00 | 0.00 | 69 | 1016.2 |
| 20260905010932 | 20 | 288 | 1.6 | 3.2 | 0.00 | 0.00 | 0.00 | 68 | 1016.3 |
| 20260905010832 | 20 | 288 | 1.6 | 4.8 | 0.00 | 0.00 | 0.00 | 69 | 1016.2 |
| 20260905010733 | 20 | 288 | 1.6 | 4.8 | 0.00 | 0.00 | 0.00 | 68 | 1016.2 |
| 20260905010628 | 20 | 288 | 1.6 | 6.4 | 0.00 | 0.00 | 0.00 | 68 | 1016.2 |
| 20260905010532 | 20 | 288 | 1.6 | 6.4 | 0.00 | 0.00 | 0.00 | 68 | 1016.3 |
| 20260905010433 | 20 | 288 | 3.2 | 6.4 | 0.00 | 0.00 | 0.00 | 68 | 1016.3 |
| 20260905010353 | 20 | 288 | 3.2 | 6.4 | 0.00 | 0.00 | 0.00 | 68 | 1016.3 |
| 20260905010344 | 20 | 288 | 3.2 | 6.4 | 0.00 | 0.00 | 0.00 | 68 | 1016.2 |
| 20260905010340 | 20 | 288 | 3.2 | 6.4 | 0.00 | 0.00 | 0.00 | 68 | 1016.2 |
| 20260905010029 | 20 | 288 | 3.2 | 6.4 | 0.00 | 0.00 | 0.00 | 68 | 1016.2 |
| 20260905005929 | 20 | 288 | 3.2 | 6.4 | 0.00 | 0.00 | 0.00 | 68 | 1016.2 |
| 20260905005828 | 20 | 288 | 3.2 | 6.4 | 0.00 | 0.00 | 0.00 | 68 | 1016.2 |
| 20260905005728 | 20 | 288 | 3.2 | 6.4 | 0.00 | 0.00 | 0.00 | 68 | 1016.2 |
| 20260905005629 | 20 | 286 | 3.2 | 4.8 | 0.00 | 0.00 | 0.00 | 68 | 1016.2 |
| 20260905005528 | 20 | 287 | 3.2 | 4.8 | 0.00 | 0.00 | 0.00 | 68 | 1016.1 |
| 20260905005428 | 20 | 246 | 1.6 | 4.8 | 0.00 | 0.00 | 0.00 | 68 | 1016.1 |
| 20260905005329 | 20 | 246 | 1.6 | 4.8 | 0.00 | 0.00 | 0.00 | 68 | 1016.1 |
| 20260905005228 | 20 | 246 | 1.6 | 4.8 | 0.00 | 0.00 | 0.00 | 69 | 1016.1 |
| 20260905005129 | 20 | 265 | 1.6 | 4.8 | 0.00 | 0.00 | 0.00 | 68 | 1016.1 |
| 20260905005029 | 20 | 265 | 1.6 | 4.8 | 0.00 | 0.00 | 0.00 | 68 | 1016.1 |
| 20260905004929 | 20 | 265 | 1.6 | 4.8 | 0.00 | 0.00 | 0.00 | 68 | 1016.1 |
| 20260905004829 | 20 | 265 | 1.6 | 4.8 | 0.00 | 0.00 | 0.00 | 68 | 1016.1 |
| 20260905004729 | 20 | 266 | 0.0 | 3.2 | 0.00 | 0.00 | 0.00 | 68 | 1016.2 |
| 20260905004629 | 20 | 266 | 0.0 | 3.2 | 0.00 | 0.00 | 0.00 | 68 | 1016.1 |
| 20260905004529 | 20 | 266 | 0.0 | 3.2 | 0.00 | 0.00 | 0.00 | 68 | 1016.1 |
| 20260905004428 | 20 | 266 | 0.0 | 3.2 | 0.00 | 0.00 | 0.00 | 67 | 1016.1 |
| 20260905004329 | 20 | 267 | 0.0 | 1.6 | 0.00 | 0.00 | 0.00 | 67 | 1016.1 |
| 20260905004228 | 20 | 267 | 0.0 | 1.6 | 0.00 | 0.00 | 0.00 | 67 | 1016.1 |
| 20260905004128 | 20 | 267 | 0.0 | 1.6 | 0.00 | 0.00 | 0.00 | 68 | 1016.1 |
| 20260905004028 | 20 | 267 | 0.0 | 3.2 | 0.00 | 0.00 | 0.00 | 67 | 1016.1 |
| 20260905003928 | 20 | 267 | 0.0 | 3.2 | 0.00 | 0.00 | 0.00 | 67 | 1016.1 |
| 20260905003828 | 20 | 267 | 1.6 | 3.2 | 0.00 | 0.00 | 0.00 | 67 | 1016.0 |
| 20260905003728 | 20 | 267 | 1.6 | 3.2 | 0.00 | 0.00 | 0.00 | 67 | 1016.0 |
| 20260905003628 | 21 | 267 | 1.6 | 3.2 | 0.00 | 0.00 | 0.00 | 67 | 1016.0 |
| 20260905003528 | 21 | 267 | 1.6 | 3.2 | 0.00 | 0.00 | 0.00 | 67 | 1016.1 |
| 20260905003428 | 21 | 267 | 1.6 | 3.2 | 0.00 | 0.00 | 0.00 | 67 | 1016.1 |
| 20260905003329 | 21 | 267 | 1.6 | 3.2 | 0.00 | 0.00 | 0.00 | 66 | 1016.1 |
| 20260905003228 | 21 | 267 | 1.6 | 3.2 | 0.00 | 0.00 | 0.00 | 67 | 1016.1 |
| 20260905003129 | 21 | 267 | 1.6 | 3.2 | 0.00 | 0.00 | 0.00 | 66 | 1016.1 |
| 20260905003029 | 21 | 267 | 1.6 | 3.2 | 0.00 | 0.00 | 0.00 | 67 | 1016.1 |
| 20260905002929 | 21 | 267 | 1.6 | 4.8 | 0.00 | 0.00 | 0.00 | 67 | 1016.0 |
| 20260905002829 | 21 | 267 | 1.6 | 6.4 | 0.00 | 0.00 | 0.00 | 66 | 1016.0 |
| 20260905002729 | 21 | 267 | 1.6 | 6.4 | 0.00 | 0.00 | 0.00 | 66 | 1016.0 |
| 20260905002628 | 21 | 267 | 1.6 | 6.4 | 0.00 | 0.00 | 0.00 | 66 | 1016.0 |
| 20260905002528 | 21 | 267 | 3.2 | 6.4 | 0.00 | 0.00 | 0.00 | 66 | 1016.0 |
| 20260905002429 | 21 | 267 | 3.2 | 6.4 | 0.00 | 0.00 | 0.00 | 66 | 1016.0 |
| 20260905002328 | 21 | 267 | 3.2 | 6.4 | 0.00 | 0.00 | 0.00 | 65 | 1016.0 |
| 20260905002229 | 21 | 267 | 3.2 | 9.7 | 0.00 | 0.00 | 0.00 | 65 | 1016.0 |
| 20260905002128 | 21 | 267 | 4.8 | 9.7 | 0.00 | 0.00 | 0.00 | 65 | 1016.0 |
| 20260905002028 | 21 | 267 | 4.8 | 11.3 | 0.00 | 0.00 | 0.00 | 65 | 1016.0 |
| 20260905001928 | 21 | 267 | 4.8 | 11.3 | 0.00 | 0.00 | 0.00 | 65 | 1016.1 |
| 20260905001828 | 21 | 267 | 4.8 | 11.3 | 0.00 | 0.00 | 0.00 | 65 | 1016.0 |
| 20260905001733 | 21 | 291 | 4.8 | 11.3 | 0.00 | 0.00 | 0.00 | 65 | 1016.1 |
| 20260905001629 | 21 | 292 | 4.8 | 11.3 | 0.00 | 0.00 | 0.00 | 65 | 1016.1 |
| 20260905001528 | 21 | 295 | 6.4 | 11.3 | 0.00 | 0.00 | 0.00 | 65 | 1016.1 |
| 20260905001428 | 21 | 295 | 6.4 | 11.3 | 0.00 | 0.00 | 0.00 | 65 | 1016.1 |
| 20260905001328 | 21 | 287 | 6.4 | 11.3 | 0.00 | 0.00 | 0.00 | 64 | 1016.1 |
| 20260905001228 | 21 | 299 | 6.4 | 11.3 | 0.00 | 0.00 | 0.00 | 65 | 1016.1 |
| 20260905001128 | 21 | 293 | 6.4 | 16.1 | 0.00 | 0.00 | 0.00 | 64 | 1016.1 |
| 20260905001028 | 21 | 281 | 6.4 | 16.1 | 0.00 | 0.00 | 0.00 | 64 | 1016.1 |
| 20260905000929 | 21 | 300 | 8.0 | 19.3 | 0.00 | 0.00 | 0.00 | 64 | 1016.1 |
| 20260905000829 | 21 | 325 | 8.0 | 19.3 | 0.00 | 0.00 | 0.00 | 64 | 1016.1 |
| 20260905000729 | 21 | 306 | 8.0 | 19.3 | 0.00 | 0.00 | 0.00 | 63 | 1016.1 |
| 20260905000629 | 21 | 291 | 9.7 | 19.3 | 0.00 | 0.00 | 0.00 | 63 | 1016.2 |
| 20260905000529 | 21 | 304 | 9.7 | 19.3 | 0.00 | 0.00 | 0.00 | 63 | 1016.1 |
| 20260905000429 | 21 | 292 | 9.7 | 19.3 | 0.00 | 0.00 | 0.00 | 63 | 1016.1 |
| 20260905000352 | 21 | 293 | 9.7 | 19.3 | 0.00 | 0.00 | 0.00 | 63 | 1016.1 |
| 20260905000348 | 21 | 323 | 9.7 | 19.3 | 0.00 | 0.00 | 0.00 | 63 | 1016.1 |
| 20260905000340 | 22 | 331 | 9.7 | 19.3 | 0.00 | 0.00 | 0.00 | 63 | 1016.1 |
| 20260905000028 | 22 | 304 | 9.7 | 19.3 | 0.00 | 0.00 | 0.00 | 62 | 1016.1 |
| 20260904235929 | 22 | 344 | 8.0 | 17.7 | 0.00 | 0.00 | 0.00 | 62 | 1016.0 |
| 20260904235829 | 22 | 346 | 8.0 | 16.1 | 0.00 | 0.00 | 0.00 | 62 | 1016.1 |
| 20260904235729 | 22 | 311 | 8.0 | 16.1 | 0.00 | 0.00 | 0.00 | 62 | 1016.0 |
| 20260904235629 | 22 | 318 | 8.0 | 16.1 | 0.00 | 0.00 | 0.00 | 61 | 1016.0 |
| 20260904235529 | 22 | 304 | 8.0 | 16.1 | 0.00 | 0.00 | 0.00 | 61 | 1016.0 |
| 20260904235429 | 22 | 281 | 8.0 | 16.1 | 0.00 | 0.00 | 0.00 | 61 | 1016.0 |
| 20260904235328 | 22 | 317 | 8.0 | 16.1 | 0.00 | 0.00 | 0.00 | 61 | 1015.8 |
| 20260904235228 | 22 | 310 | 8.0 | 16.1 | 0.00 | 0.00 | 0.00 | 61 | 1015.8 |
| 20260904235128 | 22 | 319 | 8.0 | 16.1 | 0.00 | 0.00 | 0.00 | 61 | 1015.8 |
| 20260904235028 | 22 | 316 | 8.0 | 16.1 | 0.00 | 0.00 | 0.00 | 61 | 1015.8 |
| 20260904234928 | 22 | 298 | 8.0 | 16.1 | 0.00 | 0.00 | 0.00 | 60 | 1015.7 |
| 20260904234830 | 22 | 287 | 8.0 | 16.1 | 0.00 | 0.00 | 0.00 | 60 | 1015.7 |
| 20260904234728 | 22 | 293 | 8.0 | 16.1 | 0.00 | 0.00 | 0.00 | 60 | 1015.6 |
| 20260904234628 | 22 | 286 | 8.0 | 16.1 | 0.00 | 0.00 | 0.00 | 60 | 1015.6 |
| 20260904234528 | 22 | 259 | 8.0 | 16.1 | 0.00 | 0.00 | 0.00 | 60 | 1015.6 |
| 20260904234428 | 22 | 275 | 9.7 | 19.3 | 0.00 | 0.00 | 0.00 | 60 | 1015.5 |
| 20260904234328 | 22 | 226 | 9.7 | 19.3 | 0.00 | 0.00 | 0.00 | 60 | 1015.5 |
| 20260904234229 | 22 | 258 | 9.7 | 19.3 | 0.00 | 0.00 | 0.00 | 60 | 1015.5 |
| 20260904234128 | 22 | 235 | 9.7 | 19.3 | 0.00 | 0.00 | 0.00 | 60 | 1015.5 |
| 20260904234028 | 22 | 259 | 9.7 | 19.3 | 0.00 | 0.00 | 0.00 | 60 | 1015.4 |
| 20260904233928 | 22 | 214 | 9.7 | 19.3 | 0.00 | 0.00 | 0.00 | 60 | 1015.5 |
| 20260904233828 | 22 | 238 | 9.7 | 19.3 | 0.00 | 0.00 | 0.00 | 60 | 1015.4 |
| 20260904233729 | 22 | 276 | 9.7 | 19.3 | 0.00 | 0.00 | 0.00 | 60 | 1015.4 |
| 20260904233628 | 22 | 258 | 9.7 | 19.3 | 0.00 | 0.00 | 0.00 | 60 | 1015.4 |
| 20260904233528 | 22 | 229 | 9.7 | 19.3 | 0.00 | 0.00 | 0.00 | 60 | 1015.4 |
| 20260904233428 | 22 | 220 | 9.7 | 17.7 | 0.00 | 0.00 | 0.00 | 60 | 1015.4 |
| 20260904233328 | 22 | 237 | 8.0 | 17.7 | 0.00 | 0.00 | 0.00 | 60 | 1015.4 |
| 20260904233229 | 22 | 245 | 8.0 | 16.1 | 0.00 | 0.00 | 0.00 | 60 | 1015.4 |
| 20260904233130 | 22 | 231 | 8.0 | 16.1 | 0.00 | 0.00 | 0.00 | 60 | 1015.3 |
| 20260904233030 | 22 | 219 | 8.0 | 16.1 | 0.00 | 0.00 | 0.00 | 60 | 1015.4 |
| 20260904232929 | 22 | 246 | 9.7 | 16.1 | 0.00 | 0.00 | 0.00 | 60 | 1015.4 |
| 20260904232828 | 22 | 214 | 9.7 | 16.1 | 0.00 | 0.00 | 0.00 | 60 | 1015.4 |
| 20260904232729 | 22 | 231 | 8.0 | 16.1 | 0.00 | 0.00 | 0.00 | 60 | 1015.4 |
| 20260904232629 | 22 | 239 | 8.0 | 17.7 | 0.00 | 0.00 | 0.00 | 60 | 1015.4 |
| 20260904232529 | 22 | 207 | 8.0 | 17.7 | 0.00 | 0.00 | 0.00 | 60 | 1015.4 |
| 20260904232429 | 22 | 222 | 8.0 | 17.7 | 0.00 | 0.00 | 0.00 | 60 | 1015.4 |
| 20260904232329 | 22 | 258 | 8.0 | 17.7 | 0.00 | 0.00 | 0.00 | 60 | 1015.4 |
| 20260904232229 | 22 | 229 | 8.0 | 17.7 | 0.00 | 0.00 | 0.00 | 60 | 1015.4 |
| 20260904232131 | 22 | 255 | 8.0 | 17.7 | 0.00 | 0.00 | 0.00 | 60 | 1015.4 |
| 20260904232127 | 22 | 259 | 8.0 | 17.7 | 0.00 | 0.00 | 0.00 | 60 | 1015.4 |
| 20260904232024 | 22 | 273 | 8.0 | 17.7 | 0.00 | 0.00 | 0.00 | 59 | 1015.3 |
| 20260904231918 | 22 | 234 | 8.0 | 17.7 | 0.00 | 0.00 | 0.00 | 59 | 1015.4 |
| 20260904231818 | 22 | 190 | 8.0 | 17.7 | 0.00 | 0.00 | 0.00 | 59 | 1015.4 |
| 20260904231718 | 22 | 234 | 8.0 | 17.7 | 0.00 | 0.00 | 0.00 | 59 | 1015.4 |
| 20260904231629 | 22 | 273 | 8.0 | 16.1 | 0.00 | 0.00 | 0.00 | 59 | 1015.4 |
| 20260904231618 | 22 | 216 | 8.0 | 16.1 | 0.00 | 0.00 | 0.00 | 59 | 1015.3 |
| 20260904231517 | 22 | 231 | 8.0 | 16.1 | 0.00 | 0.00 | 0.00 | 59 | 1015.4 |
| 20260904231414 | 22 | 259 | 8.0 | 16.1 | 0.00 | 0.00 | 0.00 | 59 | 1015.4 |
| 20260904231314 | 22 | 236 | 8.0 | 16.1 | 0.00 | 0.00 | 0.00 | 59 | 1015.4 |
| 20260904231214 | 22 | 223 | 8.0 | 16.1 | 0.00 | 0.00 | 0.00 | 59 | 1015.4 |
| 20260904231128 | 22 | 211 | 8.0 | 16.1 | 0.00 | 0.00 | 0.00 | 59 | 1015.4 |
| 20260904231114 | 22 | 230 | 8.0 | 16.1 | 0.00 | 0.00 | 0.00 | 59 | 1015.3 |
| 20260904231012 | 22 | 246 | 8.0 | 16.1 | 0.00 | 0.00 | 0.00 | 59 | 1015.4 |
| 20260904230907 | 22 | 242 | 8.0 | 16.1 | 0.00 | 0.00 | 0.00 | 59 | 1015.3 |
| 20260904230807 | 22 | 252 | 8.0 | 17.7 | 0.00 | 0.00 | 0.00 | 59 | 1015.4 |
| 20260904230707 | 22 | 213 | 8.0 | 17.7 | 0.00 | 0.00 | 0.00 | 59 | 1015.3 |
| 20260904230629 | 22 | 261 | 8.0 | 17.7 | 0.00 | 0.00 | 0.00 | 59 | 1015.3 |
| 20260904230607 | 22 | 239 | 8.0 | 17.7 | 0.00 | 0.00 | 0.00 | 59 | 1015.3 |
| 20260904230505 | 22 | 220 | 8.0 | 17.7 | 0.00 | 0.00 | 0.00 | 59 | 1015.4 |
| 20260904230402 | 22 | 225 | 8.0 | 17.7 | 0.00 | 0.00 | 0.00 | 59 | 1015.3 |
| 20260904230301 | 22 | 230 | 8.0 | 17.7 | 0.00 | 0.00 | 0.00 | 59 | 1015.3 |
| 20260904230201 | 22 | 215 | 8.0 | 17.7 | 0.00 | 0.00 | 0.00 | 59 | 1015.4 |
| 20260904230130 | 22 | 227 | 8.0 | 17.7 | 0.00 | 0.00 | 0.00 | 59 | 1015.4 |
| 20260904230101 | 22 | 213 | 8.0 | 17.7 | 0.00 | 0.00 | 0.00 | 59 | 1015.4 |
| 20260904230001 | 22 | 215 | 8.0 | 17.7 | 0.00 | 0.00 | 0.00 | 59 | 1015.4 |
| 20260904225901 | 22 | 206 | 8.0 | 17.7 | 0.00 | 0.00 | 0.00 | 59 | 1015.4 |
| 20260904225801 | 22 | 242 | 8.0 | 17.7 | 0.00 | 0.00 | 0.00 | 59 | 1015.4 |
| 20260904225701 | 22 | 241 | 8.0 | 17.7 | 0.00 | 0.00 | 0.00 | 59 | 1015.4 |
| 20260904225601 | 22 | 235 | 8.0 | 17.7 | 0.00 | 0.00 | 0.00 | 59 | 1015.4 |
| 20260904225501 | 22 | 214 | 8.0 | 17.7 | 0.00 | 0.00 | 0.00 | 59 | 1015.3 |
| 20260904225401 | 22 | 224 | 8.0 | 17.7 | 0.00 | 0.00 | 0.00 | 58 | 1015.4 |
| 20260904225354 | 22 | 217 | 8.0 | 19.3 | 0.00 | 0.00 | 0.00 | 59 | 1015.4 |
| 20260904225348 | 22 | 246 | 8.0 | 19.3 | 0.00 | 0.00 | 0.00 | 59 | 1015.4 |
| 20260904225344 | 22 | 249 | 8.0 | 19.3 | 0.00 | 0.00 | 0.00 | 59 | 1015.4 |
| 20260904225100 | 22 | 231 | 8.0 | 19.3 | 0.00 | 0.00 | 0.00 | 59 | 1015.4 |
| 20260904225001 | 22 | 241 | 8.0 | 19.3 | 0.00 | 0.00 | 0.00 | 59 | 1015.4 |
| 20260904224901 | 22 | 258 | 9.7 | 19.3 | 0.00 | 0.00 | 0.00 | 59 | 1015.4 |
| 20260904224801 | 22 | 234 | 9.7 | 19.3 | 0.00 | 0.00 | 0.00 | 58 | 1015.3 |
| 20260904224701 | 22 | 231 | 9.7 | 19.3 | 0.00 | 0.00 | 0.00 | 58 | 1015.3 |
| 20260904224629 | 22 | 264 | 9.7 | 19.3 | 0.00 | 0.00 | 0.00 | 58 | 1015.3 |
| 20260904224601 | 22 | 233 | 9.7 | 19.3 | 0.00 | 0.00 | 0.00 | 58 | 1015.3 |
| 20260904224501 | 22 | 219 | 9.7 | 19.3 | 0.00 | 0.00 | 0.00 | 58 | 1015.3 |
| 20260904224401 | 22 | 242 | 9.7 | 19.3 | 0.00 | 0.00 | 0.00 | 59 | 1015.4 |
| 20260904224300 | 22 | 242 | 9.7 | 17.7 | 0.00 | 0.00 | 0.00 | 59 | 1015.4 |
| 20260904224200 | 22 | 213 | 8.0 | 17.7 | 0.00 | 0.00 | 0.00 | 59 | 1015.3 |
| 20260904224129 | 22 | 245 | 8.0 | 17.7 | 0.00 | 0.00 | 0.00 | 59 | 1015.3 |
| 20260904224100 | 22 | 202 | 8.0 | 17.7 | 0.00 | 0.00 | 0.00 | 59 | 1015.3 |
| 20260904224000 | 22 | 208 | 8.0 | 17.7 | 0.00 | 0.00 | 0.00 | 58 | 1015.4 |
| 20260904223900 | 22 | 254 | 8.0 | 17.7 | 0.00 | 0.00 | 0.00 | 58 | 1015.3 |
| 20260904223800 | 22 | 238 | 8.0 | 17.7 | 0.00 | 0.00 | 0.00 | 59 | 1015.4 |
| 20260904223700 | 22 | 219 | 8.0 | 17.7 | 0.00 | 0.00 | 0.00 | 58 | 1015.4 |
| 20260904223628 | 22 | 230 | 8.0 | 17.7 | 0.00 | 0.00 | 0.00 | 58 | 1015.4 |
| 20260904223600 | 22 | 261 | 6.4 | 17.7 | 0.00 | 0.00 | 0.00 | 58 | 1015.4 |
| 20260904223500 | 22 | 244 | 6.4 | 17.7 | 0.00 | 0.00 | 0.00 | 58 | 1015.4 |
| 20260904223401 | 22 | 243 | 6.4 | 17.7 | 0.00 | 0.00 | 0.00 | 58 | 1015.4 |
| 20260904223302 | 22 | 236 | 6.4 | 17.7 | 0.00 | 0.00 | 0.00 | 58 | 1015.4 |
| 20260904223202 | 22 | 250 | 6.4 | 17.7 | 0.00 | 0.00 | 0.00 | 58 | 1015.3 |
| 20260904223129 | 22 | 273 | 6.4 | 17.7 | 0.00 | 0.00 | 0.00 | 58 | 1015.3 |
| 20260904223101 | 22 | 210 | 6.4 | 17.7 | 0.00 | 0.00 | 0.00 | 59 | 1015.4 |
| 20260904223001 | 22 | 229 | 6.4 | 17.7 | 0.00 | 0.00 | 0.00 | 58 | 1015.4 |
| 20260904222901 | 22 | 229 | 6.4 | 14.5 | 0.00 | 0.00 | 0.00 | 59 | 1015.4 |
| 20260904222801 | 22 | 202 | 6.4 | 14.5 | 0.00 | 0.00 | 0.00 | 58 | 1015.4 |
| 20260904222701 | 22 | 252 | 6.4 | 14.5 | 0.00 | 0.00 | 0.00 | 58 | 1015.4 |
| 20260904222628 | 23 | 252 | 6.4 | 14.5 | 0.00 | 0.00 | 0.00 | 58 | 1015.4 |
| 20260904222605 | 23 | 252 | 6.4 | 14.5 | 0.00 | 0.00 | 0.00 | 58 | 1015.3 |
| 20260904222501 | 23 | 217 | 6.4 | 14.5 | 0.00 | 0.00 | 0.00 | 58 | 1015.4 |
| 20260904222401 | 23 | 242 | 6.4 | 14.5 | 0.00 | 0.00 | 0.00 | 59 | 1015.4 |
| 20260904222301 | 23 | 209 | 8.0 | 14.5 | 0.00 | 0.00 | 0.00 | 58 | 1015.3 |
| 20260904222201 | 23 | 264 | 8.0 | 14.5 | 0.00 | 0.00 | 0.00 | 58 | 1015.3 |
| 20260904222128 | 23 | 239 | 8.0 | 14.5 | 0.00 | 0.00 | 0.00 | 58 | 1015.3 |
| 20260904222101 | 23 | 242 | 8.0 | 14.5 | 0.00 | 0.00 | 0.00 | 58 | 1015.4 |
| 20260904222001 | 23 | 225 | 8.0 | 14.5 | 0.00 | 0.00 | 0.00 | 58 | 1015.4 |
| 20260904221901 | 23 | 218 | 8.0 | 19.3 | 0.00 | 0.00 | 0.00 | 58 | 1015.4 |
| 20260904221801 | 23 | 246 | 8.0 | 19.3 | 0.00 | 0.00 | 0.00 | 58 | 1015.3 |
| 20260904221701 | 23 | 236 | 8.0 | 19.3 | 0.00 | 0.00 | 0.00 | 58 | 1015.3 |
| 20260904221629 | 23 | 238 | 8.0 | 19.3 | 0.00 | 0.00 | 0.00 | 58 | 1015.3 |
| 20260904221601 | 23 | 255 | 8.0 | 19.3 | 0.00 | 0.00 | 0.00 | 58 | 1015.3 |
| 20260904221501 | 23 | 210 | 8.0 | 19.3 | 0.00 | 0.00 | 0.00 | 58 | 1015.3 |
| 20260904221401 | 23 | 234 | 9.7 | 19.3 | 0.00 | 0.00 | 0.00 | 58 | 1015.3 |
| 20260904221301 | 23 | 234 | 9.7 | 19.3 | 0.00 | 0.00 | 0.00 | 58 | 1015.3 |
| 20260904221201 | 23 | 231 | 9.7 | 19.3 | 0.00 | 0.00 | 0.00 | 58 | 1015.3 |
| 20260904221129 | 23 | 244 | 9.7 | 19.3 | 0.00 | 0.00 | 0.00 | 58 | 1015.3 |
| 20260904221100 | 23 | 275 | 9.7 | 19.3 | 0.00 | 0.00 | 0.00 | 58 | 1015.3 |
| 20260904221001 | 23 | 232 | 9.7 | 19.3 | 0.00 | 0.00 | 0.00 | 58 | 1015.3 |
| 20260904220901 | 23 | 227 | 9.7 | 19.3 | 0.00 | 0.00 | 0.00 | 58 | 1015.3 |
| 20260904220800 | 23 | 282 | 9.7 | 19.3 | 0.00 | 0.00 | 0.00 | 58 | 1015.3 |
| 20260904220700 | 23 | 211 | 9.7 | 19.3 | 0.00 | 0.00 | 0.00 | 58 | 1015.3 |
| 20260904220629 | 23 | 236 | 9.7 | 19.3 | 0.00 | 0.00 | 0.00 | 58 | 1015.3 |
| 20260904220600 | 23 | 252 | 9.7 | 20.9 | 0.00 | 0.00 | 0.00 | 58 | 1015.3 |
| 20260904220500 | 23 | 238 | 9.7 | 20.9 | 0.00 | 0.00 | 0.00 | 58 | 1015.2 |
| 20260904220401 | 23 | 200 | 8.0 | 20.9 | 0.00 | 0.00 | 0.00 | 58 | 1015.2 |
| 20260904220301 | 23 | 224 | 8.0 | 20.9 | 0.00 | 0.00 | 0.00 | 58 | 1015.2 |
| 20260904220201 | 23 | 232 | 8.0 | 20.9 | 0.00 | 0.00 | 0.00 | 58 | 1015.2 |
| 20260904220129 | 23 | 216 | 8.0 | 20.9 | 0.00 | 0.00 | 0.00 | 58 | 1015.2 |
| 20260904220001 | 23 | 232 | 8.0 | 20.9 | 0.00 | 0.00 | 0.00 | 58 | 1015.1 |
| 20260904215901 | 23 | 215 | 8.0 | 20.9 | 0.00 | 0.00 | 0.00 | 58 | 1015.1 |
| 20260904215802 | 23 | 224 | 8.0 | 20.9 | 0.00 | 0.00 | 0.00 | 58 | 1015.1 |
| 20260904215701 | 23 | 227 | 8.0 | 20.9 | 0.00 | 0.00 | 0.00 | 58 | 1015.1 |
| 20260904215629 | 23 | 238 | 8.0 | 20.9 | 0.00 | 0.00 | 0.00 | 58 | 1015.1 |
| 20260904215601 | 23 | 188 | 8.0 | 17.7 | 0.00 | 0.00 | 0.00 | 58 | 1015.1 |
| 20260904215501 | 23 | 250 | 8.0 | 17.7 | 0.00 | 0.00 | 0.00 | 58 | 1015.1 |
| 20260904215401 | 23 | 244 | 8.0 | 17.7 | 0.00 | 0.00 | 0.00 | 58 | 1015.1 |
| 20260904215305 | 23 | 237 | 6.4 | 17.7 | 0.00 | 0.00 | 0.00 | 58 | 1015.0 |
| 20260904215200 | 23 | 220 | 6.4 | 17.7 | 0.00 | 0.00 | 0.00 | 58 | 1015.0 |
| 20260904215129 | 23 | 221 | 6.4 | 17.7 | 0.00 | 0.00 | 0.00 | 58 | 1015.0 |
| 20260904215101 | 23 | 238 | 6.4 | 17.7 | 0.00 | 0.00 | 0.00 | 58 | 1015.1 |
| 20260904215001 | 23 | 232 | 8.0 | 14.5 | 0.00 | 0.00 | 0.00 | 58 | 1015.1 |
| 20260904214901 | 23 | 246 | 8.0 | 14.5 | 0.00 | 0.00 | 0.00 | 58 | 1015.0 |
| 20260904214801 | 23 | 211 | 8.0 | 14.5 | 0.00 | 0.00 | 0.00 | 58 | 1015.0 |
| 20260904214701 | 23 | 217 | 8.0 | 14.5 | 0.00 | 0.00 | 0.00 | 58 | 1015.1 |
| 20260904214629 | 23 | 227 | 8.0 | 14.5 | 0.00 | 0.00 | 0.00 | 58 | 1015.1 |
| 20260904214624 | 23 | 244 | 8.0 | 16.1 | 0.00 | 0.00 | 0.00 | 58 | 1015.0 |
| 20260904214616 | 23 | 223 | 8.0 | 14.5 | 0.00 | 0.00 | 0.00 | 58 | 1015.0 |
| 20260904214609 | 23 | 225 | 8.0 | 14.5 | 0.00 | 0.00 | 0.00 | 58 | 1015.0 |
| 20260904214604 | 23 | 244 | 8.0 | 14.5 | 0.00 | 0.00 | 0.00 | 58 | 1015.0 |
| 20260904214343 | 23 | 263 | 8.0 | 14.5 | 0.00 | 0.00 | 0.00 | 58 | 1015.0 |
| 20260904214339 | 23 | 278 | 8.0 | 16.1 | 0.00 | 0.00 | 0.00 | 58 | 1015.0 |
| 20260904214101 | 23 | 252 | 8.0 | 16.1 | 0.00 | 0.00 | 0.00 | 58 | 1015.0 |
| 20260904214001 | 23 | 237 | 8.0 | 16.1 | 0.00 | 0.00 | 0.00 | 58 | 1015.0 |
| 20260904213901 | 23 | 251 | 8.0 | 16.1 | 0.00 | 0.00 | 0.00 | 58 | 1015.1 |
| 20260904213801 | 23 | 265 | 8.0 | 16.1 | 0.00 | 0.00 | 0.00 | 58 | 1015.0 |
| 20260904213700 | 23 | 231 | 8.0 | 16.1 | 0.00 | 0.00 | 0.00 | 58 | 1015.0 |
| 20260904213629 | 23 | 243 | 8.0 | 16.1 | 0.00 | 0.00 | 0.00 | 58 | 1015.0 |
| 20260904213600 | 23 | 235 | 8.0 | 16.1 | 0.00 | 0.00 | 0.00 | 58 | 1015.0 |
| 20260904213504 | 23 | 244 | 8.0 | 16.1 | 0.00 | 0.00 | 0.00 | 58 | 1015.1 |
| 20260904213401 | 23 | 236 | 8.0 | 16.1 | 0.00 | 0.00 | 0.00 | 58 | 1015.0 |
| 20260904213301 | 23 | 236 | 6.4 | 16.1 | 0.00 | 0.00 | 0.00 | 58 | 1015.0 |
| 20260904213201 | 23 | 240 | 8.0 | 14.5 | 0.00 | 0.00 | 0.00 | 58 | 1015.1 |
| 20260904213129 | 23 | 238 | 8.0 | 14.5 | 0.00 | 0.00 | 0.00 | 58 | 1015.1 |
| 20260904213101 | 23 | 213 | 6.4 | 14.5 | 0.00 | 0.00 | 0.00 | 58 | 1015.0 |
| 20260904213001 | 23 | 252 | 6.4 | 14.5 | 0.00 | 0.00 | 0.00 | 58 | 1015.0 |
| 20260904212901 | 23 | 247 | 6.4 | 14.5 | 0.00 | 0.00 | 0.00 | 58 | 1015.0 |
| 20260904212801 | 23 | 220 | 8.0 | 14.5 | 0.00 | 0.00 | 0.00 | 58 | 1015.0 |
| 20260904212702 | 23 | 252 | 8.0 | 14.5 | 0.00 | 0.00 | 0.00 | 58 | 1015.0 |
| 20260904212631 | 23 | 215 | 8.0 | 14.5 | 0.00 | 0.00 | 0.00 | 58 | 1015.0 |
| 20260904212601 | 23 | 252 | 8.0 | 14.5 | 0.00 | 0.00 | 0.00 | 58 | 1015.0 |
| 20260904212501 | 23 | 272 | 6.4 | 14.5 | 0.00 | 0.00 | 0.00 | 58 | 1015.0 |
| 20260904212401 | 23 | 227 | 6.4 | 14.5 | 0.00 | 0.00 | 0.00 | 58 | 1015.0 |
| 20260904212356 | 23 | 220 | 6.4 | 14.5 | 0.00 | 0.00 | 0.00 | 58 | 1015.0 |
| 20260904212343 | 23 | 237 | 6.4 | 14.5 | 0.00 | 0.00 | 0.00 | 58 | 1015.0 |
| 20260904212339 | 23 | 253 | 6.4 | 14.5 | 0.00 | 0.00 | 0.00 | 58 | 1015.0 |
| 20260904212101 | 23 | 232 | 6.4 | 14.5 | 0.00 | 0.00 | 0.00 | 57 | 1015.0 |
| 20260904212001 | 23 | 232 | 6.4 | 14.5 | 0.00 | 0.00 | 0.00 | 57 | 1015.0 |
| 20260904211900 | 23 | 288 | 6.4 | 14.5 | 0.00 | 0.00 | 0.00 | 57 | 1015.0 |
| 20260904211856 | 23 | 262 | 6.4 | 12.9 | 0.00 | 0.00 | 0.00 | 57 | 1015.0 |
| 20260904211844 | 23 | 229 | 6.4 | 14.5 | 0.00 | 0.00 | 0.00 | 57 | 1015.0 |
| 20260904211840 | 23 | 227 | 6.4 | 14.5 | 0.00 | 0.00 | 0.00 | 57 | 1015.0 |
| 20260904211601 | 23 | 235 | 6.4 | 12.9 | 0.00 | 0.00 | 0.00 | 57 | 1014.9 |
| 20260904211501 | 23 | 213 | 8.0 | 12.9 | 0.00 | 0.00 | 0.00 | 57 | 1014.9 |
| 20260904211405 | 23 | 206 | 6.4 | 12.9 | 0.00 | 0.00 | 0.00 | 57 | 1014.9 |
| 20260904211347 | 23 | 234 | 8.0 | 12.9 | 0.00 | 0.00 | 0.00 | 57 | 1014.9 |
| 20260904211343 | 23 | 236 | 6.4 | 12.9 | 0.00 | 0.00 | 0.00 | 57 | 1014.9 |
| 20260904211339 | 23 | 234 | 8.0 | 12.9 | 0.00 | 0.00 | 0.00 | 57 | 1014.9 |
| 20260904211101 | 23 | 236 | 6.4 | 12.9 | 0.00 | 0.00 | 0.00 | 57 | 1014.9 |
| 20260904211000 | 23 | 229 | 8.0 | 12.9 | 0.00 | 0.00 | 0.00 | 57 | 1014.9 |
| 20260904210900 | 23 | 238 | 6.4 | 12.9 | 0.00 | 0.00 | 0.00 | 57 | 1014.9 |
| 20260904210800 | 23 | 216 | 8.0 | 14.5 | 0.00 | 0.00 | 0.00 | 57 | 1015.0 |
| 20260904210700 | 23 | 235 | 6.4 | 14.5 | 0.00 | 0.00 | 0.00 | 57 | 1014.9 |
| 20260904210629 | 23 | 258 | 6.4 | 14.5 | 0.00 | 0.00 | 0.00 | 57 | 1014.9 |
| 20260904210601 | 23 | 222 | 8.0 | 14.5 | 0.00 | 0.00 | 0.00 | 57 | 1014.9 |
| 20260904210501 | 23 | 246 | 6.4 | 14.5 | 0.00 | 0.00 | 0.00 | 57 | 1015.0 |
| 20260904210401 | 23 | 242 | 8.0 | 14.5 | 0.00 | 0.00 | 0.00 | 56 | 1015.0 |
| 20260904210301 | 23 | 298 | 8.0 | 14.5 | 0.00 | 0.00 | 0.00 | 57 | 1014.9 |
| 20260904210201 | 23 | 230 | 8.0 | 14.5 | 0.00 | 0.00 | 0.00 | 57 | 1015.0 |
| 20260904210129 | 23 | 209 | 8.0 | 14.5 | 0.00 | 0.00 | 0.00 | 57 | 1015.0 |
| 20260904210101 | 23 | 247 | 8.0 | 14.5 | 0.00 | 0.00 | 0.00 | 57 | 1015.0 |
| 20260904210000 | 23 | 212 | 8.0 | 14.5 | 0.00 | 0.00 | 0.00 | 57 | 1015.0 |
| 20260904205901 | 23 | 263 | 8.0 | 14.5 | 0.00 | 0.00 | 0.00 | 57 | 1015.0 |
| 20260904205801 | 23 | 223 | 8.0 | 14.5 | 0.00 | 0.00 | 0.00 | 56 | 1014.9 |
| 20260904205709 | 23 | 238 | 8.0 | 14.5 | 0.00 | 0.00 | 0.00 | 56 | 1015.0 |
| 20260904205630 | 23 | 217 | 8.0 | 16.1 | 0.00 | 0.00 | 0.00 | 57 | 1015.0 |
| 20260904205601 | 23 | 231 | 8.0 | 16.1 | 0.00 | 0.00 | 0.00 | 57 | 1015.0 |
| 20260904205501 | 23 | 244 | 8.0 | 16.1 | 0.00 | 0.00 | 0.00 | 56 | 1015.0 |
| 20260904205401 | 23 | 229 | 8.0 | 16.1 | 0.00 | 0.00 | 0.00 | 56 | 1014.9 |
| 20260904205301 | 23 | 234 | 8.0 | 16.1 | 0.00 | 0.00 | 0.00 | 56 | 1015.0 |
| 20260904205201 | 23 | 246 | 8.0 | 16.1 | 0.00 | 0.00 | 0.00 | 56 | 1014.9 |
| 20260904205130 | 23 | 244 | 8.0 | 16.1 | 0.00 | 0.00 | 0.00 | 56 | 1014.9 |
| 20260904205101 | 23 | 223 | 8.0 | 16.1 | 0.00 | 0.00 | 0.00 | 56 | 1015.0 |
| 20260904205002 | 23 | 220 | 8.0 | 17.7 | 0.00 | 0.00 | 0.00 | 57 | 1015.0 |
| 20260904204902 | 23 | 223 | 8.0 | 17.7 | 0.00 | 0.00 | 0.00 | 56 | 1015.0 |
| 20260904204801 | 23 | 240 | 8.0 | 17.7 | 0.00 | 0.00 | 0.00 | 56 | 1015.0 |
| 20260904204701 | 23 | 217 | 8.0 | 17.7 | 0.00 | 0.00 | 0.00 | 56 | 1015.0 |
| 20260904204629 | 23 | 275 | 8.0 | 17.7 | 0.00 | 0.00 | 0.00 | 56 | 1015.0 |
| 20260904204623 | 23 | 229 | 9.7 | 17.7 | 0.00 | 0.00 | 0.00 | 56 | 1015.0 |
| 20260904204617 | 23 | 212 | 8.0 | 17.7 | 0.00 | 0.00 | 0.00 | 56 | 1015.0 |
| 20260904204611 | 23 | 217 | 8.0 | 17.7 | 0.00 | 0.00 | 0.00 | 56 | 1015.0 |
| 20260904204606 | 23 | 234 | 8.0 | 17.7 | 0.00 | 0.00 | 0.00 | 56 | 1015.0 |
| 20260904204345 | 23 | 231 | 9.7 | 17.7 | 0.00 | 0.00 | 0.00 | 56 | 1015.0 |
| 20260904204341 | 23 | 225 | 9.7 | 17.7 | 0.00 | 0.00 | 0.00 | 56 | 1015.0 |
| 20260904204100 | 23 | 244 | 9.7 | 17.7 | 0.00 | 0.00 | 0.00 | 56 | 1015.0 |
| 20260904204000 | 23 | 218 | 9.7 | 16.1 | 0.00 | 0.00 | 0.00 | 56 | 1015.0 |
| 20260904203901 | 23 | 216 | 9.7 | 16.1 | 0.00 | 0.00 | 0.00 | 56 | 1015.0 |
| 20260904203800 | 23 | 250 | 9.7 | 16.1 | 0.00 | 0.00 | 0.00 | 56 | 1015.0 |
| 20260904203701 | 23 | 219 | 9.7 | 16.1 | 0.00 | 0.00 | 0.00 | 56 | 1015.0 |
| 20260904203629 | 23 | 245 | 9.7 | 16.1 | 0.00 | 0.00 | 0.00 | 56 | 1015.0 |
| 20260904203601 | 23 | 251 | 9.7 | 16.1 | 0.00 | 0.00 | 0.00 | 56 | 1015.0 |
| 20260904203502 | 23 | 240 | 9.7 | 16.1 | 0.00 | 0.00 | 0.00 | 56 | 1015.0 |
| 20260904203402 | 23 | 236 | 9.7 | 16.1 | 0.00 | 0.00 | 0.00 | 56 | 1015.0 |
| 20260904203358 | 23 | 232 | 8.0 | 16.1 | 0.00 | 0.00 | 0.00 | 56 | 1015.0 |
| 20260904203353 | 23 | 223 | 8.0 | 16.1 | 0.00 | 0.00 | 0.00 | 56 | 1015.0 |
| 20260904203345 | 23 | 205 | 8.0 | 16.1 | 0.00 | 0.00 | 0.00 | 56 | 1015.0 |
| 20260904203341 | 23 | 227 | 8.0 | 16.1 | 0.00 | 0.00 | 0.00 | 56 | 1015.0 |
| 20260904203106 | 23 | 223 | 8.0 | 16.1 | 0.00 | 0.00 | 0.00 | 56 | 1015.0 |
| 20260904203000 | 23 | 236 | 8.0 | 16.1 | 0.00 | 0.00 | 0.00 | 56 | 1015.0 |
| 20260904202901 | 23 | 224 | 8.0 | 16.1 | 0.00 | 0.00 | 0.00 | 56 | 1015.0 |
| 20260904202801 | 23 | 200 | 8.0 | 16.1 | 0.00 | 0.00 | 0.00 | 56 | 1015.0 |
| 20260904202700 | 23 | 223 | 8.0 | 17.7 | 0.00 | 0.00 | 0.00 | 56 | 1015.0 |
| 20260904202629 | 23 | 262 | 8.0 | 17.7 | 0.00 | 0.00 | 0.00 | 56 | 1015.0 |
| 20260904202601 | 23 | 217 | 8.0 | 17.7 | 0.00 | 0.00 | 0.00 | 56 | 1015.0 |
| 20260904202501 | 23 | 234 | 8.0 | 17.7 | 0.00 | 0.00 | 0.00 | 56 | 1015.0 |
| 20260904202402 | 23 | 240 | 8.0 | 19.3 | 0.00 | 0.00 | 0.00 | 56 | 1015.0 |
| 20260904202301 | 23 | 240 | 8.0 | 19.3 | 0.00 | 0.00 | 0.00 | 56 | 1015.0 |
| 20260904202201 | 23 | 243 | 8.0 | 19.3 | 0.00 | 0.00 | 0.00 | 55 | 1014.9 |
| 20260904202128 | 23 | 235 | 8.0 | 19.3 | 0.00 | 0.00 | 0.00 | 56 | 1014.9 |
| 20260904202101 | 23 | 211 | 8.0 | 19.3 | 0.00 | 0.00 | 0.00 | 56 | 1015.0 |
| 20260904202001 | 23 | 228 | 8.0 | 19.3 | 0.00 | 0.00 | 0.00 | 55 | 1015.0 |
| 20260904201901 | 23 | 261 | 8.0 | 19.3 | 0.00 | 0.00 | 0.00 | 55 | 1015.0 |
| 20260904201801 | 23 | 234 | 8.0 | 19.3 | 0.00 | 0.00 | 0.00 | 55 | 1015.0 |
| 20260904201701 | 23 | 219 | 8.0 | 19.3 | 0.00 | 0.00 | 0.00 | 55 | 1014.9 |
| 20260904201628 | 23 | 223 | 8.0 | 19.3 | 0.00 | 0.00 | 0.00 | 55 | 1014.9 |
| 20260904201601 | 23 | 234 | 8.0 | 19.3 | 0.00 | 0.00 | 0.00 | 55 | 1014.9 |
| 20260904201501 | 23 | 234 | 8.0 | 19.3 | 0.00 | 0.00 | 0.00 | 55 | 1014.9 |
| 20260904201401 | 23 | 235 | 8.0 | 16.1 | 0.00 | 0.00 | 0.00 | 55 | 1014.9 |
| 20260904201300 | 23 | 269 | 8.0 | 16.1 | 0.00 | 0.00 | 0.00 | 55 | 1014.9 |
| 20260904201200 | 23 | 236 | 8.0 | 16.1 | 0.00 | 0.00 | 0.00 | 55 | 1014.9 |
| 20260904201129 | 23 | 250 | 8.0 | 16.1 | 0.00 | 0.00 | 0.00 | 55 | 1014.9 |
| 20260904201101 | 23 | 250 | 8.0 | 16.1 | 0.00 | 0.00 | 0.00 | 54 | 1014.9 |
| 20260904201001 | 23 | 233 | 8.0 | 16.1 | 0.00 | 0.00 | 0.00 | 54 | 1014.9 |
| 20260904200901 | 23 | 212 | 8.0 | 16.1 | 0.00 | 0.00 | 0.00 | 55 | 1014.9 |
| 20260904200856 | 24 | 219 | 8.0 | 14.5 | 0.00 | 0.00 | 0.00 | 54 | 1014.9 |
| 20260904200846 | 23 | 231 | 8.0 | 14.5 | 0.00 | 0.00 | 0.00 | 54 | 1014.9 |
| 20260904200841 | 24 | 232 | 8.0 | 14.5 | 0.00 | 0.00 | 0.00 | 55 | 1014.9 |
| 20260904200601 | 24 | 217 | 8.0 | 14.5 | 0.00 | 0.00 | 0.00 | 54 | 1014.9 |
| 20260904200501 | 24 | 263 | 8.0 | 14.5 | 0.00 | 0.00 | 0.00 | 54 | 1014.9 |
| 20260904200401 | 24 | 260 | 8.0 | 14.5 | 0.00 | 0.00 | 0.00 | 54 | 1015.0 |
| 20260904200354 | 24 | 244 | 8.0 | 14.5 | 0.00 | 0.00 | 0.00 | 54 | 1014.9 |
| 20260904200345 | 24 | 238 | 8.0 | 14.5 | 0.00 | 0.00 | 0.00 | 54 | 1014.9 |
| 20260904200340 | 24 | 224 | 8.0 | 14.5 | 0.00 | 0.00 | 0.00 | 54 | 1014.9 |
| 20260904200033 | 24 | 273 | 8.0 | 14.5 | 0.00 | 0.00 | 0.00 | 54 | 1014.9 |
| 20260904200002 | 24 | 273 | 8.0 | 14.5 | 0.00 | 0.00 | 0.00 | 54 | 1014.9 |
| 20260904195901 | 24 | 236 | 8.0 | 14.5 | 0.00 | 0.00 | 0.00 | 54 | 1014.9 |
| 20260904195801 | 24 | 243 | 8.0 | 14.5 | 0.00 | 0.00 | 0.00 | 54 | 1014.8 |
| 20260904195701 | 24 | 253 | 8.0 | 14.5 | 0.00 | 0.00 | 0.00 | 54 | 1014.9 |
| 20260904195628 | 24 | 269 | 8.0 | 14.5 | 0.00 | 0.00 | 0.00 | 54 | 1014.9 |
| 20260904195601 | 24 | 257 | 8.0 | 12.9 | 0.00 | 0.00 | 0.00 | 54 | 1014.9 |
| 20260904195501 | 24 | 237 | 9.7 | 12.9 | 0.00 | 0.00 | 0.00 | 54 | 1014.9 |
| 20260904195401 | 24 | 269 | 9.7 | 12.9 | 0.00 | 0.00 | 0.00 | 54 | 1014.9 |
| 20260904195300 | 24 | 257 | 9.7 | 12.9 | 0.00 | 0.00 | 0.00 | 54 | 1014.9 |
| 20260904195155 | 24 | 236 | 9.7 | 14.5 | 0.00 | 0.00 | 0.00 | 54 | 1014.9 |
| 20260904195128 | 24 | 243 | 9.7 | 14.5 | 0.00 | 0.00 | 0.00 | 54 | 1014.9 |
| 20260904195100 | 24 | 278 | 9.7 | 14.5 | 0.00 | 0.00 | 0.00 | 54 | 1014.8 |
| 20260904194955 | 24 | 281 | 9.7 | 14.5 | 0.00 | 0.00 | 0.00 | 53 | 1014.9 |
| 20260904194855 | 24 | 277 | 9.7 | 14.5 | 0.00 | 0.00 | 0.00 | 54 | 1014.8 |
| 20260904194755 | 24 | 234 | 9.7 | 14.5 | 0.00 | 0.00 | 0.00 | 53 | 1014.9 |
| 20260904194649 | 24 | 251 | 9.7 | 14.5 | 0.00 | 0.00 | 0.00 | 53 | 1014.9 |
| 20260904194630 | 24 | 260 | 9.7 | 14.5 | 0.00 | 0.00 | 0.00 | 53 | 1014.9 |
| 20260904194548 | 24 | 241 | 9.7 | 14.5 | 0.00 | 0.00 | 0.00 | 53 | 1014.8 |
| 20260904194448 | 24 | 229 | 9.7 | 16.1 | 0.00 | 0.00 | 0.00 | 53 | 1014.9 |
| 20260904194348 | 24 | 222 | 9.7 | 17.7 | 0.00 | 0.00 | 0.00 | 53 | 1014.8 |
| 20260904194249 | 24 | 248 | 9.7 | 17.7 | 0.00 | 0.00 | 0.00 | 53 | 1014.8 |
| 20260904194144 | 24 | 254 | 9.7 | 17.7 | 0.00 | 0.00 | 0.00 | 53 | 1014.8 |
| 20260904194128 | 24 | 246 | 9.7 | 17.7 | 0.00 | 0.00 | 0.00 | 53 | 1014.8 |
| 20260904194044 | 24 | 219 | 9.7 | 17.7 | 0.00 | 0.00 | 0.00 | 53 | 1014.8 |
| 20260904193945 | 24 | 273 | 9.7 | 17.7 | 0.00 | 0.00 | 0.00 | 53 | 1014.7 |
| 20260904193859 | 24 | 262 | 9.7 | 19.3 | 0.00 | 0.00 | 0.00 | 53 | 1014.7 |
| 20260904193854 | 24 | 225 | 9.7 | 17.7 | 0.00 | 0.00 | 0.00 | 53 | 1014.8 |
| 20260904193845 | 24 | 262 | 9.7 | 17.7 | 0.00 | 0.00 | 0.00 | 53 | 1014.8 |
| 20260904193842 | 24 | 243 | 9.7 | 17.7 | 0.00 | 0.00 | 0.00 | 53 | 1014.7 |
| 20260904193542 | 24 | 281 | 9.7 | 19.3 | 0.00 | 0.00 | 0.00 | 53 | 1014.7 |
| 20260904193442 | 24 | 279 | 11.3 | 19.3 | 0.00 | 0.00 | 0.00 | 52 | 1014.8 |
| 20260904193342 | 24 | 243 | 11.3 | 19.3 | 0.00 | 0.00 | 0.00 | 52 | 1014.7 |
| 20260904193243 | 24 | 257 | 11.3 | 19.3 | 0.00 | 0.00 | 0.00 | 52 | 1014.7 |
| 20260904193142 | 24 | 249 | 11.3 | 19.3 | 0.00 | 0.00 | 0.00 | 52 | 1014.7 |
| 20260904193129 | 24 | 256 | 11.3 | 19.3 | 0.00 | 0.00 | 0.00 | 52 | 1014.7 |
| 20260904193043 | 24 | 261 | 11.3 | 19.3 | 0.00 | 0.00 | 0.00 | 52 | 1014.7 |
| 20260904192943 | 24 | 299 | 11.3 | 19.3 | 0.00 | 0.00 | 0.00 | 52 | 1014.8 |
| 20260904192856 | 24 | 221 | 11.3 | 19.3 | 0.00 | 0.00 | 0.00 | 52 | 1014.7 |
| 20260904192851 | 24 | 258 | 11.3 | 19.3 | 0.00 | 0.00 | 0.00 | 52 | 1014.8 |
| 20260904192843 | 24 | 226 | 11.3 | 19.3 | 0.00 | 0.00 | 0.00 | 52 | 1014.7 |
| 20260904192839 | 24 | 239 | 11.3 | 19.3 | 0.00 | 0.00 | 0.00 | 52 | 1014.7 |
| 20260904192541 | 24 | 275 | 11.3 | 19.3 | 0.00 | 0.00 | 0.00 | 52 | 1014.7 |
| 20260904192441 | 24 | 269 | 11.3 | 19.3 | 0.00 | 0.00 | 0.00 | 52 | 1014.6 |
| 20260904192346 | 24 | 236 | 11.3 | 20.9 | 0.00 | 0.00 | 0.00 | 52 | 1014.7 |
| 20260904192241 | 24 | 269 | 11.3 | 20.9 | 0.00 | 0.00 | 0.00 | 52 | 1014.6 |
| 20260904192141 | 24 | 240 | 12.9 | 20.9 | 0.00 | 0.00 | 0.00 | 52 | 1014.6 |
| 20260904192128 | 24 | 259 | 12.9 | 20.9 | 0.00 | 0.00 | 0.00 | 52 | 1014.6 |
| 20260904192040 | 24 | 235 | 12.9 | 20.9 | 0.00 | 0.00 | 0.00 | 52 | 1014.6 |
| 20260904191936 | 24 | 255 | 12.9 | 20.9 | 0.00 | 0.00 | 0.00 | 52 | 1014.6 |
| 20260904191837 | 24 | 267 | 12.9 | 20.9 | 0.00 | 0.00 | 0.00 | 52 | 1014.6 |
| 20260904191737 | 24 | 225 | 12.9 | 20.9 | 0.00 | 0.00 | 0.00 | 52 | 1014.6 |
| 20260904191638 | 24 | 269 | 12.9 | 20.9 | 0.00 | 0.00 | 0.00 | 52 | 1014.6 |
| 20260904191629 | 24 | 251 | 12.9 | 20.9 | 0.00 | 0.00 | 0.00 | 52 | 1014.6 |
| 20260904191535 | 24 | 236 | 12.9 | 20.9 | 0.00 | 0.00 | 0.00 | 52 | 1014.6 |
| 20260904191432 | 24 | 270 | 12.9 | 20.9 | 0.00 | 0.00 | 0.00 | 52 | 1014.5 |
| 20260904191332 | 24 | 253 | 12.9 | 19.3 | 0.00 | 0.00 | 0.00 | 52 | 1014.5 |
| 20260904191230 | 24 | 267 | 11.3 | 19.3 | 0.00 | 0.00 | 0.00 | 52 | 1014.5 |
| 20260904191132 | 24 | 254 | 11.3 | 19.3 | 0.00 | 0.00 | 0.00 | 52 | 1014.5 |
| 20260904191128 | 24 | 261 | 11.3 | 19.3 | 0.00 | 0.00 | 0.00 | 52 | 1014.5 |
| 20260904191031 | 24 | 248 | 11.3 | 19.3 | 0.00 | 0.00 | 0.00 | 52 | 1014.5 |
| 20260904190929 | 24 | 252 | 9.7 | 17.7 | 0.00 | 0.00 | 0.00 | 52 | 1014.5 |
| 20260904190829 | 24 | 265 | 9.7 | 19.3 | 0.00 | 0.00 | 0.00 | 52 | 1014.4 |
| 20260904190729 | 24 | 275 | 9.7 | 19.3 | 0.00 | 0.00 | 0.00 | 52 | 1014.4 |
| 20260904190629 | 24 | 261 | 9.7 | 19.3 | 0.00 | 0.00 | 0.00 | 52 | 1014.5 |
| 20260904190529 | 24 | 264 | 9.7 | 19.3 | 0.00 | 0.00 | 0.00 | 52 | 1014.4 |
| 20260904190428 | 24 | 221 | 9.7 | 19.3 | 0.00 | 0.00 | 0.00 | 52 | 1014.4 |
| 20260904190328 | 24 | 277 | 9.7 | 19.3 | 0.00 | 0.00 | 0.00 | 52 | 1014.3 |
| 20260904190228 | 24 | 273 | 9.7 | 19.3 | 0.00 | 0.00 | 0.00 | 52 | 1014.3 |
| 20260904190129 | 24 | 267 | 9.7 | 19.3 | 0.00 | 0.00 | 0.00 | 52 | 1014.3 |
| 20260904190029 | 24 | 250 | 9.7 | 19.3 | 0.00 | 0.00 | 0.00 | 52 | 1014.3 |
| 20260904185929 | 24 | 261 | 9.7 | 19.3 | 0.00 | 0.00 | 0.00 | 52 | 1014.3 |
| 20260904185829 | 24 | 250 | 9.7 | 17.7 | 0.00 | 0.00 | 0.00 | 52 | 1014.3 |
| 20260904185729 | 24 | 258 | 9.7 | 17.7 | 0.00 | 0.00 | 0.00 | 52 | 1014.3 |
| 20260904185629 | 24 | 253 | 9.7 | 17.7 | 0.00 | 0.00 | 0.00 | 52 | 1014.3 |
| 20260904185529 | 24 | 255 | 9.7 | 17.7 | 0.00 | 0.00 | 0.00 | 51 | 1014.2 |
| 20260904185430 | 24 | 235 | 8.0 | 17.7 | 0.00 | 0.00 | 0.00 | 52 | 1014.2 |
| 20260904185329 | 24 | 252 | 8.0 | 17.7 | 0.00 | 0.00 | 0.00 | 51 | 1014.2 |
| 20260904185229 | 24 | 271 | 8.0 | 17.7 | 0.00 | 0.00 | 0.00 | 51 | 1014.2 |
| 20260904185129 | 25 | 250 | 8.0 | 17.7 | 0.00 | 0.00 | 0.00 | 51 | 1014.2 |
| 20260904185028 | 25 | 246 | 8.0 | 17.7 | 0.00 | 0.00 | 0.00 | 51 | 1014.2 |
| 20260904184929 | 25 | 279 | 8.0 | 12.9 | 0.00 | 0.00 | 0.00 | 51 | 1014.2 |
| 20260904184829 | 25 | 248 | 8.0 | 12.9 | 0.00 | 0.00 | 0.00 | 51 | 1014.2 |
| 20260904184728 | 25 | 244 | 6.4 | 12.9 | 0.00 | 0.00 | 0.00 | 51 | 1014.2 |
| 20260904184628 | 25 | 255 | 6.4 | 12.9 | 0.00 | 0.00 | 0.00 | 51 | 1014.2 |
| 20260904184529 | 25 | 253 | 6.4 | 12.9 | 0.00 | 0.00 | 0.00 | 51 | 1014.1 |
| 20260904184429 | 25 | 276 | 6.4 | 12.9 | 0.00 | 0.00 | 0.00 | 51 | 1014.2 |
| 20260904184353 | 25 | 266 | 6.4 | 12.9 | 0.00 | 0.00 | 0.00 | 51 | 1014.2 |
| 20260904184345 | 25 | 227 | 6.4 | 12.9 | 0.00 | 0.00 | 0.00 | 51 | 1014.1 |
| 20260904184340 | 25 | 263 | 6.4 | 12.9 | 0.00 | 0.00 | 0.00 | 50 | 1014.1 |
| 20260904184028 | 25 | 253 | 6.4 | 12.9 | 0.00 | 0.00 | 0.00 | 50 | 1014.1 |
| 20260904183928 | 25 | 255 | 6.4 | 12.9 | 0.00 | 0.00 | 0.00 | 50 | 1014.1 |
| 20260904183858 | 25 | 261 | 6.4 | 14.5 | 0.00 | 0.00 | 0.00 | 50 | 1013.9 |
| 20260904183849 | 25 | 248 | 6.4 | 12.9 | 0.00 | 0.00 | 0.00 | 50 | 1014.1 |
| 20260904183841 | 25 | 241 | 6.4 | 14.5 | 0.00 | 0.00 | 0.00 | 50 | 1014.1 |
| 20260904183837 | 25 | 259 | 6.4 | 14.5 | 0.00 | 0.00 | 0.00 | 50 | 1014.1 |
| 20260904183528 | 25 | 279 | 6.4 | 14.5 | 0.00 | 0.00 | 0.00 | 50 | 1013.9 |
| 20260904183428 | 25 | 271 | 6.4 | 14.5 | 0.00 | 0.00 | 0.00 | 50 | 1014.1 |
| 20260904183329 | 25 | 250 | 6.4 | 14.5 | 0.00 | 0.00 | 0.00 | 50 | 1014.1 |
| 20260904183229 | 25 | 256 | 6.4 | 14.5 | 0.00 | 0.00 | 0.00 | 50 | 1013.9 |
| 20260904183129 | 25 | 267 | 6.4 | 14.5 | 0.00 | 0.00 | 0.00 | 50 | 1013.9 |
| 20260904183120 | 25 | 268 | 6.4 | 14.5 | 0.00 | 0.00 | 0.00 | 50 | 1013.9 |
| 20260904183028 | 25 | 270 | 6.4 | 14.5 | 0.00 | 0.00 | 0.00 | 50 | 1013.9 |
| 20260904182929 | 25 | 270 | 6.4 | 14.5 | 0.00 | 0.00 | 0.00 | 50 | 1013.9 |
| 20260904182829 | 25 | 267 | 6.4 | 14.5 | 0.00 | 0.00 | 0.00 | 50 | 1013.9 |
| 20260904182728 | 25 | 278 | 6.4 | 11.3 | 0.00 | 0.00 | 0.00 | 50 | 1013.9 |
| 20260904182629 | 25 | 254 | 6.4 | 11.3 | 0.00 | 0.00 | 0.00 | 50 | 1013.9 |
| 20260904182615 | 25 | 243 | 6.4 | 11.3 | 0.00 | 0.00 | 0.00 | 50 | 1013.9 |
| 20260904182529 | 25 | 252 | 6.4 | 12.9 | 0.00 | 0.00 | 0.00 | 50 | 1013.9 |
| 20260904182429 | 25 | 238 | 6.4 | 14.5 | 0.00 | 0.00 | 0.00 | 49 | 1013.9 |
| 20260904182338 | 25 | 265 | 6.4 | 14.5 | 0.00 | 0.00 | 0.00 | 49 | 1013.8 |
| 20260904182334 | 25 | 239 | 6.4 | 14.5 | 0.00 | 0.00 | 0.00 | 50 | 1013.9 |
| 20260904182325 | 25 | 263 | 6.4 | 14.5 | 0.00 | 0.00 | 0.00 | 49 | 1013.9 |
| 20260904182321 | 25 | 265 | 6.4 | 14.5 | 0.00 | 0.00 | 0.00 | 49 | 1013.9 |
| 20260904182030 | 25 | 254 | 6.4 | 14.5 | 0.00 | 0.00 | 0.00 | 49 | 1013.8 |
| 20260904181929 | 25 | 259 | 6.4 | 14.5 | 0.00 | 0.00 | 0.00 | 49 | 1013.9 |
| 20260904181829 | 25 | 267 | 8.0 | 14.5 | 0.00 | 0.00 | 0.00 | 49 | 1013.8 |
| 20260904181729 | 25 | 244 | 8.0 | 14.5 | 0.00 | 0.00 | 0.00 | 49 | 1013.8 |
| 20260904181629 | 25 | 242 | 8.0 | 14.5 | 0.00 | 0.00 | 0.00 | 49 | 1013.8 |
| 20260904181611 | 25 | 252 | 8.0 | 14.5 | 0.00 | 0.00 | 0.00 | 49 | 1013.8 |
| 20260904181529 | 25 | 244 | 8.0 | 14.5 | 0.00 | 0.00 | 0.00 | 49 | 1013.8 |
| 20260904181429 | 25 | 248 | 8.0 | 12.9 | 0.00 | 0.00 | 0.00 | 49 | 1013.8 |
| 20260904181329 | 25 | 244 | 8.0 | 12.9 | 0.00 | 0.00 | 0.00 | 49 | 1013.8 |
| 20260904181229 | 25 | 223 | 8.0 | 12.9 | 0.00 | 0.00 | 0.00 | 49 | 1013.8 |
| 20260904181129 | 25 | 257 | 8.0 | 17.7 | 0.00 | 0.00 | 0.00 | 49 | 1013.8 |
| 20260904181110 | 25 | 258 | 8.0 | 17.7 | 0.00 | 0.00 | 0.00 | 49 | 1013.7 |
| 20260904181028 | 25 | 247 | 8.0 | 17.7 | 0.00 | 0.00 | 0.00 | 49 | 1013.7 |
| 20260904180928 | 25 | 291 | 8.0 | 17.7 | 0.00 | 0.00 | 0.00 | 49 | 1013.7 |
| 20260904180828 | 25 | 273 | 8.0 | 17.7 | 0.00 | 0.00 | 0.00 | 49 | 1013.7 |
| 20260904180732 | 25 | 246 | 8.0 | 17.7 | 0.00 | 0.00 | 0.00 | 48 | 1013.7 |
| 20260904180623 | 25 | 285 | 8.0 | 17.7 | 0.00 | 0.00 | 0.00 | 48 | 1013.6 |
| 20260904180611 | 25 | 249 | 8.0 | 17.7 | 0.00 | 0.00 | 0.00 | 48 | 1013.6 |
| 20260904180523 | 25 | 280 | 8.0 | 17.7 | 0.00 | 0.00 | 0.00 | 49 | 1013.7 |
| 20260904180423 | 25 | 280 | 8.0 | 17.7 | 0.00 | 0.00 | 0.00 | 48 | 1013.6 |
| 20260904180323 | 25 | 257 | 8.0 | 17.7 | 0.00 | 0.00 | 0.00 | 48 | 1013.6 |
| 20260904180227 | 25 | 279 | 8.0 | 17.7 | 0.00 | 0.00 | 0.00 | 48 | 1013.6 |
| 20260904180123 | 25 | 257 | 8.0 | 14.5 | 0.00 | 0.00 | 0.00 | 48 | 1013.6 |
| 20260904180110 | 26 | 262 | 8.0 | 14.5 | 0.00 | 0.00 | 0.00 | 48 | 1013.6 |
| 20260904180023 | 26 | 265 | 8.0 | 14.5 | 0.00 | 0.00 | 0.00 | 48 | 1013.6 |
| 20260904175922 | 26 | 270 | 6.4 | 14.5 | 0.00 | 0.00 | 0.00 | 48 | 1013.6 |
| 20260904175822 | 26 | 238 | 6.4 | 14.5 | 0.00 | 0.00 | 0.00 | 47 | 1013.6 |
| 20260904175724 | 26 | 236 | 6.4 | 14.5 | 0.00 | 0.00 | 0.00 | 48 | 1013.6 |
| 20260904175622 | 26 | 265 | 8.0 | 14.5 | 0.00 | 0.00 | 0.00 | 48 | 1013.6 |
| 20260904175611 | 26 | 275 | 8.0 | 14.5 | 0.00 | 0.00 | 0.00 | 47 | 1013.6 |
| 20260904175559 | 26 | 247 | 8.0 | 14.5 | 0.00 | 0.00 | 0.00 | 47 | 1013.6 |
| 20260904175553 | 26 | 265 | 8.0 | 14.5 | 0.00 | 0.00 | 0.00 | 48 | 1013.6 |
| 20260904175549 | 26 | 239 | 8.0 | 14.5 | 0.00 | 0.00 | 0.00 | 47 | 1013.6 |
| 20260904175334 | 26 | 242 | 8.0 | 14.5 | 0.00 | 0.00 | 0.00 | 47 | 1013.6 |
| 20260904175329 | 26 | 259 | 8.0 | 14.5 | 0.00 | 0.00 | 0.00 | 47 | 1013.6 |
| 20260904175321 | 26 | 236 | 6.4 | 14.5 | 0.00 | 0.00 | 0.00 | 47 | 1013.6 |
| 20260904175023 | 26 | 261 | 6.4 | 14.5 | 0.00 | 0.00 | 0.00 | 48 | 1013.6 |
| 20260904174919 | 26 | 274 | 8.0 | 14.5 | 0.00 | 0.00 | 0.00 | 47 | 1013.6 |
| 20260904174818 | 26 | 286 | 6.4 | 14.5 | 0.00 | 0.00 | 0.00 | 47 | 1013.5 |
| 20260904174720 | 26 | 248 | 6.4 | 14.5 | 0.00 | 0.00 | 0.00 | 47 | 1013.6 |
| 20260904174619 | 26 | 226 | 6.4 | 14.5 | 0.00 | 0.00 | 0.00 | 47 | 1013.5 |
| 20260904174610 | 26 | 225 | 6.4 | 14.5 | 0.00 | 0.00 | 0.00 | 47 | 1013.5 |
| 20260904174518 | 26 | 252 | 6.4 | 14.5 | 0.00 | 0.00 | 0.00 | 47 | 1013.6 |
| 20260904174416 | 26 | 216 | 6.4 | 14.5 | 0.00 | 0.00 | 0.00 | 47 | 1013.6 |
| 20260904174316 | 26 | 236 | 6.4 | 14.5 | 0.00 | 0.00 | 0.00 | 47 | 1013.6 |
| 20260904174218 | 26 | 246 | 6.4 | 14.5 | 0.00 | 0.00 | 0.00 | 47 | 1013.5 |
| 20260904174116 | 26 | 267 | 6.4 | 14.5 | 0.00 | 0.00 | 0.00 | 47 | 1013.6 |
| 20260904174109 | 26 | 232 | 6.4 | 14.5 | 0.00 | 0.00 | 0.00 | 47 | 1013.6 |
| 20260904174017 | 26 | 209 | 6.4 | 14.5 | 0.00 | 0.00 | 0.00 | 46 | 1013.6 |
| 20260904173917 | 26 | 259 | 6.4 | 14.5 | 0.00 | 0.00 | 0.00 | 46 | 1013.6 |
| 20260904173832 | 26 | 216 | 6.4 | 14.5 | 0.00 | 0.00 | 0.00 | 46 | 1013.6 |
| 20260904173828 | 26 | 231 | 6.4 | 14.5 | 0.00 | 0.00 | 0.00 | 46 | 1013.6 |
| 20260904173820 | 26 | 230 | 8.0 | 14.5 | 0.00 | 0.00 | 0.00 | 46 | 1013.5 |
| 20260904173513 | 26 | 262 | 8.0 | 14.5 | 0.00 | 0.00 | 0.00 | 46 | 1013.6 |
| 20260904173413 | 26 | 235 | 8.0 | 14.5 | 0.00 | 0.00 | 0.00 | 46 | 1013.5 |
| 20260904173313 | 26 | 223 | 8.0 | 16.1 | 0.00 | 0.00 | 0.00 | 46 | 1013.5 |
| 20260904173214 | 26 | 221 | 8.0 | 16.1 | 0.00 | 0.00 | 0.00 | 46 | 1013.5 |
| 20260904173113 | 26 | 216 | 6.4 | 16.1 | 0.00 | 0.00 | 0.00 | 46 | 1013.4 |
| 20260904173109 | 26 | 236 | 6.4 | 16.1 | 0.00 | 0.00 | 0.00 | 46 | 1013.4 |
| 20260904173013 | 26 | 273 | 8.0 | 16.1 | 0.00 | 0.00 | 0.00 | 46 | 1013.4 |
| 20260904172913 | 26 | 287 | 8.0 | 16.1 | 0.00 | 0.00 | 0.00 | 46 | 1013.4 |
| 20260904172813 | 26 | 242 | 8.0 | 16.1 | 0.00 | 0.00 | 0.00 | 45 | 1013.5 |
| 20260904172713 | 26 | 234 | 8.0 | 16.1 | 0.00 | 0.00 | 0.00 | 46 | 1013.5 |
| 20260904172608 | 26 | 225 | 8.0 | 16.1 | 0.00 | 0.00 | 0.00 | 45 | 1013.5 |
| 20260904172512 | 27 | 238 | 8.0 | 16.1 | 0.00 | 0.00 | 0.00 | 45 | 1013.5 |
| 20260904172412 | 27 | 223 | 8.0 | 16.1 | 0.00 | 0.00 | 0.00 | 45 | 1013.5 |
| 20260904172323 | 27 | 228 | 9.7 | 19.3 | 0.00 | 0.00 | 0.00 | 45 | 1013.5 |
| 20260904172319 | 27 | 227 | 8.0 | 14.5 | 0.00 | 0.00 | 0.00 | 45 | 1013.5 |
| 20260904172315 | 27 | 232 | 8.0 | 14.5 | 0.00 | 0.00 | 0.00 | 45 | 1013.5 |
| 20260904172305 | 27 | 225 | 8.0 | 14.5 | 0.00 | 0.00 | 0.00 | 45 | 1013.4 |
| 20260904172047 | 27 | 208 | 8.0 | 14.5 | 0.00 | 0.00 | 0.00 | 45 | 1013.5 |
| 20260904172043 | 27 | 257 | 8.0 | 14.5 | 0.00 | 0.00 | 0.00 | 45 | 1013.5 |
| 20260904171828 | 27 | 240 | 9.7 | 17.7 | 0.00 | 0.00 | 0.00 | 45 | 1013.5 |
| 20260904171824 | 27 | 246 | 9.7 | 19.3 | 0.00 | 0.00 | 0.00 | 45 | 1013.5 |
| 20260904171816 | 27 | 220 | 9.7 | 19.3 | 0.00 | 0.00 | 0.00 | 45 | 1013.5 |
| 20260904171508 | 27 | 269 | 8.0 | 19.3 | 0.00 | 0.00 | 0.00 | 45 | 1013.5 |
| 20260904171408 | 27 | 200 | 8.0 | 19.3 | 0.00 | 0.00 | 0.00 | 44 | 1013.5 |
| 20260904171308 | 27 | 229 | 8.0 | 19.3 | 0.00 | 0.00 | 0.00 | 44 | 1013.5 |
| 20260904171208 | 27 | 231 | 8.0 | 19.3 | 0.00 | 0.00 | 0.00 | 44 | 1013.5 |
| 20260904171108 | 27 | 219 | 9.7 | 19.3 | 0.00 | 0.00 | 0.00 | 45 | 1013.5 |
| 20260904171104 | 27 | 226 | 9.7 | 19.3 | 0.00 | 0.00 | 0.00 | 45 | 1013.5 |
| 20260904171008 | 27 | 236 | 9.7 | 19.3 | 0.00 | 0.00 | 0.00 | 45 | 1013.5 |
| 20260904170908 | 27 | 251 | 9.7 | 19.3 | 0.00 | 0.00 | 0.00 | 44 | 1013.5 |
| 20260904170809 | 27 | 240 | 8.0 | 19.3 | 0.00 | 0.00 | 0.00 | 44 | 1013.5 |
| 20260904170715 | 27 | 244 | 8.0 | 16.1 | 0.00 | 0.00 | 0.00 | 45 | 1013.5 |
| 20260904170608 | 27 | 276 | 8.0 | 16.1 | 0.00 | 0.00 | 0.00 | 45 | 1013.5 |
| 20260904170604 | 27 | 221 | 8.0 | 16.1 | 0.00 | 0.00 | 0.00 | 45 | 1013.5 |
| 20260904170508 | 27 | 236 | 8.0 | 16.1 | 0.00 | 0.00 | 0.00 | 44 | 1013.5 |
| 20260904170409 | 27 | 215 | 8.0 | 16.1 | 0.00 | 0.00 | 0.00 | 44 | 1013.5 |
| 20260904170309 | 27 | 251 | 8.0 | 16.1 | 0.00 | 0.00 | 0.00 | 45 | 1013.5 |
| 20260904170209 | 27 | 265 | 9.7 | 16.1 | 0.00 | 0.00 | 0.00 | 45 | 1013.4 |
| 20260904170109 | 27 | 252 | 9.7 | 22.5 | 0.00 | 0.00 | 0.00 | 45 | 1013.6 |
| 20260904170105 | 27 | 255 | 9.7 | 22.5 | 0.00 | 0.00 | 0.00 | 45 | 1013.6 |
| 20260904170009 | 27 | 227 | 9.7 | 22.5 | 0.00 | 0.00 | 0.00 | 45 | 1013.5 |
| 20260904165904 | 27 | 273 | 9.7 | 22.5 | 0.00 | 0.00 | 0.00 | 44 | 1013.5 |
| 20260904165804 | 27 | 241 | 9.7 | 22.5 | 0.00 | 0.00 | 0.00 | 44 | 1013.5 |
| 20260904165704 | 27 | 238 | 9.7 | 22.5 | 0.00 | 0.00 | 0.00 | 44 | 1013.6 |
| 20260904165607 | 27 | 244 | 9.7 | 22.5 | 0.00 | 0.00 | 0.00 | 45 | 1013.6 |
| 20260904165603 | 27 | 246 | 9.7 | 22.5 | 0.00 | 0.00 | 0.00 | 45 | 1013.6 |
| 20260904165505 | 27 | 242 | 9.7 | 22.5 | 0.00 | 0.00 | 0.00 | 45 | 1013.6 |
| 20260904165405 | 27 | 235 | 9.7 | 22.5 | 0.00 | 0.00 | 0.00 | 45 | 1013.5 |
| 20260904165336 | 27 | 248 | 9.7 | 16.1 | 0.00 | 0.00 | 0.00 | 44 | 1013.6 |
| 20260904165327 | 27 | 248 | 9.7 | 22.5 | 0.00 | 0.00 | 0.00 | 44 | 1013.5 |
| 20260904165323 | 27 | 261 | 9.7 | 22.5 | 0.00 | 0.00 | 0.00 | 44 | 1013.6 |
| 20260904165315 | 27 | 236 | 9.7 | 16.1 | 0.00 | 0.00 | 0.00 | 44 | 1013.6 |
| 20260904165005 | 27 | 232 | 9.7 | 19.3 | 0.00 | 0.00 | 0.00 | 44 | 1013.5 |
| 20260904164905 | 27 | 295 | 9.7 | 19.3 | 0.00 | 0.00 | 0.00 | 44 | 1013.5 |
| 20260904164805 | 27 | 221 | 9.7 | 19.3 | 0.00 | 0.00 | 0.00 | 44 | 1013.5 |
| 20260904164704 | 28 | 202 | 9.7 | 19.3 | 0.00 | 0.00 | 0.00 | 45 | 1013.5 |
| 20260904164602 | 28 | 257 | 9.7 | 19.3 | 0.00 | 0.00 | 0.00 | 44 | 1013.6 |
| 20260904164502 | 28 | 227 | 9.7 | 19.3 | 0.00 | 0.00 | 0.00 | 44 | 1013.5 |
| 20260904164402 | 28 | 234 | 9.7 | 22.5 | 0.00 | 0.00 | 0.00 | 44 | 1013.5 |
| 20260904164302 | 28 | 217 | 9.7 | 22.5 | 0.00 | 0.00 | 0.00 | 44 | 1013.5 |
| 20260904164202 | 28 | 241 | 9.7 | 22.5 | 0.00 | 0.00 | 0.00 | 44 | 1013.5 |
| 20260904164101 | 28 | 204 | 9.7 | 22.5 | 0.00 | 0.00 | 0.00 | 44 | 1013.5 |
| 20260904164000 | 28 | 246 | 9.7 | 22.5 | 0.00 | 0.00 | 0.00 | 43 | 1013.5 |
| 20260904163900 | 28 | 258 | 9.7 | 22.5 | 0.00 | 0.00 | 0.00 | 44 | 1013.4 |
| 20260904163801 | 28 | 202 | 9.7 | 22.5 | 0.00 | 0.00 | 0.00 | 44 | 1013.5 |
| 20260904163701 | 28 | 267 | 9.7 | 22.5 | 0.00 | 0.00 | 0.00 | 43 | 1013.5 |
| 20260904163600 | 28 | 213 | 11.3 | 22.5 | 0.00 | 0.00 | 0.00 | 43 | 1013.5 |
| 20260904163500 | 28 | 228 | 11.3 | 22.5 | 0.00 | 0.00 | 0.00 | 43 | 1013.5 |
| 20260904163401 | 28 | 217 | 11.3 | 20.9 | 0.00 | 0.00 | 0.00 | 43 | 1013.5 |
| 20260904163301 | 28 | 244 | 11.3 | 20.9 | 0.00 | 0.00 | 0.00 | 43 | 1013.5 |
| 20260904163201 | 28 | 220 | 11.3 | 20.9 | 0.00 | 0.00 | 0.00 | 42 | 1013.5 |
| 20260904163101 | 28 | 243 | 11.3 | 20.9 | 0.00 | 0.00 | 0.00 | 43 | 1013.6 |
| 20260904163001 | 28 | 228 | 11.3 | 22.5 | 0.00 | 0.00 | 0.00 | 42 | 1013.5 |
| 20260904162900 | 28 | 251 | 11.3 | 22.5 | 0.00 | 0.00 | 0.00 | 43 | 1013.5 |
| 20260904162800 | 28 | 296 | 11.3 | 22.5 | 0.00 | 0.00 | 0.00 | 42 | 1013.5 |
| 20260904162700 | 28 | 252 | 11.3 | 22.5 | 0.00 | 0.00 | 0.00 | 43 | 1013.5 |
| 20260904162600 | 28 | 233 | 11.3 | 22.5 | 0.00 | 0.00 | 0.00 | 42 | 1013.6 |
| 20260904162501 | 28 | 222 | 11.3 | 22.5 | 0.00 | 0.00 | 0.00 | 43 | 1013.5 |
| 20260904162400 | 28 | 243 | 11.3 | 22.5 | 0.00 | 0.00 | 0.00 | 42 | 1013.6 |
| 20260904162300 | 28 | 226 | 11.3 | 22.5 | 0.00 | 0.00 | 0.00 | 42 | 1013.6 |
| 20260904162200 | 28 | 248 | 11.3 | 22.5 | 0.00 | 0.00 | 0.00 | 41 | 1013.6 |
| 20260904162102 | 28 | 275 | 11.3 | 22.5 | 0.00 | 0.00 | 0.00 | 42 | 1013.5 |
| 20260904162000 | 28 | 265 | 11.3 | 22.5 | 0.00 | 0.00 | 0.00 | 42 | 1013.5 |
| 20260904161900 | 28 | 265 | 11.3 | 22.5 | 0.00 | 0.00 | 0.00 | 43 | 1013.6 |
| 20260904161823 | 28 | 267 | 11.3 | 22.5 | 0.00 | 0.00 | 0.00 | 42 | 1013.6 |
| 20260904161819 | 28 | 281 | 11.3 | 22.5 | 0.00 | 0.00 | 0.00 | 42 | 1013.5 |
| 20260904161811 | 28 | 266 | 12.9 | 24.1 | 0.00 | 0.00 | 0.00 | 41 | 1013.6 |
| 20260904161500 | 28 | 271 | 12.9 | 25.7 | 0.00 | 0.00 | 0.00 | 41 | 1013.6 |
| 20260904161400 | 28 | 265 | 12.9 | 25.7 | 0.00 | 0.00 | 0.00 | 42 | 1013.6 |
| 20260904161324 | 28 | 255 | 11.3 | 25.7 | 0.00 | 0.00 | 0.00 | 42 | 1013.6 |
| 20260904161320 | 28 | 232 | 11.3 | 25.7 | 0.00 | 0.00 | 0.00 | 42 | 1013.6 |
| 20260904161312 | 28 | 255 | 12.9 | 27.4 | 0.00 | 0.00 | 0.00 | 42 | 1013.6 |
| 20260904161001 | 28 | 298 | 12.9 | 27.4 | 0.00 | 0.00 | 0.00 | 42 | 1013.6 |
| 20260904160901 | 28 | 234 | 12.9 | 27.4 | 0.00 | 0.00 | 0.00 | 42 | 1013.6 |
| 20260904160801 | 28 | 273 | 14.5 | 29.0 | 0.00 | 0.00 | 0.00 | 42 | 1013.6 |
| 20260904160701 | 28 | 298 | 12.9 | 29.0 | 0.00 | 0.00 | 0.00 | 41 | 1013.7 |
| 20260904160601 | 28 | 242 | 12.9 | 29.0 | 0.00 | 0.00 | 0.00 | 41 | 1013.7 |
| 20260904160501 | 28 | 268 | 12.9 | 29.0 | 0.00 | 0.00 | 0.00 | 41 | 1013.6 |
| 20260904160401 | 28 | 259 | 14.5 | 29.0 | 0.00 | 0.00 | 0.00 | 40 | 1013.7 |
| 20260904160301 | 28 | 234 | 14.5 | 29.0 | 0.00 | 0.00 | 0.00 | 41 | 1013.7 |
| 20260904160201 | 28 | 223 | 14.5 | 29.0 | 0.00 | 0.00 | 0.00 | 41 | 1013.6 |
| 20260904160001 | 28 | 277 | 14.5 | 29.0 | 0.00 | 0.00 | 0.00 | 41 | 1013.7 |
| 20260904155901 | 28 | 215 | 14.5 | 29.0 | 0.00 | 0.00 | 0.00 | 41 | 1013.7 |
| 20260904155801 | 28 | 206 | 12.9 | 25.7 | 0.00 | 0.00 | 0.00 | 40 | 1013.7 |
| 20260904155701 | 28 | 232 | 12.9 | 25.7 | 0.00 | 0.00 | 0.00 | 41 | 1013.6 |
| 20260904155600 | 28 | 251 | 12.9 | 25.7 | 0.00 | 0.00 | 0.00 | 41 | 1013.7 |
| 20260904155500 | 28 | 254 | 12.9 | 25.7 | 0.00 | 0.00 | 0.00 | 41 | 1013.6 |
| 20260904155401 | 28 | 0 | 12.9 | 25.7 | 0.00 | 0.00 | 0.00 | 41 | 1013.7 |
| 20260904155301 | 28 | 222 | 12.9 | 25.7 | 0.00 | 0.00 | 0.00 | 40 | 1013.7 |
| 20260904155201 | 28 | 241 | 11.3 | 25.7 | 0.00 | 0.00 | 0.00 | 40 | 1013.7 |
| 20260904155101 | 28 | 273 | 11.3 | 25.7 | 0.00 | 0.00 | 0.00 | 41 | 1013.7 |
| 20260904155001 | 28 | 222 | 11.3 | 22.5 | 0.00 | 0.00 | 0.00 | 42 | 1013.7 |
| 20260904154901 | 28 | 258 | 12.9 | 25.7 | 0.00 | 0.00 | 0.00 | 42 | 1013.7 |
| 20260904154801 | 28 | 250 | 12.9 | 25.7 | 0.00 | 0.00 | 0.00 | 41 | 1013.7 |
| 20260904154701 | 28 | 229 | 12.9 | 25.7 | 0.00 | 0.00 | 0.00 | 41 | 1013.7 |
| 20260904154601 | 28 | 233 | 12.9 | 25.7 | 0.00 | 0.00 | 0.00 | 40 | 1013.7 |
| 20260904154501 | 28 | 263 | 12.9 | 25.7 | 0.00 | 0.00 | 0.00 | 41 | 1013.7 |
| 20260904154401 | 28 | 222 | 12.9 | 25.7 | 0.00 | 0.00 | 0.00 | 40 | 1013.8 |
| 20260904154300 | 28 | 228 | 12.9 | 25.7 | 0.00 | 0.00 | 0.00 | 40 | 1013.7 |
| 20260904154200 | 28 | 227 | 12.9 | 25.7 | 0.00 | 0.00 | 0.00 | 40 | 1013.8 |
| 20260904154103 | 28 | 225 | 14.5 | 25.7 | 0.00 | 0.00 | 0.00 | 40 | 1013.8 |
| 20260904154059 | 28 | 229 | 14.5 | 25.7 | 0.00 | 0.00 | 0.00 | 40 | 1013.8 |
| 20260904153954 | 28 | 250 | 14.5 | 25.7 | 0.00 | 0.00 | 0.00 | 40 | 1013.8 |
| 20260904153854 | 28 | 276 | 14.5 | 25.7 | 0.00 | 0.00 | 0.00 | 40 | 1013.8 |
| 20260904153754 | 28 | 209 | 14.5 | 25.7 | 0.00 | 0.00 | 0.00 | 40 | 1013.8 |
| 20260904153653 | 28 | 236 | 12.9 | 25.7 | 0.00 | 0.00 | 0.00 | 40 | 1013.8 |
| 20260904153601 | 28 | 242 | 14.5 | 25.7 | 0.00 | 0.00 | 0.00 | 41 | 1013.8 |
| 20260904153552 | 28 | 270 | 14.5 | 25.7 | 0.00 | 0.00 | 0.00 | 41 | 1013.8 |
| 20260904153446 | 28 | 232 | 14.5 | 25.7 | 0.00 | 0.00 | 0.00 | 41 | 1013.7 |
| 20260904153346 | 28 | 255 | 16.1 | 25.7 | 0.00 | 0.00 | 0.00 | 40 | 1013.8 |
| 20260904153246 | 28 | 240 | 16.1 | 25.7 | 0.00 | 0.00 | 0.00 | 40 | 1013.8 |
| 20260904153146 | 28 | 261 | 16.1 | 25.7 | 0.00 | 0.00 | 0.00 | 39 | 1013.8 |
| 20260904153101 | 28 | 281 | 14.5 | 25.7 | 0.00 | 0.00 | 0.00 | 39 | 1013.9 |
| 20260904153046 | 28 | 252 | 14.5 | 25.7 | 0.00 | 0.00 | 0.00 | 39 | 1013.9 |
| 20260904152940 | 28 | 254 | 14.5 | 24.1 | 0.00 | 0.00 | 0.00 | 40 | 1013.9 |
| 20260904152840 | 28 | 268 | 14.5 | 24.1 | 0.00 | 0.00 | 0.00 | 40 | 1013.8 |
| 20260904152740 | 28 | 242 | 14.5 | 24.1 | 0.00 | 0.00 | 0.00 | 40 | 1013.8 |
| 20260904152640 | 29 | 276 | 14.5 | 24.1 | 0.00 | 0.00 | 0.00 | 39 | 1013.8 |
| 20260904152601 | 29 | 256 | 14.5 | 24.1 | 0.00 | 0.00 | 0.00 | 39 | 1013.9 |
| 20260904152539 | 29 | 238 | 14.5 | 24.1 | 0.00 | 0.00 | 0.00 | 39 | 1013.9 |
| 20260904152436 | 29 | 207 | 14.5 | 24.1 | 0.00 | 0.00 | 0.00 | 39 | 1014.1 |
| 20260904152334 | 29 | 257 | 12.9 | 24.1 | 0.00 | 0.00 | 0.00 | 39 | 1013.9 |
| 20260904152234 | 29 | 248 | 12.9 | 24.1 | 0.00 | 0.00 | 0.00 | 40 | 1013.9 |
| 20260904152134 | 29 | 215 | 12.9 | 24.1 | 0.00 | 0.00 | 0.00 | 39 | 1013.9 |
| 20260904152105 | 29 | 284 | 14.5 | 24.1 | 0.00 | 0.00 | 0.00 | 39 | 1013.9 |
| 20260904152034 | 29 | 270 | 14.5 | 24.1 | 0.00 | 0.00 | 0.00 | 40 | 1013.9 |
| 20260904151935 | 29 | 286 | 14.5 | 24.1 | 0.00 | 0.00 | 0.00 | 40 | 1014.1 |
| 20260904151832 | 29 | 252 | 14.5 | 25.7 | 0.00 | 0.00 | 0.00 | 40 | 1014.1 |
| 20260904151828 | 29 | 256 | 14.5 | 25.7 | 0.00 | 0.00 | 0.00 | 41 | 1014.1 |
| 20260904151819 | 29 | 263 | 14.5 | 25.7 | 0.00 | 0.00 | 0.00 | 41 | 1014.1 |
| 20260904151815 | 29 | 275 | 14.5 | 25.7 | 0.00 | 0.00 | 0.00 | 42 | 1013.9 |
| 20260904151532 | 29 | 269 | 14.5 | 25.7 | 0.00 | 0.00 | 0.00 | 41 | 1014.1 |
| 20260904151432 | 29 | 249 | 16.1 | 25.7 | 0.00 | 0.00 | 0.00 | 41 | 1013.9 |
| 20260904151331 | 29 | 279 | 16.1 | 25.7 | 0.00 | 0.00 | 0.00 | 40 | 1014.1 |
| 20260904151229 | 28 | 256 | 16.1 | 25.7 | 0.00 | 0.00 | 0.00 | 40 | 1014.1 |
| 20260904151129 | 28 | 254 | 17.7 | 29.0 | 0.00 | 0.00 | 0.00 | 40 | 1014.1 |
| 20260904151104 | 29 | 250 | 17.7 | 29.0 | 0.00 | 0.00 | 0.00 | 40 | 1014.1 |
| 20260904151030 | 29 | 265 | 17.7 | 29.0 | 0.00 | 0.00 | 0.00 | 39 | 1014.1 |
| 20260904150929 | 28 | 257 | 17.7 | 29.0 | 0.00 | 0.00 | 0.00 | 40 | 1014.2 |
| 20260904150829 | 29 | 284 | 17.7 | 29.0 | 0.00 | 0.00 | 0.00 | 39 | 1014.2 |
| 20260904150728 | 29 | 268 | 17.7 | 29.0 | 0.00 | 0.00 | 0.00 | 39 | 1014.1 |
| 20260904150629 | 29 | 275 | 17.7 | 29.0 | 0.00 | 0.00 | 0.00 | 39 | 1014.1 |
| 20260904150602 | 29 | 286 | 19.3 | 32.2 | 0.00 | 0.00 | 0.00 | 39 | 1014.2 |
| 20260904150529 | 29 | 254 | 19.3 | 32.2 | 0.00 | 0.00 | 0.00 | 39 | 1014.2 |
| 20260904150429 | 29 | 229 | 19.3 | 32.2 | 0.00 | 0.00 | 0.00 | 39 | 1014.1 |
| 20260904150329 | 29 | 273 | 19.3 | 32.2 | 0.00 | 0.00 | 0.00 | 38 | 1014.1 |
| 20260904150228 | 29 | 232 | 19.3 | 32.2 | 0.00 | 0.00 | 0.00 | 38 | 1014.2 |
| 20260904150129 | 29 | 280 | 19.3 | 32.2 | 0.00 | 0.00 | 0.00 | 38 | 1014.2 |
| 20260904150101 | 29 | 276 | 19.3 | 32.2 | 0.00 | 0.00 | 0.00 | 38 | 1014.1 |
| 20260904150029 | 29 | 288 | 19.3 | 32.2 | 0.00 | 0.00 | 0.00 | 38 | 1014.1 |
| 20260904145928 | 29 | 254 | 17.7 | 32.2 | 0.00 | 0.00 | 0.00 | 38 | 1014.3 |
| 20260904145828 | 29 | 240 | 16.1 | 32.2 | 0.00 | 0.00 | 0.00 | 39 | 1014.2 |
| 20260904145729 | 29 | 279 | 16.1 | 32.2 | 0.00 | 0.00 | 0.00 | 38 | 1014.2 |
| 20260904145629 | 29 | 259 | 14.5 | 32.2 | 0.00 | 0.00 | 0.00 | 38 | 1014.2 |
| 20260904145601 | 29 | 278 | 12.9 | 30.6 | 0.00 | 0.00 | 0.00 | 37 | 1014.3 |
| 20260904145529 | 29 | 269 | 12.9 | 30.6 | 0.00 | 0.00 | 0.00 | 37 | 1014.3 |
| 20260904145429 | 29 | 290 | 12.9 | 30.6 | 0.00 | 0.00 | 0.00 | 38 | 1014.2 |
| 20260904145328 | 29 | 263 | 11.3 | 24.1 | 0.00 | 0.00 | 0.00 | 38 | 1014.1 |
| 20260904145229 | 29 | 250 | 9.7 | 20.9 | 0.00 | 0.00 | 0.00 | 39 | 1014.1 |
| 20260904145129 | 29 | 251 | 9.7 | 20.9 | 0.00 | 0.00 | 0.00 | 39 | 1014.1 |
| 20260904145100 | 29 | 245 | 9.7 | 17.7 | 0.00 | 0.00 | 0.00 | 39 | 1014.2 |
| 20260904145029 | 29 | 281 | 9.7 | 19.3 | 0.00 | 0.00 | 0.00 | 39 | 1014.2 |
| 20260904144929 | 29 | 295 | 9.7 | 20.9 | 0.00 | 0.00 | 0.00 | 38 | 1014.1 |
| 20260904144829 | 29 | 256 | 11.3 | 30.6 | 0.00 | 0.00 | 0.00 | 40 | 1014.2 |
| 20260904144729 | 29 | 267 | 12.9 | 30.6 | 0.00 | 0.00 | 0.00 | 39 | 1014.2 |
| 20260904144628 | 29 | 275 | 12.9 | 30.6 | 0.00 | 0.00 | 0.00 | 40 | 1014.2 |
| 20260904144601 | 29 | 272 | 14.5 | 30.6 | 0.00 | 0.00 | 0.00 | 40 | 1014.1 |
| 20260904144529 | 29 | 225 | 14.5 | 30.6 | 0.00 | 0.00 | 0.00 | 39 | 1014.1 |
| 20260904144428 | 29 | 259 | 14.5 | 30.6 | 0.00 | 0.00 | 0.00 | 39 | 1014.2 |
| 20260904144328 | 29 | 290 | 14.5 | 30.6 | 0.00 | 0.00 | 0.00 | 38 | 1014.2 |
| 20260904144228 | 29 | 248 | 16.1 | 30.6 | 0.00 | 0.00 | 0.00 | 38 | 1014.2 |
| 20260904144127 | 29 | 272 | 17.7 | 30.6 | 0.00 | 0.00 | 0.00 | 38 | 1014.2 |
| 20260904144102 | 29 | 253 | 17.7 | 30.6 | 0.00 | 0.00 | 0.00 | 38 | 1014.2 |
| 20260904144024 | 29 | 277 | 17.7 | 30.6 | 0.00 | 0.00 | 0.00 | 38 | 1014.3 |
| 20260904143924 | 30 | 240 | 17.7 | 30.6 | 0.00 | 0.00 | 0.00 | 38 | 1014.3 |
| 20260904143833 | 30 | 258 | 17.7 | 27.4 | 0.00 | 0.00 | 0.00 | 37 | 1014.2 |
| 20260904143824 | 30 | 285 | 17.7 | 27.4 | 0.00 | 0.00 | 0.00 | 39 | 1014.3 |
| 20260904143817 | 30 | 236 | 17.7 | 27.4 | 0.00 | 0.00 | 0.00 | 38 | 1014.3 |
| 20260904143813 | 30 | 216 | 17.7 | 27.4 | 0.00 | 0.00 | 0.00 | 37 | 1014.2 |
| 20260904143519 | 30 | 269 | 17.7 | 27.4 | 0.00 | 0.00 | 0.00 | 37 | 1014.3 |
| 20260904143416 | 30 | 271 | 17.7 | 27.4 | 0.00 | 0.00 | 0.00 | 38 | 1014.3 |
| 20260904143316 | 30 | 272 | 16.1 | 27.4 | 0.00 | 0.00 | 0.00 | 37 | 1014.3 |
| 20260904143216 | 30 | 262 | 16.1 | 27.4 | 0.00 | 0.00 | 0.00 | 38 | 1014.3 |
| 20260904143115 | 30 | 239 | 17.7 | 27.4 | 0.00 | 0.00 | 0.00 | 38 | 1014.3 |
| 20260904143101 | 30 | 202 | 17.7 | 27.4 | 0.00 | 0.00 | 0.00 | 38 | 1014.3 |
| 20260904143012 | 30 | 219 | 16.1 | 25.7 | 0.00 | 0.00 | 0.00 | 38 | 1014.3 |
| 20260904142912 | 30 | 248 | 16.1 | 25.7 | 0.00 | 0.00 | 0.00 | 37 | 1014.3 |
| 20260904142818 | 30 | 248 | 16.1 | 32.2 | 0.00 | 0.00 | 0.00 | 38 | 1014.4 |
| 20260904142813 | 30 | 242 | 16.1 | 25.7 | 0.00 | 0.00 | 0.00 | 37 | 1014.3 |
| 20260904142809 | 30 | 251 | 16.1 | 25.7 | 0.00 | 0.00 | 0.00 | 37 | 1014.3 |
| 20260904142805 | 30 | 268 | 14.5 | 25.7 | 0.00 | 0.00 | 0.00 | 38 | 1014.3 |
| 20260904142800 | 30 | 267 | 14.5 | 25.7 | 0.00 | 0.00 | 0.00 | 38 | 1014.3 |
| 20260904142540 | 30 | 207 | 14.5 | 25.7 | 0.00 | 0.00 | 0.00 | 38 | 1014.4 |
| 20260904142536 | 30 | 262 | 16.1 | 25.7 | 0.00 | 0.00 | 0.00 | 38 | 1014.3 |
| 20260904142320 | 30 | 300 | 16.1 | 29.0 | 0.00 | 0.00 | 0.00 | 38 | 1014.4 |
| 20260904142316 | 30 | 257 | 16.1 | 30.6 | 0.00 | 0.00 | 0.00 | 38 | 1014.3 |
| 20260904142312 | 30 | 248 | 16.1 | 32.2 | 0.00 | 0.00 | 0.00 | 38 | 1014.4 |
| 20260904142002 | 30 | 210 | 16.1 | 32.2 | 0.00 | 0.00 | 0.00 | 38 | 1014.3 |
| 20260904141902 | 30 | 253 | 16.1 | 32.2 | 0.00 | 0.00 | 0.00 | 38 | 1014.3 |
| 20260904141802 | 30 | 236 | 17.7 | 32.2 | 0.00 | 0.00 | 0.00 | 38 | 1014.4 |
| 20260904141702 | 30 | 220 | 16.1 | 32.2 | 0.00 | 0.00 | 0.00 | 38 | 1014.4 |
| 20260904141605 | 30 | 242 | 16.1 | 32.2 | 0.00 | 0.00 | 0.00 | 38 | 1014.5 |
| 20260904141600 | 30 | 218 | 16.1 | 32.2 | 0.00 | 0.00 | 0.00 | 38 | 1014.5 |
| 20260904141509 | 30 | 298 | 16.1 | 32.2 | 0.00 | 0.00 | 0.00 | 38 | 1014.5 |
| 20260904141402 | 30 | 281 | 16.1 | 32.2 | 0.00 | 0.00 | 0.00 | 37 | 1014.5 |
| 20260904141322 | 30 | 239 | 14.5 | 32.2 | 0.00 | 0.00 | 0.00 | 37 | 1014.5 |
| 20260904141318 | 30 | 219 | 14.5 | 32.2 | 0.00 | 0.00 | 0.00 | 38 | 1014.5 |
| 20260904141314 | 30 | 257 | 14.5 | 25.7 | 0.00 | 0.00 | 0.00 | 37 | 1014.5 |
| 20260904141001 | 30 | 254 | 16.1 | 25.7 | 0.00 | 0.00 | 0.00 | 37 | 1014.5 |
| 20260904140901 | 30 | 211 | 16.1 | 30.6 | 0.00 | 0.00 | 0.00 | 37 | 1014.5 |
| 20260904140801 | 30 | 259 | 16.1 | 32.2 | 0.00 | 0.00 | 0.00 | 38 | 1014.5 |
| 20260904140701 | 30 | 279 | 16.1 | 32.2 | 0.00 | 0.00 | 0.00 | 38 | 1014.6 |
| 20260904140601 | 30 | 281 | 16.1 | 32.2 | 0.00 | 0.00 | 0.00 | 39 | 1014.5 |
| 20260904140501 | 30 | 254 | 16.1 | 32.2 | 0.00 | 0.00 | 0.00 | 38 | 1014.5 |
| 20260904140402 | 30 | 255 | 16.1 | 32.2 | 0.00 | 0.00 | 0.00 | 37 | 1014.6 |
| 20260904140320 | 30 | 255 | 16.1 | 32.2 | 0.00 | 0.00 | 0.00 | 38 | 1014.6 |
| 20260904140316 | 30 | 232 | 16.1 | 32.2 | 0.00 | 0.00 | 0.00 | 38 | 1014.6 |
| 20260904140312 | 30 | 212 | 16.1 | 32.2 | 0.00 | 0.00 | 0.00 | 37 | 1014.6 |
| 20260904140000 | 30 | 267 | 14.5 | 32.2 | 0.00 | 0.00 | 0.00 | 37 | 1014.6 |
| 20260904135901 | 30 | 241 | 14.5 | 32.2 | 0.00 | 0.00 | 0.00 | 38 | 1014.6 |
| 20260904135801 | 30 | 272 | 14.5 | 25.7 | 0.00 | 0.00 | 0.00 | 38 | 1014.5 |
| 20260904135701 | 30 | 302 | 14.5 | 25.7 | 0.00 | 0.00 | 0.00 | 38 | 1014.6 |
| 20260904135601 | 30 | 247 | 16.1 | 25.7 | 0.00 | 0.00 | 0.00 | 38 | 1014.7 |
| 20260904135501 | 30 | 245 | 16.1 | 25.7 | 0.00 | 0.00 | 0.00 | 39 | 1014.6 |
| 20260904135401 | 30 | 265 | 16.1 | 25.7 | 0.00 | 0.00 | 0.00 | 38 | 1014.7 |
| 20260904135301 | 30 | 217 | 14.5 | 25.7 | 0.00 | 0.00 | 0.00 | 38 | 1014.6 |
| 20260904135201 | 30 | 278 | 14.5 | 25.7 | 0.00 | 0.00 | 0.00 | 39 | 1014.6 |
| 20260904135101 | 30 | 287 | 14.5 | 25.7 | 0.00 | 0.00 | 0.00 | 38 | 1014.6 |
| 20260904135001 | 30 | 238 | 14.5 | 25.7 | 0.00 | 0.00 | 0.00 | 38 | 1014.7 |
| 20260904134901 | 30 | 267 | 14.5 | 25.7 | 0.00 | 0.00 | 0.00 | 38 | 1014.6 |
| 20260904134801 | 30 | 269 | 14.5 | 25.7 | 0.00 | 0.00 | 0.00 | 38 | 1014.7 |
| 20260904134701 | 30 | 257 | 12.9 | 25.7 | 0.00 | 0.00 | 0.00 | 38 | 1014.8 |
| 20260904134602 | 30 | 263 | 12.9 | 25.7 | 0.00 | 0.00 | 0.00 | 40 | 1014.6 |
| 20260904134558 | 30 | 263 | 12.9 | 25.7 | 0.00 | 0.00 | 0.00 | 40 | 1014.6 |
| 20260904134458 | 30 | 270 | 12.9 | 25.7 | 0.00 | 0.00 | 0.00 | 39 | 1014.7 |
| 20260904134359 | 30 | 256 | 14.5 | 25.7 | 0.00 | 0.00 | 0.00 | 39 | 1014.6 |
| 20260904134258 | 29 | 237 | 14.5 | 25.7 | 0.00 | 0.00 | 0.00 | 40 | 1014.7 |
| 20260904134157 | 29 | 281 | 14.5 | 25.7 | 0.00 | 0.00 | 0.00 | 40 | 1014.7 |
| 20260904134102 | 29 | 278 | 14.5 | 25.7 | 0.00 | 0.00 | 0.00 | 40 | 1014.6 |
| 20260904134054 | 29 | 281 | 14.5 | 25.7 | 0.00 | 0.00 | 0.00 | 40 | 1014.6 |
| 20260904133954 | 29 | 217 | 14.5 | 25.7 | 0.00 | 0.00 | 0.00 | 40 | 1014.8 |
| 20260904133854 | 29 | 238 | 16.1 | 25.7 | 0.00 | 0.00 | 0.00 | 41 | 1014.7 |
| 20260904133755 | 29 | 264 | 16.1 | 27.4 | 0.00 | 0.00 | 0.00 | 41 | 1014.7 |
| 20260904133651 | 29 | 252 | 14.5 | 27.4 | 0.00 | 0.00 | 0.00 | 41 | 1014.8 |
| 20260904133601 | 29 | 230 | 14.5 | 27.4 | 0.00 | 0.00 | 0.00 | 40 | 1014.8 |
| 20260904133548 | 29 | 257 | 14.5 | 27.4 | 0.00 | 0.00 | 0.00 | 40 | 1014.8 |
| 20260904133446 | 29 | 221 | 14.5 | 27.4 | 0.00 | 0.00 | 0.00 | 40 | 1014.8 |
| 20260904133346 | 29 | 200 | 14.5 | 27.4 | 0.00 | 0.00 | 0.00 | 40 | 1014.8 |
| 20260904133246 | 29 | 221 | 16.1 | 27.4 | 0.00 | 0.00 | 0.00 | 40 | 1014.9 |
| 20260904133146 | 29 | 219 | 16.1 | 27.4 | 0.00 | 0.00 | 0.00 | 39 | 1014.8 |
| 20260904133101 | 29 | 221 | 16.1 | 27.4 | 0.00 | 0.00 | 0.00 | 40 | 1014.9 |
| 20260904133042 | 29 | 211 | 16.1 | 27.4 | 0.00 | 0.00 | 0.00 | 40 | 1014.9 |
| 20260904132941 | 29 | 202 | 16.1 | 27.4 | 0.00 | 0.00 | 0.00 | 41 | 1014.8 |
| 20260904132842 | 29 | 225 | 16.1 | 27.4 | 0.00 | 0.00 | 0.00 | 40 | 1014.8 |
| 20260904132742 | 29 | 241 | 16.1 | 27.4 | 0.00 | 0.00 | 0.00 | 39 | 1014.8 |
| 20260904132639 | 29 | 222 | 16.1 | 27.4 | 0.00 | 0.00 | 0.00 | 40 | 1014.8 |
| 20260904132600 | 29 | 223 | 17.7 | 27.4 | 0.00 | 0.00 | 0.00 | 40 | 1014.8 |
| 20260904132535 | 29 | 204 | 17.7 | 27.4 | 0.00 | 0.00 | 0.00 | 40 | 1014.8 |
| 20260904132434 | 29 | 225 | 17.7 | 27.4 | 0.00 | 0.00 | 0.00 | 40 | 1014.9 |
| 20260904132334 | 29 | 222 | 16.1 | 27.4 | 0.00 | 0.00 | 0.00 | 39 | 1015.0 |
| 20260904132234 | 29 | 236 | 16.1 | 27.4 | 0.00 | 0.00 | 0.00 | 39 | 1014.9 |
| 20260904132134 | 29 | 214 | 16.1 | 27.4 | 0.00 | 0.00 | 0.00 | 40 | 1014.8 |
| 20260904132103 | 29 | 238 | 14.5 | 27.4 | 0.00 | 0.00 | 0.00 | 40 | 1014.9 |
| 20260904132029 | 29 | 214 | 14.5 | 27.4 | 0.00 | 0.00 | 0.00 | 40 | 1014.9 |
| 20260904131930 | 29 | 197 | 14.5 | 27.4 | 0.00 | 0.00 | 0.00 | 40 | 1014.9 |
| 20260904131830 | 29 | 226 | 14.5 | 27.4 | 0.00 | 0.00 | 0.00 | 39 | 1014.9 |
| 20260904131821 | 29 | 219 | 12.9 | 27.4 | 0.00 | 0.00 | 0.00 | 40 | 1015.0 |
| 20260904131816 | 29 | 212 | 12.9 | 27.4 | 0.00 | 0.00 | 0.00 | 40 | 1014.9 |
| 20260904131812 | 29 | 187 | 12.9 | 27.4 | 0.00 | 0.00 | 0.00 | 40 | 1014.9 |
| 20260904131530 | 29 | 217 | 12.9 | 27.4 | 0.00 | 0.00 | 0.00 | 40 | 1015.0 |
| 20260904131430 | 29 | 200 | 14.5 | 27.4 | 0.00 | 0.00 | 0.00 | 41 | 1015.0 |
| 20260904131329 | 29 | 252 | 14.5 | 27.4 | 0.00 | 0.00 | 0.00 | 40 | 1014.9 |
| 20260904131229 | 28 | 240 | 14.5 | 27.4 | 0.00 | 0.00 | 0.00 | 40 | 1014.9 |
| 20260904131129 | 28 | 197 | 14.5 | 27.4 | 0.00 | 0.00 | 0.00 | 41 | 1014.9 |
| 20260904131102 | 28 | 252 | 16.1 | 29.0 | 0.00 | 0.00 | 0.00 | 41 | 1014.9 |
| 20260904131049 | 28 | 226 | 17.7 | 30.6 | 0.00 | 0.00 | 0.00 | 41 | 1015.0 |
| 20260904131046 | 28 | 267 | 16.1 | 29.0 | 0.00 | 0.00 | 0.00 | 41 | 1014.9 |
| 20260904131038 | 28 | 199 | 16.1 | 29.0 | 0.00 | 0.00 | 0.00 | 39 | 1014.9 |
| 20260904131033 | 28 | 229 | 17.7 | 30.6 | 0.00 | 0.00 | 0.00 | 40 | 1014.9 |
| 20260904130816 | 28 | 219 | 17.7 | 30.6 | 0.00 | 0.00 | 0.00 | 40 | 1015.0 |
| 20260904130812 | 28 | 200 | 17.7 | 30.6 | 0.00 | 0.00 | 0.00 | 41 | 1015.0 |
| 20260904130529 | 28 | 231 | 17.7 | 30.6 | 0.00 | 0.00 | 0.00 | 40 | 1015.0 |
| 20260904130429 | 28 | 188 | 17.7 | 30.6 | 0.00 | 0.00 | 0.00 | 40 | 1015.0 |
| 20260904130329 | 28 | 204 | 17.7 | 30.6 | 0.00 | 0.00 | 0.00 | 40 | 1015.0 |
| 20260904130229 | 28 | 191 | 17.7 | 30.6 | 0.00 | 0.00 | 0.00 | 40 | 1015.0 |
| 20260904130129 | 28 | 246 | 17.7 | 30.6 | 0.00 | 0.00 | 0.00 | 41 | 1015.1 |
| 20260904130029 | 28 | 215 | 16.1 | 30.6 | 0.00 | 0.00 | 0.00 | 41 | 1015.1 |
| 20260904125929 | 28 | 218 | 16.1 | 30.6 | 0.00 | 0.00 | 0.00 | 40 | 1015.2 |
| 20260904125829 | 28 | 222 | 14.5 | 30.6 | 0.00 | 0.00 | 0.00 | 41 | 1015.1 |
| 20260904125728 | 28 | 252 | 14.5 | 30.6 | 0.00 | 0.00 | 0.00 | 42 | 1015.3 |
| 20260904125628 | 28 | 215 | 14.5 | 30.6 | 0.00 | 0.00 | 0.00 | 42 | 1015.1 |
| 20260904125601 | 28 | 204 | 16.1 | 30.6 | 0.00 | 0.00 | 0.00 | 41 | 1015.0 |
| 20260904125529 | 28 | 275 | 16.1 | 30.6 | 0.00 | 0.00 | 0.00 | 41 | 1015.0 |
| 20260904125429 | 28 | 278 | 16.1 | 30.6 | 0.00 | 0.00 | 0.00 | 42 | 1015.0 |
| 20260904125329 | 28 | 214 | 16.1 | 30.6 | 0.00 | 0.00 | 0.00 | 41 | 1015.1 |
| 20260904125229 | 28 | 263 | 16.1 | 30.6 | 0.00 | 0.00 | 0.00 | 42 | 1015.1 |
| 20260904125129 | 28 | 250 | 16.1 | 30.6 | 0.00 | 0.00 | 0.00 | 42 | 1015.1 |
| 20260904125101 | 28 | 234 | 16.1 | 30.6 | 0.00 | 0.00 | 0.00 | 42 | 1015.1 |
| 20260904125028 | 28 | 259 | 16.1 | 30.6 | 0.00 | 0.00 | 0.00 | 42 | 1015.1 |
| 20260904124929 | 28 | 229 | 17.7 | 30.6 | 0.00 | 0.00 | 0.00 | 41 | 1015.1 |
| 20260904124828 | 28 | 265 | 17.7 | 30.6 | 0.00 | 0.00 | 0.00 | 41 | 1015.1 |
| 20260904124728 | 28 | 242 | 17.7 | 30.6 | 0.00 | 0.00 | 0.00 | 41 | 1015.1 |
| 20260904124628 | 28 | 248 | 17.7 | 30.6 | 0.00 | 0.00 | 0.00 | 41 | 1015.2 |
| 20260904124601 | 28 | 217 | 17.7 | 30.6 | 0.00 | 0.00 | 0.00 | 40 | 1015.2 |
| 20260904124528 | 28 | 244 | 17.7 | 30.6 | 0.00 | 0.00 | 0.00 | 40 | 1015.2 |
| 20260904124427 | 28 | 210 | 17.7 | 33.8 | 0.00 | 0.00 | 0.00 | 41 | 1015.2 |
| 20260904124328 | 28 | 282 | 17.7 | 33.8 | 0.00 | 0.00 | 0.00 | 42 | 1015.3 |
| 20260904124227 | 28 | 222 | 16.1 | 33.8 | 0.00 | 0.00 | 0.00 | 41 | 1015.4 |
| 20260904124122 | 28 | 224 | 16.1 | 33.8 | 0.00 | 0.00 | 0.00 | 41 | 1015.4 |
| 20260904124102 | 28 | 207 | 16.1 | 33.8 | 0.00 | 0.00 | 0.00 | 42 | 1015.4 |
| 20260904124022 | 28 | 271 | 16.1 | 33.8 | 0.00 | 0.00 | 0.00 | 42 | 1015.3 |
| 20260904123922 | 28 | 225 | 16.1 | 33.8 | 0.00 | 0.00 | 0.00 | 41 | 1015.4 |
| 20260904123822 | 28 | 250 | 14.5 | 33.8 | 0.00 | 0.00 | 0.00 | 41 | 1015.4 |
| 20260904123721 | 28 | 269 | 14.5 | 33.8 | 0.00 | 0.00 | 0.00 | 41 | 1015.5 |
| 20260904123618 | 28 | 226 | 14.5 | 33.8 | 0.00 | 0.00 | 0.00 | 41 | 1015.5 |
| 20260904123601 | 28 | 261 | 14.5 | 33.8 | 0.00 | 0.00 | 0.00 | 41 | 1015.5 |
| 20260904123516 | 28 | 282 | 14.5 | 33.8 | 0.00 | 0.00 | 0.00 | 42 | 1015.5 |
| 20260904123416 | 28 | 283 | 14.5 | 32.2 | 0.00 | 0.00 | 0.00 | 42 | 1015.4 |
| 20260904123326 | 28 | 232 | 14.5 | 32.2 | 0.00 | 0.00 | 0.00 | 42 | 1015.5 |
| 20260904123319 | 28 | 265 | 14.5 | 32.2 | 0.00 | 0.00 | 0.00 | 40 | 1015.5 |
| 20260904123315 | 28 | 209 | 14.5 | 32.2 | 0.00 | 0.00 | 0.00 | 41 | 1015.5 |
| 20260904123311 | 28 | 237 | 14.5 | 32.2 | 0.00 | 0.00 | 0.00 | 42 | 1015.5 |
| 20260904123010 | 28 | 217 | 14.5 | 32.2 | 0.00 | 0.00 | 0.00 | 42 | 1015.5 |
| 20260904122910 | 28 | 232 | 14.5 | 32.2 | 0.00 | 0.00 | 0.00 | 42 | 1015.5 |
| 20260904122810 | 28 | 254 | 16.1 | 32.2 | 0.00 | 0.00 | 0.00 | 42 | 1015.5 |
| 20260904122710 | 28 | 227 | 16.1 | 32.2 | 0.00 | 0.00 | 0.00 | 42 | 1015.5 |
| 20260904122608 | 28 | 201 | 16.1 | 32.2 | 0.00 | 0.00 | 0.00 | 41 | 1015.6 |
| 20260904122601 | 28 | 186 | 16.1 | 32.2 | 0.00 | 0.00 | 0.00 | 41 | 1015.6 |
| 20260904122504 | 28 | 217 | 16.1 | 32.2 | 0.00 | 0.00 | 0.00 | 42 | 1015.6 |
| 20260904122404 | 28 | 277 | 16.1 | 32.2 | 0.00 | 0.00 | 0.00 | 43 | 1015.6 |
| 20260904122325 | 28 | 228 | 17.7 | 32.2 | 0.00 | 0.00 | 0.00 | 43 | 1015.6 |
| 20260904122321 | 28 | 236 | 17.7 | 32.2 | 0.00 | 0.00 | 0.00 | 43 | 1015.6 |
| 20260904122317 | 28 | 244 | 17.7 | 32.2 | 0.00 | 0.00 | 0.00 | 43 | 1015.6 |
| 20260904122313 | 28 | 242 | 17.7 | 32.2 | 0.00 | 0.00 | 0.00 | 43 | 1015.6 |
| 20260904122002 | 28 | 257 | 17.7 | 32.2 | 0.00 | 0.00 | 0.00 | 43 | 1015.6 |
| 20260904121902 | 28 | 289 | 17.7 | 32.2 | 0.00 | 0.00 | 0.00 | 43 | 1015.7 |
| 20260904121826 | 28 | 266 | 16.1 | 32.2 | 0.00 | 0.00 | 0.00 | 42 | 1015.7 |
| 20260904121821 | 28 | 216 | 16.1 | 32.2 | 0.00 | 0.00 | 0.00 | 43 | 1015.7 |
| 20260904121817 | 28 | 276 | 16.1 | 32.2 | 0.00 | 0.00 | 0.00 | 42 | 1015.8 |
| 20260904121812 | 28 | 270 | 16.1 | 32.2 | 0.00 | 0.00 | 0.00 | 42 | 1015.7 |
| 20260904121502 | 28 | 258 | 16.1 | 29.0 | 0.00 | 0.00 | 0.00 | 42 | 1015.7 |
| 20260904121402 | 28 | 207 | 14.5 | 30.6 | 0.00 | 0.00 | 0.00 | 42 | 1015.7 |
| 20260904121301 | 28 | 286 | 14.5 | 30.6 | 0.00 | 0.00 | 0.00 | 42 | 1016.0 |
| 20260904121202 | 28 | 277 | 14.5 | 30.6 | 0.00 | 0.00 | 0.00 | 43 | 1015.7 |
| 20260904121101 | 28 | 13 | 14.5 | 30.6 | 0.00 | 0.00 | 0.00 | 42 | 1015.8 |
| 20260904121001 | 28 | 235 | 16.1 | 30.6 | 0.00 | 0.00 | 0.00 | 43 | 1015.7 |
| 20260904120901 | 28 | 231 | 16.1 | 30.6 | 0.00 | 0.00 | 0.00 | 42 | 1015.8 |
| 20260904120802 | 27 | 194 | 16.1 | 30.6 | 0.00 | 0.00 | 0.00 | 41 | 1015.8 |
| 20260904120701 | 27 | 226 | 17.7 | 30.6 | 0.00 | 0.00 | 0.00 | 41 | 1016.0 |
| 20260904120601 | 27 | 186 | 17.7 | 30.6 | 0.00 | 0.00 | 0.00 | 42 | 1016.0 |
| 20260904120501 | 27 | 210 | 17.7 | 30.6 | 0.00 | 0.00 | 0.00 | 43 | 1016.0 |
| 20260904120401 | 27 | 192 | 17.7 | 29.0 | 0.00 | 0.00 | 0.00 | 42 | 1016.0 |
| 20260904120301 | 27 | 262 | 17.7 | 29.0 | 0.00 | 0.00 | 0.00 | 42 | 1016.0 |
| 20260904120201 | 27 | 294 | 17.7 | 29.0 | 0.00 | 0.00 | 0.00 | 42 | 1016.0 |
| 20260904120109 | 27 | 244 | 14.5 | 29.0 | 0.00 | 0.00 | 0.00 | 42 | 1016.0 |
| 20260904120101 | 27 | 269 | 16.1 | 29.0 | 0.00 | 0.00 | 0.00 | 41 | 1016.1 |
| 20260904120049 | 27 | 259 | 16.1 | 29.0 | 0.00 | 0.00 | 0.00 | 42 | 1016.1 |
| 20260904120041 | 27 | 265 | 14.5 | 29.0 | 0.00 | 0.00 | 0.00 | 42 | 1016.1 |
| 20260904115820 | 27 | 263 | 14.5 | 29.0 | 0.00 | 0.00 | 0.00 | 42 | 1016.0 |
| 20260904115816 | 27 | 247 | 14.5 | 29.0 | 0.00 | 0.00 | 0.00 | 43 | 1016.1 |
| 20260904115812 | 27 | 244 | 14.5 | 29.0 | 0.00 | 0.00 | 0.00 | 42 | 1016.0 |
| 20260904115501 | 27 | 261 | 14.5 | 29.0 | 0.00 | 0.00 | 0.00 | 43 | 1016.0 |
| 20260904115401 | 27 | 268 | 16.1 | 29.0 | 0.00 | 0.00 | 0.00 | 42 | 1016.0 |
| 20260904115319 | 27 | 198 | 16.1 | 33.8 | 0.00 | 0.00 | 0.00 | 42 | 1016.0 |
| 20260904115315 | 27 | 265 | 17.7 | 33.8 | 0.00 | 0.00 | 0.00 | 42 | 1016.0 |
| 20260904115311 | 27 | 261 | 17.7 | 33.8 | 0.00 | 0.00 | 0.00 | 43 | 1016.1 |
| 20260904115000 | 27 | 298 | 17.7 | 33.8 | 0.00 | 0.00 | 0.00 | 42 | 1016.0 |
| 20260904114900 | 27 | 224 | 17.7 | 33.8 | 0.00 | 0.00 | 0.00 | 42 | 1016.1 |
| 20260904114800 | 27 | 223 | 16.1 | 33.8 | 0.00 | 0.00 | 0.00 | 42 | 1016.1 |
| 20260904114700 | 27 | 202 | 16.1 | 33.8 | 0.00 | 0.00 | 0.00 | 42 | 1016.1 |
| 20260904114601 | 27 | 192 | 17.7 | 33.8 | 0.00 | 0.00 | 0.00 | 41 | 1016.1 |
| 20260904114501 | 27 | 219 | 16.1 | 33.8 | 0.00 | 0.00 | 0.00 | 42 | 1016.1 |
| 20260904114401 | 27 | 220 | 16.1 | 33.8 | 0.00 | 0.00 | 0.00 | 43 | 1016.1 |
| 20260904114301 | 27 | 227 | 14.5 | 32.2 | 0.00 | 0.00 | 0.00 | 43 | 1016.1 |
| 20260904114201 | 27 | 236 | 14.5 | 30.6 | 0.00 | 0.00 | 0.00 | 44 | 1016.1 |
| 20260904114101 | 27 | 216 | 16.1 | 25.7 | 0.00 | 0.00 | 0.00 | 43 | 1016.1 |
| 20260904114001 | 27 | 263 | 14.5 | 25.7 | 0.00 | 0.00 | 0.00 | 42 | 1016.2 |
| 20260904113901 | 27 | 228 | 16.1 | 25.7 | 0.00 | 0.00 | 0.00 | 43 | 1016.1 |
| 20260904113801 | 27 | 255 | 16.1 | 25.7 | 0.00 | 0.00 | 0.00 | 42 | 1016.2 |
| 20260904113701 | 27 | 271 | 16.1 | 29.0 | 0.00 | 0.00 | 0.00 | 42 | 1016.2 |
| 20260904113601 | 27 | 221 | 16.1 | 30.6 | 0.00 | 0.00 | 0.00 | 44 | 1016.2 |